[[{"header":{"parameterUnit":"m.s-1","parameterCategory":1,"la1":30.6,"la2":28.766,"lo1":-90.7593,"lo2":-88.6598,"dx":0.0162,"dy":0.0183,"nx":116,"ny":114,"refTime":"2023-01-08T06:00:00:Z","depth":0,"parameterNumber":2,"parameterNumberName":"U-component_of_WINDS"},"data":[0.0,0.0,0.0,0.0,0.0,0.0,0.0,0.0,0.0,0.0,0.0,0.0,0.0,0.0,0.0,0.0,0.0,0.0,0.0,0.0,0.0,0.0,0.0,0.0,0.0,0.0,0.0,0.0,0.0,0.0,0.0,0.0,0.0,0.0,0.0,0.0,0.0,0.0,0.0,0.0,0.0,0.0,0.0,0.0,0.0,0.0,0.0,0.0,0.0,0.0,0.0,0.0,0.0,0.0,0.0,0.0,0.0,0.0,0.0,0.0,0.0,0.0,0.0,0.0,0.0,0.0,0.0,0.0,0.0,0.0,0.0,0.0,0.0,0.0,0.0,0.0,0.0,0.0,0.0,0.0,0.0,0.0,0.0,0.0,0.0,0.0,0.0,0.0,0.0,0.0,0.0,0.0,0.0,0.0,0.0,0.0,0.0,0.0,0.0,0.0,0.0,0.0,0.0,0.0,0.0,0.0,0.0,0.0,0.0,0.0,0.0,0.0,0.0,0.0,0.0,0.0,0.0,0.0,0.0,0.0,0.0,0.0,0.0,0.0,0.0,0.0,0.0,0.0,0.0,0.0,0.0,0.0,0.0,0.0,0.0,0.0,0.0,0.0,0.0,0.0,0.0,0.0,0.0,0.0,0.0,0.0,0.0,0.0,0.0,0.0,0.0,0.0,0.0,0.0,0.0,0.0,0.0,0.0,0.0,0.0,0.0,0.0,0.0,0.0,0.0,0.0,0.0,0.0,0.0,0.0,0.0,0.0,0.0,0.0,0.0,0.0,0.0,0.0,0.0,0.0,0.0,0.0,0.0,0.0,0.0,0.0,0.0,0.0,0.0,0.0,0.0,0.0,0.0,0.0,0.0,0.0,0.0,0.0,0.0,0.0,0.0,0.0,0.0,0.0,0.0,0.0,0.0,0.0,0.0,0.0,0.0,0.0,0.0,0.0,0.0,0.0,0.0,0.0,0.0,0.0,0.0,0.0,0.0,0.0,0.0,0.0,0.0,0.0,0.0,0.0,0.0,0.0,0.0,0.0,0.0,0.0,0.0,0.0,0.0,0.0,0.0,0.0,0.0,0.0,0.0,0.0,0.0,0.0,0.0,0.0,0.0,0.0,0.0,0.0,0.0,0.0,0.0,0.0,0.0,0.0,0.0,0.0,0.0,0.0,0.0,0.0,0.0,0.0,0.0,0.0,0.0,0.0,0.0,0.0,0.0,0.0,0.0,0.0,0.0,0.0,0.0,0.0,0.0,0.0,0.0,0.0,0.0,0.0,0.0,0.0,0.0,0.0,0.0,0.0,0.0,0.0,0.0,0.0,0.0,0.0,0.0,0.0,0.0,0.0,0.0,0.0,0.0,0.0,0.0,0.0,0.0,0.0,0.0,0.0,0.0,0.0,0.0,0.0,0.0,0.0,0.0,0.0,0.0,0.0,0.0,0.0,0.0,0.0,0.0,0.0,0.0,0.0,0.0,0.0,0.0,0.0,0.0,0.0,0.0,0.0,0.0,0.0,0.0,0.0,0.0,0.0,0.0,0.0,0.0,0.0,0.0,0.0,0.0,0.0,0.0,0.0,0.0,0.0,0.0,0.0,0.0,0.0,0.0,0.0,0.0,0.0,0.0,0.0,0.0,0.0,0.0,0.0,0.0,0.0,0.0,0.0,0.0,0.0,0.0,0.0,0.0,0.0,0.0,0.0,0.0,0.0,0.0,0.0,0.0,0.0,0.0,0.0,0.0,0.0,0.0,0.0,0.0,0.0,0.0,0.0,0.0,0.0,0.0,0.0,0.0,0.0,0.0,0.0,0.0,0.0,0.0,0.0,0.0,0.0,0.0,0.0,0.0,0.0,0.0,0.0,0.0,0.0,0.0,0.0,0.0,0.0,0.0,0.0,0.0,0.0,0.0,0.0,0.0,0.0,0.0,0.0,0.0,0.0,0.0,0.0,0.0,0.0,0.0,0.0,0.0,0.0,0.0,0.0,0.0,0.0,0.0,0.0,0.0,0.0,0.0,0.0,0.0,0.0,0.0,0.0,0.0,0.0,0.0,0.0,0.0,0.0,0.0,0.0,0.0,0.0,0.0,0.0,0.0,0.0,0.0,0.0,0.0,0.0,0.0,0.0,0.0,0.0,0.0,0.0,0.0,0.0,0.0,0.0,0.0,0.0,0.0,0.0,0.0,0.0,0.0,0.0,0.0,0.0,0.0,0.0,0.0,0.0,0.0,0.0,0.0,0.0,0.0,0.0,0.0,0.0,0.0,0.0,0.0,0.0,0.0,0.0,0.0,0.0,0.0,0.0,0.0,0.0,0.0,0.0,0.0,0.0,0.0,0.0,0.0,0.0,0.0,0.0,0.0,0.0,0.0,0.0,0.0,0.0,0.0,0.0,0.0,0.0,0.0,0.0,0.0,0.0,0.0,0.0,0.0,0.0,0.0,0.0,0.0,0.0,0.0,0.0,0.0,0.0,0.0,0.0,0.0,0.0,0.0,0.0,0.0,0.0,0.0,0.0,0.0,0.0,0.0,0.0,0.0,0.0,0.0,0.0,0.0,0.0,0.0,0.0,0.0,0.0,0.0,0.0,0.0,0.0,0.0,0.0,0.0,0.0,0.0,0.0,0.0,0.0,0.0,0.0,0.0,0.0,0.0,0.0,0.0,0.0,0.0,0.0,0.0,0.0,0.0,0.0,0.0,0.0,0.0,0.0,0.0,0.0,0.0,0.0,0.0,0.0,0.0,0.0,0.0,0.0,0.0,0.0,0.0,0.0,0.0,0.0,0.0,0.0,0.0,0.0,0.0,0.0,0.0,0.0,0.0,0.0,0.0,0.0,0.0,0.0,0.0,0.0,0.0,0.0,0.0,0.0,0.0,0.0,0.0,0.0,0.0,0.0,0.0,0.0,0.0,0.0,0.0,0.0,0.0,0.0,0.0,0.0,0.0,0.0,0.0,0.0,0.0,0.0,0.0,0.0,0.0,0.0,0.0,0.0,0.0,0.0,0.0,0.0,0.0,0.0,0.0,0.0,0.0,0.0,0.0,0.0,0.0,0.0,0.0,0.0,0.0,0.0,0.0,0.0,0.0,0.0,0.0,0.0,0.0,0.0,0.0,0.0,0.0,0.0,0.0,0.0,0.0,0.0,0.0,0.0,0.0,0.0,0.0,0.0,0.0,0.0,0.0,0.0,0.0,0.0,0.0,0.0,0.0,0.0,0.0,0.0,0.0,0.0,0.0,0.0,0.0,0.0,0.0,0.0,0.0,0.0,0.0,0.0,0.0,0.0,0.0,0.0,0.0,0.0,0.0,0.0,0.0,0.0,0.0,0.0,0.0,0.0,0.0,0.0,0.0,0.0,0.0,0.0,0.0,0.0,0.0,0.0,0.0,0.0,0.0,0.0,0.0,0.0,0.0,0.0,0.0,0.0,0.0,0.0,0.0,0.0,0.0,0.0,0.0,0.0,0.0,0.0,0.0,0.0,0.0,0.0,0.0,0.0,0.0,0.0,0.0,0.0,0.0,0.0,0.0,0.0,0.0,0.0,0.0,0.0,0.0,0.0,0.0,0.0,0.0,0.0,0.0,0.0,0.0,0.0,0.0,0.0,0.0,0.0,0.0,0.0,0.0,0.0,0.0,0.0,0.0,0.0,0.0,0.0,0.0,0.0,0.0,0.0,0.0,0.0,0.0,0.0,0.0,0.0,0.0,0.0,0.0,0.0,0.0,0.0,0.0,0.0,0.0,0.0,0.0,0.0,0.0,0.0,0.0,0.0,0.0,0.0,0.0,0.0,0.0,0.0,0.0,0.0,0.0,0.0,0.0,0.0,0.0,0.0,0.0,0.0,0.0,0.0,0.0,0.0,0.0,0.0,0.0,0.0,0.0,0.0,0.0,0.0,0.0,0.0,0.0,0.0,0.0,0.0,0.0,0.0,0.0,0.0,0.0,0.0,0.0,0.0,0.0,0.0,0.0,0.0,0.0,0.0,0.0,0.0,0.0,0.0,0.0,0.0,0.0,0.0,0.0,0.0,0.0,0.0,0.0,0.0,0.0,0.0,0.0,0.0,0.0,0.0,0.0,0.0,0.0,0.0,0.0,0.0,0.0,0.0,0.0,0.0,0.0,0.0,0.0,0.0,0.0,0.0,0.0,0.0,0.0,0.0,0.0,0.0,0.0,0.0,0.0,0.0,0.0,0.0,0.0,0.0,0.0,0.0,0.0,0.0,0.0,0.0,0.0,0.0,0.0,0.0,0.0,0.0,0.0,0.0,0.0,0.0,0.0,0.0,0.0,0.0,0.0,0.0,0.0,0.0,0.0,0.0,0.0,0.0,0.0,0.0,0.0,0.0,0.0,0.0,0.0,0.0,0.0,0.0,0.0,0.0,0.0,0.0,0.0,0.0,0.0,0.0,0.0,0.0,0.0,0.0,0.0,0.0,0.0,0.0,0.0,0.0,0.0,0.0,0.0,0.0,0.0,0.0,0.0,0.0,0.0,0.0,0.0,0.0,0.0,0.0,0.0,0.0,0.0,0.0,0.0,0.0,0.0,0.0,0.0,0.0,0.0,0.0,0.0,0.0,0.0,0.0,0.0,0.0,0.0,0.0,0.0,0.0,0.0,0.0,0.0,0.0,0.0,0.0,0.0,0.0,0.0,0.0,0.0,0.0,0.0,0.0,0.0,0.0,0.0,0.0,0.0,0.0,0.0,0.0,0.0,0.0,0.0,0.0,0.0,0.0,0.0,0.0,0.0,0.0,0.0,0.0,0.0,0.0,0.0,0.0,0.0,0.0,0.0,0.0,0.0,0.0,0.0,0.0,0.0,0.0,0.0,0.0,0.0,0.0,0.0,0.0,0.0,0.0,0.0,0.0,0.0,0.0,0.0,0.0,0.0,0.0,0.0,0.0,0.0,0.0,0.0,0.0,0.0,0.0,0.0,0.0,0.0,0.0,0.0,0.0,0.0,0.0,0.0,0.0,0.0,0.0,0.0,0.0,0.0,0.0,0.0,0.0,0.0,0.0,0.0,0.0,0.0,0.0,0.0,0.0,0.0,0.0,0.0,0.0,0.0,0.0,0.0,0.0,0.0,0.0,0.0,0.0,0.0,0.0,0.0,0.0,0.0,0.0,0.0,0.0,0.0,0.0,0.0,0.0,0.0,0.0,0.0,0.0,0.0,0.0,0.0,0.0,0.0,0.0,0.0,0.0,0.0,0.0,0.0,0.0,0.0,0.0,0.0,0.0,0.0,0.0,0.0,0.0,0.0,0.0,0.0,0.0,0.0,0.0,0.0,0.0,0.0,0.0,0.0,0.0,0.0,0.0,0.0,0.0,0.0,0.0,0.0,0.0,0.0,0.0,0.0,0.0,0.0,0.0,0.0,0.0,0.0,0.0,0.0,0.0,0.0,0.0,0.0,0.0,0.0,0.0,0.0,0.0,0.0,0.0,0.0,0.0,0.0,0.0,0.0,0.0,0.0,0.0,0.0,0.0,0.0,0.0,0.0,0.0,0.0,0.0,0.0,0.0,0.0,0.0,0.0,0.0,0.0,0.0,0.0,0.0,0.0,0.0,0.0,0.0,0.0,0.0,0.0,0.0,0.0,0.0,0.0,0.0,0.0,0.0,0.0,0.0,0.0,0.0,0.0,0.0,0.0,0.0,0.0,0.0,0.0,0.0,0.0,0.0,0.0,0.0,0.0,0.0,0.0,0.0,0.0,0.0,0.0,0.0,0.0,0.0,0.0,0.0,0.0,0.0,0.0,0.0,0.0,0.0,0.0,0.0,0.0,0.0,0.0,0.0,0.0,0.0,0.0,0.0,0.0,0.0,0.0,0.0,0.0,0.0,0.0,0.0,0.0,0.0,0.0,0.0,0.0,0.0,0.0,0.0,0.0,0.0,0.0,0.0,0.0,0.0,0.0,0.0,0.0,0.0,0.0,0.0,0.0,0.0,0.0,0.0,0.0,0.0,0.0,0.0,0.0,0.0,0.0,0.0,0.0,0.0,0.0,0.0,0.0,0.0,0.0,0.0,0.0,0.0,0.0,0.0,0.0,0.0,0.0,0.0,0.0,0.0,0.0,0.0,0.0,0.0,0.0,0.0,0.0,0.0,-3.6399,-3.438,0.0,0.0,0.0,0.0,0.0,0.0,0.0,0.0,0.0,0.0,0.0,0.0,0.0,0.0,0.0,0.0,0.0,0.0,0.0,0.0,0.0,0.0,0.0,-2.689,-2.6967,-2.6582,-2.6544,0.0,0.0,0.0,0.0,0.0,0.0,0.0,0.0,0.0,-2.8231,-2.8693,-3.0325,-3.192,-3.3364,-3.2486,-3.1565,-3.0601,0.0,0.0,0.0,0.0,0.0,0.0,0.0,0.0,0.0,0.0,0.0,0.0,0.0,0.0,0.0,0.0,0.0,0.0,0.0,0.0,0.0,0.0,0.0,0.0,0.0,0.0,0.0,0.0,0.0,0.0,0.0,0.0,0.0,0.0,0.0,0.0,0.0,0.0,0.0,0.0,0.0,0.0,0.0,0.0,0.0,0.0,0.0,0.0,0.0,0.0,0.0,0.0,0.0,0.0,0.0,0.0,0.0,0.0,0.0,0.0,0.0,0.0,0.0,0.0,0.0,0.0,0.0,0.0,0.0,0.0,-3.9129,-3.7147,0.0,0.0,0.0,0.0,0.0,0.0,0.0,0.0,0.0,0.0,0.0,0.0,0.0,0.0,0.0,0.0,0.0,0.0,0.0,0.0,0.0,-2.9077,-2.8396,-2.878,-2.8896,-2.839,-2.8082,-2.8005,-2.8313,-2.8203,0.0,0.0,0.0,0.0,0.0,-2.896,-2.9918,-3.0788,-3.2873,-3.5106,-3.743,-3.849,-3.7964,-3.6159,-3.3857,0.0,0.0,0.0,0.0,0.0,0.0,0.0,0.0,0.0,0.0,0.0,0.0,0.0,0.0,0.0,0.0,0.0,0.0,0.0,0.0,0.0,0.0,0.0,0.0,0.0,0.0,0.0,0.0,0.0,0.0,0.0,0.0,0.0,0.0,0.0,0.0,0.0,0.0,0.0,0.0,0.0,0.0,0.0,0.0,0.0,0.0,0.0,0.0,0.0,0.0,0.0,0.0,0.0,0.0,0.0,0.0,0.0,0.0,0.0,0.0,0.0,0.0,0.0,-4.4268,-4.4672,-4.5315,-4.4635,-4.4709,-4.5168,-4.2359,-4.0451,-3.9276,-3.8469,0.0,0.0,0.0,0.0,0.0,0.0,0.0,0.0,0.0,0.0,0.0,0.0,0.0,0.0,0.0,0.0,0.0,0.0,0.0,-3.026,-3.0094,-2.9506,-2.9352,-3.0,-2.8736,-2.8506,-2.9962,-2.9352,0.0,0.0,0.0,0.0,-2.9701,-3.1271,-3.1931,-3.1644,-3.5465,-3.8238,-3.9954,-4.1807,-4.2134,-4.1092,-3.9441,-3.7813,-3.6264,0.0,0.0,0.0,0.0,0.0,0.0,0.0,0.0,0.0,0.0,0.0,0.0,0.0,0.0,0.0,0.0,0.0,0.0,0.0,0.0,0.0,0.0,0.0,0.0,0.0,0.0,0.0,0.0,0.0,0.0,0.0,0.0,0.0,0.0,0.0,0.0,0.0,0.0,0.0,0.0,0.0,-3.3807,-3.4747,0.0,0.0,0.0,0.0,0.0,0.0,0.0,0.0,0.0,0.0,0.0,0.0,0.0,-4.3351,-4.4085,-4.4966,-4.5847,-4.6636,-4.7352,-4.7719,-4.7829,-4.7719,-4.7719,-4.7755,-4.6636,0.0,-4.1772,-4.0965,0.0,0.0,0.0,0.0,0.0,0.0,0.0,0.0,0.0,0.0,0.0,0.0,0.0,0.0,0.0,0.0,0.0,0.0,0.0,0.0,0.0,-3.2352,-3.266,-3.2545,-3.2314,-3.2275,-3.2506,-3.2166,0.0,0.0,0.0,-3.1641,-3.1628,-3.2875,-3.4677,-3.7127,-3.9319,-4.1756,-4.4474,-4.539,-4.5589,-4.5124,-4.4931,-4.2439,-3.8286,-3.698,0.0,0.0,0.0,0.0,0.0,0.0,0.0,0.0,0.0,0.0,0.0,0.0,0.0,0.0,0.0,0.0,0.0,0.0,0.0,0.0,0.0,0.0,0.0,0.0,0.0,0.0,0.0,0.0,0.0,0.0,0.0,0.0,0.0,0.0,0.0,0.0,0.0,0.0,0.0,-3.5069,-3.6009,-3.816,-3.8358,-3.8652,0.0,0.0,0.0,0.0,0.0,0.0,0.0,0.0,0.0,-4.4305,-4.5112,-4.614,-4.7388,-4.7755,-4.8379,-4.9187,-4.9554,-4.9701,-4.9701,-4.9701,-4.9701,-4.9701,-4.9334,-4.8122,-4.6214,-4.4048,-4.291,-4.2506,0.0,0.0,0.0,0.0,-3.9533,-3.9423,0.0,0.0,0.0,0.0,0.0,0.0,0.0,0.0,0.0,0.0,0.0,0.0,-3.3647,-3.4923,-3.5538,-3.4891,-3.5238,-3.5423,-3.5206,-3.4968,-3.4661,-3.4237,-3.4199,-3.4007,-3.3583,-3.476,-3.7521,-4.1919,-4.2829,-4.4867,-4.7934,-4.8531,-4.8734,-4.864,-4.953,-4.6655,-4.1135,-3.9994,-3.938,-3.9039,0.0,0.0,0.0,0.0,0.0,0.0,0.0,0.0,0.0,0.0,0.0,0.0,0.0,0.0,0.0,0.0,0.0,0.0,0.0,0.0,0.0,0.0,0.0,0.0,0.0,0.0,0.0,0.0,0.0,0.0,0.0,0.0,0.0,0.0,0.0,0.0,0.0,-3.7808,-3.8726,-4.1132,-4.1258,-4.1368,0.0,0.0,0.0,0.0,0.0,0.0,-4.4378,-4.5406,-4.6214,-4.6801,-4.7645,-4.8636,-4.9811,-5.0088,-5.0508,-5.1096,-5.1316,-5.1426,-5.1426,-5.1426,-5.1426,-5.1389,-5.1206,-5.0765,-4.9978,-4.7095,-4.581,-4.5553,-4.4745,-4.4048,-4.3387,-4.2176,-4.1699,-4.1589,0.0,0.0,0.0,0.0,0.0,0.0,0.0,0.0,0.0,0.0,0.0,-3.5547,-3.538,-3.6115,-3.6615,-3.6577,-3.5923,-3.6154,-3.77,-3.7046,-3.693,-3.77,-3.7738,-3.7007,-3.5385,-3.7479,-4.0262,-4.3683,-4.5366,-4.7094,-4.8888,-5.08,-5.1682,-5.1711,-5.2605,-5.06,-4.6464,-4.452,-4.3684,-4.3379,-3.9961,0.0,0.0,0.0,0.0,0.0,0.0,0.0,0.0,0.0,0.0,0.0,0.0,0.0,0.0,0.0,0.0,0.0,0.0,0.0,0.0,0.0,0.0,0.0,0.0,0.0,0.0,0.0,0.0,0.0,0.0,0.0,0.0,0.0,0.0,0.0,0.0,0.0,0.0,-4.2213,-4.3571,0.0,0.0,0.0,0.0,-4.57,-4.6415,-4.6892,-4.6929,-4.8453,-4.9353,-4.9297,-5.0178,-5.0655,-5.0729,-5.1499,-5.1903,-5.194,-5.2711,-5.3078,-5.3078,-5.3078,-5.3078,-5.302,-5.227,-5.1903,-5.172,-4.9958,-4.882,-4.8049,-4.7223,-4.6892,-4.6562,-4.4232,-4.3404,-4.313,0.0,0.0,0.0,-3.0859,-3.0898,-3.1094,-3.1641,-3.2422,-3.3233,-3.3945,-3.5016,-3.5832,-3.6234,-3.7046,-3.7777,-3.8315,-3.8584,-3.8738,-3.8815,-3.9046,-3.8815,-3.8046,-3.9046,-3.9854,-4.0392,-4.1665,-4.3731,-4.657,-4.8844,-5.0542,-5.1721,-5.3507,-5.4222,-5.3972,-5.4279,-5.3466,-5.1699,-4.8769,-4.6962,-4.5803,-4.3475,-4.1332,0.0,0.0,0.0,0.0,0.0,0.0,0.0,0.0,0.0,0.0,0.0,0.0,0.0,0.0,0.0,0.0,0.0,0.0,0.0,0.0,0.0,0.0,0.0,0.0,0.0,0.0,0.0,0.0,0.0,0.0,0.0,0.0,0.0,0.0,0.0,0.0,0.0,-4.5205,-4.5902,0.0,-4.6985,-4.7278,-4.7645,-4.8159,-4.8526,-4.893,-4.9424,-5.0068,-5.0582,-5.1096,-5.1389,-5.183,-5.2344,-5.2637,-5.2784,-5.2784,-5.3078,-5.3203,-5.3203,-5.3203,-5.3203,-5.3167,-5.2894,-5.2784,-5.2747,-5.2123,-5.1096,-4.9848,-4.9003,-4.8379,-4.77,-4.6305,-4.548,-4.4966,0.0,-2.9922,0.0,-3.0898,-3.1133,-3.1523,-3.2109,-3.3125,-3.4093,-3.4799,-3.5868,-3.6841,-3.7504,-3.8584,-3.9508,-4.0085,-4.0893,-4.117,-4.0623,-4.1093,-4.0893,-3.9777,-4.0777,-4.2162,-4.3893,-4.4739,-4.6432,-4.8971,-5.1241,-5.2933,-5.4087,-5.578,-5.6575,-5.6575,-5.6575,-5.6406,-5.5875,-5.3328,-5.097,-4.8864,-4.7202,-4.4847,-4.2139,0.0,0.0,0.0,0.0,0.0,0.0,0.0,0.0,0.0,0.0,0.0,0.0,0.0,0.0,0.0,0.0,0.0,0.0,0.0,0.0,0.0,0.0,0.0,0.0,0.0,0.0,0.0,0.0,0.0,0.0,0.0,0.0,0.0,0.0,0.0,-4.5626,-4.6929,-4.7846,-4.8544,-4.9114,-4.915,-4.937,-4.9884,-5.0235,-5.0639,-5.1169,-5.1463,-5.1867,-5.238,-5.2417,-5.2674,-5.3167,-5.3203,-5.3203,-5.3203,-5.3203,-5.3203,-5.3203,-5.3203,-5.3203,-5.3203,-5.3203,-5.3203,-5.3203,-5.3203,-5.2564,-5.1536,-5.0692,-4.9884,-4.9003,-4.792,-4.7003,-4.6287,-2.9609,-3.0312,-3.0898,-3.0898,-3.1601,-3.2226,-3.2226,-3.3633,-3.4952,-3.5652,-3.7218,-3.8535,-3.9252,-4.0777,-4.1769,-4.1846,-4.2624,-4.3085,-4.3085,-4.3124,-4.3162,-4.3239,-4.3239,-4.4008,-4.5671,-4.6586,-4.824,-5.075,-5.2472,-5.4164,-5.578,-5.755,-5.8781,-5.955,-5.955,-5.9306,-5.8901,-5.8047,-5.5852,-5.2746,-5.1028,-4.9078,-4.682,0.0,0.0,0.0,0.0,0.0,0.0,0.0,0.0,0.0,0.0,0.0,0.0,0.0,0.0,0.0,0.0,0.0,0.0,0.0,0.0,0.0,0.0,0.0,0.0,0.0,0.0,0.0,0.0,0.0,0.0,0.0,0.0,0.0,-4.258,-4.5847,-4.8049,-4.7333,-4.9351,-5.0839,-5.0875,-5.0875,-5.0875,-5.0875,-5.161,-5.205,-5.205,-5.2784,-5.3203,-5.3261,-5.3261,-5.324,-5.3298,-5.324,-5.3261,-5.3261,-5.3203,-5.3203,-5.3203,-5.3203,-5.3203,-5.3203,-5.3203,-5.3203,-5.3203,-5.3203,-5.3203,-5.3093,-5.2307,-5.1499,-5.0618,-4.8967,-4.781,-4.7039,-2.9726,-3.0312,-3.0898,-3.0898,-3.1601,-3.2383,-3.2969,-3.3984,-3.5192,-3.659,-3.7115,-3.8106,-4.0113,-4.0636,-4.1354,-4.2624,-4.297,-4.3085,-4.3085,-4.3662,-4.4547,-4.5817,-4.5855,-4.6624,-4.8317,-4.9202,-5.0279,-5.1587,-5.4511,-5.6214,-5.6676,-5.9011,-6.0242,-6.0435,-6.0435,-6.0388,-6.0277,-6.0008,-5.8857,-5.6968,-5.4365,-5.1361,-4.833,0.0,0.0,0.0,0.0,0.0,0.0,0.0,0.0,0.0,0.0,0.0,0.0,0.0,0.0,0.0,0.0,0.0,0.0,0.0,0.0,0.0,0.0,0.0,0.0,0.0,0.0,0.0,0.0,0.0,0.0,0.0,0.0,-4.6232,-4.6617,-4.7609,-4.8893,-5.0472,-5.1242,-5.1903,-5.2491,-5.2564,-5.2564,-5.2564,-5.2747,-5.2858,-5.2858,-5.3078,-5.3482,-5.4069,-5.4069,-5.4363,-5.4913,-5.4363,-5.4069,-5.4069,-5.3482,-5.3203,-5.3203,-5.3203,-5.3203,-5.3203,-5.3203,-5.3203,-5.3203,-5.3203,-5.3203,-5.3093,-5.2307,-5.1499,-5.0655,-4.9627,-4.871,-4.792,-3.0312,-3.0547,-3.1016,-3.1367,-3.2148,-3.2969,-3.3828,-3.4687,-3.5857,-3.7507,-3.7595,-3.8503,-4.098,-4.1437,-4.2124,-4.347,-4.3932,-4.4162,-4.4162,-4.4932,-4.6009,-4.7355,-4.774,-4.8586,-4.9933,-5.0779,-5.1933,-5.351,-5.5857,-5.7368,-5.8088,-5.9935,-6.0781,-6.0781,-6.0781,-6.0781,-6.0781,-6.0781,-6.0378,-5.9459,-5.7041,-5.4162,-5.1126,-4.9631,-4.7317,-4.4749,-4.4079,-4.3297,-4.2448,-4.1489,0.0,0.0,0.0,0.0,0.0,0.0,0.0,0.0,0.0,0.0,0.0,0.0,0.0,0.0,0.0,0.0,0.0,0.0,0.0,0.0,0.0,0.0,0.0,0.0,-4.7076,-4.7993,-4.9187,-4.937,-4.9884,-5.1316,-5.2087,-5.2711,-5.313,-5.3203,-5.3203,-5.3203,-5.3203,-5.3371,-5.3702,-5.4032,-5.4436,-5.4876,-5.5244,-5.5464,-5.5596,-5.5133,-5.4913,-5.4913,-5.4436,-5.4216,-5.4179,-5.3849,-5.3702,-5.3702,-5.3371,-5.3203,-5.3203,-5.3203,-5.3203,0.0,0.0,0.0,0.0,0.0,-4.871,-4.8306,-3.1367,-3.1172,-3.1445,-3.2187,-3.3008,-3.3828,-3.457,-3.543,-3.656,-3.8214,-3.8416,-3.9358,-4.174,-4.2678,-4.3431,-4.4239,-4.5017,-4.5556,-4.5748,-4.6547,-4.7394,-4.8202,-4.9163,-5.0048,-5.0827,-5.1741,-5.3356,-5.5703,-5.6676,-5.7934,-5.9511,-6.0396,-6.0781,-6.0781,-6.0781,-6.0781,-6.0781,-6.0781,-6.0781,-6.0666,-5.8973,-5.6869,-5.4458,-5.2061,-5.0118,-4.8493,-4.6995,-4.5949,-4.5079,-4.3915,0.0,0.0,0.0,0.0,0.0,0.0,0.0,0.0,0.0,0.0,0.0,0.0,0.0,0.0,0.0,0.0,0.0,0.0,0.0,0.0,0.0,0.0,0.0,0.0,-4.7976,-4.904,-5.0692,-5.0949,-5.0986,-5.1059,-5.2344,-5.3203,-5.3203,-5.3203,-5.3203,-5.3203,-5.3277,-5.3665,-5.4363,0.0,0.0,0.0,0.0,-5.6492,-5.589,-5.5757,-5.5721,-5.5721,-5.5647,-5.5596,-5.5596,-5.484,-5.4473,-5.4363,-5.3665,-5.3277,-5.3203,-5.3203,-5.313,-5.3078,-5.2947,-5.2013,-5.0472,-4.8893,-4.8306,-4.8306,-3.3086,-3.293,-3.2969,-3.3125,-3.3867,-3.4492,-3.4687,-3.543,-3.6601,-3.8358,-3.8953,-4.001,-4.1868,-4.2672,-4.3431,-4.4239,-4.4432,-4.5163,-4.6547,-4.7432,-4.824,-4.9125,-5.0625,-5.15,-5.1654,-5.3203,-5.4549,-5.5703,-5.728,-5.855,-5.9511,-6.0396,-6.0781,-6.0781,-6.0781,-6.0781,-6.0781,-6.0781,-6.0781,-6.0666,-5.8973,-5.739,-5.5829,-5.4011,-5.2061,-5.0293,-4.9977,-4.9334,-4.8517,-4.7551,-4.6708,-4.5817,-4.4459,-4.3488,0.0,0.0,0.0,0.0,0.0,0.0,0.0,0.0,0.0,0.0,0.0,0.0,0.0,0.0,0.0,0.0,0.0,0.0,0.0,-4.893,-4.9243,-4.9904,-5.1536,-5.1756,-5.2013,-5.2674,-5.2983,-5.3203,-5.3203,-5.3203,-5.3203,-5.3203,-5.3812,-5.4252,-5.4399,-5.5133,-5.5904,-5.6565,-5.6712,-5.7042,-5.7519,-5.6895,-5.6565,-5.6565,0.0,0.0,-5.5574,-5.5427,-5.4987,-5.4399,-5.4252,-5.3812,-5.3203,-5.3203,-5.2821,-5.216,-5.1536,-5.0692,-4.9721,-4.8673,-4.8306,-4.8306,-3.4805,-3.3984,-3.3555,-3.3984,-3.4414,-3.4844,-3.5273,-3.5703,-3.6484,-3.7773,-3.8168,-3.8961,-4.0724,-4.1485,-4.2408,-4.3658,-4.449,-4.5663,-4.7394,-4.7894,-4.8663,-4.9971,-5.1241,-5.2115,-5.2538,-5.3818,-5.5318,-5.7011,-5.7857,-5.8934,-6.0165,-6.0589,-6.0781,-6.0781,-6.0781,-6.0781,-6.0781,-6.0781,-6.0781,-6.0666,-5.8973,-5.7931,-5.7109,-5.5001,-5.3566,-5.259,-5.2158,-5.1471,-5.0581,-4.9543,-4.8682,-4.7859,-4.7023,-4.5539,-4.399,0.0,0.0,0.0,0.0,0.0,0.0,0.0,0.0,0.0,0.0,0.0,0.0,0.0,0.0,-4.6764,0.0,0.0,-4.9224,-5.0068,-5.0565,-5.1079,-5.1867,-5.2344,-5.2747,-5.313,-5.3203,-5.3203,-5.3203,-5.3555,-5.3812,-5.3812,-5.4546,-5.517,-5.5574,-5.6345,-5.6969,-5.7373,-5.7813,-5.7997,-5.7997,-5.7593,-5.7409,-5.7409,-5.6969,-5.6785,-5.6785,-5.6381,-5.5978,-5.5574,-5.4766,-5.3959,-5.313,-5.2344,-5.1536,-5.0785,-5.0362,-4.9958,-4.95,-4.8636,-4.8306,-4.8306,-3.6016,-3.4883,-3.4141,-3.4844,-3.4961,-3.5195,-3.5898,-3.6016,-3.6328,-3.7187,-3.7329,-3.7886,-3.9295,-4.0183,-4.128,-4.2815,-4.4415,-4.597,-4.7509,-4.7932,-4.8817,-5.0366,-5.1548,-5.2462,-5.3203,-5.4203,-5.5818,-5.805,-5.8204,-5.9088,-6.055,-6.0704,-6.0781,-6.0781,-6.0781,-6.0781,-6.0781,-6.0781,-6.0781,-6.0666,-5.8973,-5.8319,-5.805,-5.5626,-5.4741,-5.4587,-5.3587,-5.2731,-5.1931,-5.0653,-4.9782,-4.9236,-4.9045,-4.7302,-4.5359,-4.5744,-4.4557,0.0,0.0,0.0,0.0,0.0,0.0,0.0,0.0,0.0,-4.5828,-4.7259,-4.759,-4.8049,-4.9554,-4.9831,-5.0031,-5.0692,-5.1463,-5.1977,-5.1977,-5.2711,-5.324,-5.3408,-5.3424,-5.3424,-5.3424,-5.4179,-5.462,-5.462,-5.539,-5.6124,-5.6785,-5.7633,-5.8074,-5.7997,-5.8736,-5.8736,-5.7997,-5.7997,-5.7997,-5.7997,-5.7997,-5.7997,-5.796,-5.7336,-5.6969,-5.6712,-5.495,-5.3628,-5.2637,-5.1169,-5.0178,-4.9574,-4.9427,-4.9353,-4.926,-4.8563,-4.8306,-4.8306,-3.6016,-3.5859,-3.5742,-3.5859,-3.5859,-3.5898,-3.5976,-3.6016,-3.6328,-3.7187,-3.7873,-3.8311,-3.8512,-3.9833,-4.1042,-4.1894,-4.3487,-4.4855,-4.5825,-4.7278,-4.8548,-4.951,-5.1818,-5.3087,-5.3203,-5.4741,-5.6088,-5.7137,-5.7934,-5.8781,-5.9665,-6.0435,-6.0781,-6.0781,-6.0781,-6.0781,-6.0781,-6.0781,-6.0781,-6.0666,-5.8973,-5.8319,-5.8088,-5.6242,-5.5549,-5.5357,-5.378,-5.3126,-5.2808,-5.1172,-5.0557,-5.0355,-4.9586,-4.9379,-4.8948,-4.6516,-4.5917,-4.56,-4.3744,-4.4394,0.0,-4.5551,-4.6618,-4.7498,0.0,0.0,-4.8159,-4.9114,-4.9317,-4.961,-5.0508,-5.0655,-5.0692,-5.0802,-5.1463,-5.1977,-5.1977,-5.2711,-5.3482,-5.4179,-5.4289,-5.4289,-5.4289,-5.4987,-5.5464,-5.5464,-5.6198,-5.6712,-5.6822,-5.7952,-5.8439,-5.802,-5.8471,-5.8492,-5.7997,-5.7997,-5.7997,-5.7997,-5.7997,-5.7997,-5.7997,-5.7923,-5.7483,-5.6675,-5.4363,-5.2491,-5.0986,-5.0105,-4.9684,-4.9537,-4.8746,-4.8453,-4.8416,-4.8343,-4.8306,-4.8306,-3.6016,-3.6016,-3.6016,-3.6016,-3.6016,-3.6016,-3.6016,-3.6016,-3.6133,-3.6484,-3.6794,-3.7218,-3.7688,-3.9533,-4.0865,-4.1131,-4.3065,-4.4662,-4.5556,-4.674,-4.8009,-4.9356,-5.0894,-5.1972,-5.2423,-5.4126,-5.5395,-5.6252,-5.7126,-5.8204,-5.9511,-5.9858,-6.0319,-6.0781,-6.0281,-6.005,-6.0012,-5.955,-5.9358,-5.9242,-5.8011,-5.755,-5.7357,-5.5665,-5.5011,-5.4895,-5.4203,-5.3318,0.0,-5.1625,-5.1087,-5.0635,-5.0289,-4.9799,-4.9146,-4.7959,-4.7562,-4.7394,-4.6774,-4.7282,0.0,0.0,-4.8682,-4.9381,-4.9282,-4.9517,-4.9994,-5.0802,-5.0618,-5.0692,-5.1977,-5.1793,-5.1646,0.0,-5.2491,-5.2711,-5.2711,-5.3408,-5.4123,-5.4731,-5.564,-5.601,-5.5549,-5.6496,-5.7117,-5.7117,-5.7844,-5.833,-5.833,-5.8821,-5.9028,-5.8815,-5.8716,-5.8611,-5.8397,-5.8142,-5.7997,-5.7997,-5.7997,-5.7997,-5.7997,-5.7997,-5.7042,-5.528,-5.3335,-5.1573,-5.0031,-4.9187,-4.882,-4.882,-4.8453,-4.8306,-4.8306,-4.8306,-4.8306,-4.8306,-3.6016,-3.6016,-3.6016,-3.6016,-3.6016,-3.6016,-3.6016,-3.6016,-3.6016,-3.6016,-3.6016,-3.6328,-3.7146,-3.8768,-3.9928,-4.0304,-4.2153,-4.3758,-4.4825,-4.5932,-4.7201,-4.8663,-4.9971,-5.0971,-5.1548,-5.328,-5.4434,-5.5011,-5.5857,-5.7049,-5.8473,-5.8704,-5.9281,-6.0089,-5.9435,-5.9165,-5.9127,-5.855,-5.8319,-5.8204,-5.7088,-5.6637,-5.6445,-5.478,-5.3857,-5.351,-5.3972,-5.3164,-5.1885,-5.1885,-5.1202,-5.0366,-5.0635,-5.0082,-4.9335,-4.8988,-4.896,-4.9074,-4.9568,0.0,0.0,-5.047,-5.0745,-5.1068,-5.1266,-5.1278,-5.1497,-5.2201,-5.1683,-5.1536,-5.2968,-5.2711,-5.2527,-5.3115,-5.3203,-5.3277,-5.3518,-5.4032,-5.4744,-5.5639,-5.6893,-5.7585,-5.7375,-5.8096,-5.8538,-5.8538,-5.9067,-5.9389,-5.9389,-5.9509,-5.9526,-5.9407,-5.9194,-5.8971,-5.8713,-5.8354,-5.8142,-5.7997,-5.7997,-5.7997,-5.7997,-5.7776,-5.6235,-5.3665,-5.2491,-5.0949,-4.9206,-4.8563,-4.8306,-4.8306,-4.8306,-4.8306,-4.8306,-4.8306,-4.8306,-4.8306,-3.6016,-3.6016,-3.6016,-3.6016,-3.6016,-3.6016,-3.6016,-3.6016,-3.6016,-3.6016,-3.6016,-3.6286,-3.7035,-3.7182,-3.7825,-3.9303,-4.028,-4.1492,-4.3055,-4.4701,-4.6047,-4.6932,-4.9356,-5.0712,-5.075,-5.2395,-5.3241,-5.328,-5.4164,-5.5011,-5.5818,-5.6676,-5.755,-5.8357,-5.8357,-5.8357,-5.8319,-5.8319,-5.8319,-5.8165,-5.6434,-5.5742,-5.5549,-5.3895,-5.2241,-5.102,-5.2664,-5.2654,-5.1885,-5.1885,-5.0818,-4.9586,-5.0442,-5.0664,-5.0422,-4.9236,-4.9758,-5.0898,-5.1691,0.0,-5.3165,-5.3119,-5.3088,-5.3016,-5.2636,-5.2529,-5.2642,-5.3072,-5.2527,-5.2197,-5.3078,-5.3167,-5.3167,-5.3203,-5.3203,-5.3482,-5.4252,-5.4363,-5.5128,-5.7164,-5.7863,-5.8651,0.0,-5.9604,-5.9351,-5.9351,-5.9389,-5.9389,-5.9389,-5.9839,-5.987,-5.9407,-5.9839,-5.9609,-5.8733,-5.8693,-5.8461,-5.7997,-5.7997,-5.7997,-5.796,-5.7189,-5.5097,-5.205,-5.2013,-5.0618,-4.8343,-4.8306,-4.8306,-4.8306,-4.8306,-4.8306,-4.8306,-4.8306,-4.8306,-4.8306,-3.6016,-3.6016,-3.6016,-3.6016,-3.6016,-3.6016,-3.6016,-3.6016,-3.6016,-3.6016,-3.6016,0.0,0.0,0.0,0.0,0.0,-3.9932,-4.1197,-4.2317,-4.3851,-4.5124,-4.6009,-4.7394,-4.8432,-4.8971,-5.0664,-5.1548,-5.1548,-5.2933,-5.4087,-5.4895,-5.5203,-5.578,-5.6549,-5.6011,-5.578,-5.5742,-5.5164,-5.4934,-5.4857,-5.428,-5.3703,-5.3126,-5.2538,-5.1318,-5.0048,0.0,-5.1433,-5.024,-5.024,-5.024,-5.0327,-5.0596,-5.1087,-5.1644,-5.2417,-5.2931,-5.3322,-5.3578,-5.4266,-5.4676,-5.3805,-5.4054,-5.4372,-5.3957,-5.3858,-5.39,-5.4028,-5.4038,-5.4049,-5.4346,-5.4174,-5.3995,-5.3995,-5.3555,-5.3571,-5.4716,-5.5312,-5.635,-5.8197,-5.9033,0.0,0.0,0.0,0.0,-6.0324,-6.0324,-6.0324,-6.0324,-6.0482,-6.0495,-6.0338,-6.0175,-5.9946,-5.9625,-5.9319,-5.8932,-5.8461,-5.7589,-5.7189,-5.7152,-5.5831,-5.4032,-5.1977,-5.1426,-5.0105,-4.8306,-4.8306,-4.8306,-4.8306,-4.8306,-4.8306,-4.8306,-4.8306,-4.8306,-4.8306,0.0,-3.6016,-3.6016,-3.6016,-3.6016,0.0,0.0,0.0,0.0,0.0,0.0,0.0,0.0,0.0,0.0,0.0,0.0,-4.0306,-4.1466,-4.2726,-4.3932,-4.5094,-4.597,-4.6817,-4.7663,-4.9048,-4.9779,-4.9779,-5.0856,-5.1818,-5.2664,-5.301,-5.3549,-5.4318,-5.4126,-5.4049,-5.401,-5.3433,-5.3395,-5.3587,-5.2664,-5.2125,-5.1808,-5.0885,-4.951,0.0,-4.9933,-4.9471,-4.824,-4.9433,-4.9817,-4.9817,-5.0125,-5.101,-5.2231,-5.3972,-5.4703,-5.4934,-5.4934,-5.5511,-5.589,-5.4762,-5.4905,-5.5212,-5.4804,-5.4701,-5.4671,-5.4516,-5.4894,-5.5246,-5.5246,-5.4928,-5.4753,-5.5011,-5.4384,-5.4357,-5.5751,-5.6557,-5.7572,-5.913,-5.9774,-6.0297,0.0,0.0,0.0,-6.0781,-6.0781,-6.0781,-6.0781,-6.0781,-6.0781,-6.0781,-6.0508,-6.0283,-6.0103,-5.9625,-5.9065,-5.8461,-5.7332,-5.6638,-5.6345,-5.4987,-5.3371,-5.1536,-5.1022,-4.9848,-4.8306,-4.8306,-4.8306,-4.8306,-4.8306,-4.8306,-4.8306,-4.8306,-4.8306,-4.8306,0.0,0.0,-3.6016,0.0,0.0,0.0,0.0,0.0,0.0,0.0,0.0,0.0,0.0,0.0,0.0,0.0,0.0,0.0,-4.0537,-4.1376,-4.2508,-4.4085,-4.5017,-4.5893,-4.6731,-4.7548,-4.8009,-4.8048,-4.8086,-4.8509,-4.9356,-5.0164,-5.0971,-5.1731,-5.2587,-5.2933,-5.2933,-5.2933,-5.3433,-5.3972,-5.1548,-5.101,-5.1385,-4.8971,-4.7009,-4.5748,-4.7394,-4.6932,-4.6095,-4.9404,-4.9471,-4.8317,-4.924,-5.0664,-5.2385,-5.4049,-5.5088,-5.5703,-5.5742,-5.6329,-5.6714,-5.5895,-5.5703,-5.5599,-5.5212,-5.5134,-5.5002,-5.4625,-5.5227,-5.5794,0.0,0.0,-5.5436,-5.6257,-5.566,-5.5641,-5.7283,-5.788,-5.8662,0.0,0.0,0.0,0.0,0.0,0.0,-6.0781,0.0,-6.0781,-6.0781,-6.0781,-6.0781,-6.0781,-6.0781,-6.0546,-6.0118,-5.9592,-5.8895,-5.7969,-5.7116,-5.6308,-5.55,-5.4656,-5.3004,-5.0802,-5.0765,-4.9811,-4.8306,-4.8306,-4.8306,-4.8306,-4.8306,-4.8306,-4.8306,-4.8306,-4.8306,-4.8306,0.0,0.0,0.0,0.0,0.0,0.0,0.0,0.0,0.0,0.0,0.0,0.0,0.0,0.0,0.0,0.0,0.0,0.0,-3.979,-4.1099,-4.2,-4.2431,-4.3278,-4.4124,-4.4932,-4.5778,-4.6547,-4.7192,-4.7817,-4.8202,-4.8432,-4.8663,-4.8856,-4.9086,-4.9317,-4.9394,-4.9394,-4.9394,-4.9548,-4.9663,-4.9009,-4.8548,-4.8115,-4.7462,-4.6124,-4.4778,-4.5855,-4.5979,-4.5825,0.0,0.0,-4.9317,-5.0818,-5.2472,-5.4049,-5.5088,-5.5549,-5.5818,-5.6483,-5.6368,-5.5972,-5.5742,-5.5703,-5.5692,-5.5577,-5.5554,-5.5531,-5.5411,-5.6292,-5.7315,0.0,0.0,0.0,-5.7574,-5.5994,0.0,-5.7286,-5.7688,0.0,-6.0393,0.0,-6.0659,-6.0781,-6.0781,0.0,0.0,-6.0781,-6.0781,-6.0781,-6.0781,-6.0781,-6.0781,-6.0781,-6.0546,-6.0118,-5.9284,-5.8458,-5.7617,-5.6455,-5.5464,-5.4656,-5.3261,-5.194,-5.0765,-5.0178,-4.9297,-4.8306,-4.8306,-4.8306,-4.8306,-4.8306,-4.8306,-4.8306,-4.8306,-4.8306,-4.8306,0.0,0.0,0.0,0.0,0.0,0.0,0.0,0.0,0.0,0.0,0.0,0.0,0.0,0.0,0.0,0.0,0.0,0.0,0.0,-4.0082,-4.1046,-4.1769,-4.2277,-4.2931,-4.3778,-4.4239,-4.4932,-4.5778,-4.5855,-4.6278,-4.7009,-4.7009,-4.7201,-4.7586,-4.7932,-4.8086,-4.8086,-4.8086,-4.8317,0.0,0.0,-4.6971,-4.6769,-4.5663,-4.4393,-4.3316,-4.4201,-4.4979,0.0,0.0,0.0,-4.9548,-5.051,-5.2241,-5.4087,-5.4934,0.0,-5.5818,-5.6291,-5.6049,-5.5703,-5.5703,-5.5703,-5.578,-5.6175,-5.5972,-5.5818,-5.6214,-5.6836,0.0,-5.8425,0.0,0.0,0.0,0.0,0.0,-5.7444,-5.8066,-5.8897,0.0,-6.055,0.0,-6.0781,-6.0781,-6.0781,0.0,-6.0781,-6.0781,-6.0781,-6.0781,-6.0781,-6.0781,-6.0781,-6.0546,-6.0118,-5.9372,-5.8615,-5.7772,-5.6466,-5.5545,-5.491,-5.3064,-5.1821,-5.1007,0.0,-4.9114,-4.8306,-4.8306,-4.8306,-4.8306,-4.8306,-4.8306,-4.8306,-4.8306,-4.8306,-4.8306,0.0,0.0,0.0,0.0,0.0,0.0,0.0,0.0,0.0,0.0,-3.7617,-3.7461,0.0,0.0,0.0,0.0,0.0,0.0,0.0,0.0,-3.9931,-4.1393,-4.1585,-4.2047,-4.2893,-4.2931,-4.3316,-4.4124,-4.3431,-4.3855,-4.5287,-4.5287,-4.5663,-4.6432,-4.7124,-4.7432,-4.7432,-4.7317,-4.7702,-4.8202,-4.5864,-4.5393,-4.5817,0.0,-4.2239,-4.1585,-4.2585,0.0,0.0,0.0,-4.7932,-4.9433,-4.9548,-5.1164,-5.3241,-5.4203,-5.4972,-5.5549,-5.5665,-5.5703,-5.5703,-5.5703,-5.5703,-5.5895,-5.6676,-5.6252,-5.5895,-5.6676,0.0,-5.7137,-5.8127,-5.7787,-5.7707,-5.8724,0.0,-5.7439,-5.7679,-5.8526,-5.9242,-5.9473,-6.0165,-6.0666,-6.0781,-6.0781,-6.0781,-6.0781,-6.0781,-6.0781,-6.0781,-6.0781,-6.0781,-6.0781,-6.0746,-6.0508,-6.0103,-5.9625,-5.8899,-5.7921,-5.6706,-5.5863,-5.5319,-5.3259,-5.1964,-5.1238,-5.0084,-4.9177,-4.8458,-4.8383,-4.8364,-4.8364,-4.8325,-4.8306,-4.8306,-4.8306,-4.8306,-4.8306,0.0,0.0,0.0,0.0,0.0,0.0,0.0,0.0,0.0,0.0,-3.9258,-3.8359,0.0,0.0,0.0,0.0,0.0,0.0,0.0,0.0,0.0,-3.97,-4.0362,-4.1123,-4.2008,-4.2038,-4.247,-4.3316,-4.3162,-4.3239,-4.3547,-4.3547,-4.3624,-4.3778,-4.3893,-4.397,-4.3932,-4.3201,-4.2962,-4.3008,-4.1854,-4.1477,-4.1554,-4.1131,0.0,0.0,0.0,0.0,0.0,0.0,-4.7432,-4.951,-5.025,-5.1241,-5.2423,-5.4049,-5.4587,-5.4857,-5.5511,-5.5703,-5.5703,-5.5703,-5.5703,-5.5742,-5.5895,-5.5818,0.0,0.0,-5.5934,-5.6395,-5.8011,-5.7043,-5.6741,-5.9007,0.0,0.0,0.0,0.0,-5.7934,0.0,0.0,-6.0012,-6.0742,-6.0781,0.0,0.0,-6.0781,-6.0781,-6.0781,-6.0781,-6.0781,-6.0781,-6.0405,-6.0175,-6.0103,-5.9625,-5.8635,-5.7109,-5.6195,-5.5028,-5.3585,-5.1826,-5.0951,-5.0763,-4.9912,0.0,-4.9265,-4.8911,-4.8796,-4.8761,-4.8439,-4.8306,-4.8306,-4.8306,-4.8306,-4.8306,0.0,0.0,0.0,0.0,0.0,0.0,0.0,-4.0703,-4.1562,-4.2383,-4.2578,-4.1913,-4.0068,-3.9529,-3.9017,0.0,0.0,0.0,0.0,0.0,0.0,0.0,0.0,0.0,0.0,-4.1123,-4.1316,-4.1739,0.0,-4.1739,-4.1739,-4.1739,-4.1739,-4.1739,-4.1739,-4.1739,-4.17,-4.1316,-4.1123,-4.1046,-4.0208,-3.99,0.0,0.0,0.0,0.0,0.0,0.0,0.0,0.0,-4.6932,-4.9548,-5.0442,-5.1241,-5.2308,-5.4472,-5.4818,-5.4664,-5.5472,-5.5703,-5.5703,-5.5703,-5.5395,-5.528,-5.6175,0.0,0.0,0.0,-5.5011,-5.478,-5.6088,0.0,0.0,0.0,0.0,0.0,0.0,0.0,0.0,0.0,0.0,0.0,0.0,0.0,-6.0781,-6.0781,-6.0781,-6.0781,-6.0781,-6.0781,-6.0781,-6.0781,-6.0597,-6.0469,-6.0469,-5.9558,-5.8388,-5.6938,-5.5864,-5.461,-5.3162,-5.1697,-5.1009,-5.0957,-4.993,-4.9489,-4.946,-4.9059,-4.8878,-4.8881,-4.8458,-4.8306,-4.8325,-4.8532,-4.8622,-4.8658,0.0,0.0,0.0,0.0,0.0,0.0,0.0,-4.2851,-4.3906,-4.4412,-4.5506,-4.5183,-4.2345,-4.1229,-4.025,0.0,0.0,0.0,0.0,0.0,0.0,0.0,0.0,0.0,0.0,0.0,0.0,-3.9977,-3.9977,0.0,0.0,0.0,0.0,0.0,-3.9977,-3.9977,-3.9938,-3.9785,-3.9708,0.0,0.0,-3.8584,0.0,0.0,0.0,0.0,0.0,0.0,0.0,0.0,-4.6201,-4.8779,-4.9817,-5.0818,-5.2125,-5.4703,-5.4857,-5.4434,-5.5434,-5.5703,-5.5665,-5.5472,-5.5088,-5.5011,-5.5983,-5.478,0.0,0.0,-5.3818,-5.2933,-5.378,0.0,0.0,0.0,-5.5049,0.0,0.0,0.0,0.0,0.0,0.0,0.0,0.0,0.0,0.0,-6.0781,-6.0781,-6.0781,-6.0781,-6.0781,-6.0781,-6.0781,-6.0781,-6.0781,-6.0781,-5.9409,-5.8132,-5.6962,-5.5401,-5.4023,-5.2885,-5.171,-5.1173,-5.1123,-5.0177,-4.9779,-4.97,-4.9234,-4.9075,-4.9108,-4.8622,-4.8495,-4.8586,-4.8932,-4.9027,-4.9075,0.0,0.0,0.0,0.0,0.0,0.0,0.0,-4.3594,-4.4528,-4.6761,-4.652,-4.5923,-4.5431,-4.4101,-4.2847,0.0,0.0,0.0,0.0,0.0,0.0,0.0,0.0,0.0,0.0,0.0,0.0,-3.8238,-3.8238,0.0,0.0,0.0,0.0,0.0,0.0,-3.8238,-3.8161,-3.7392,0.0,0.0,0.0,0.0,0.0,0.0,0.0,0.0,0.0,0.0,0.0,0.0,0.0,-4.6249,-4.7817,-4.9471,-5.1318,-5.3857,0.0,0.0,-5.528,-5.5703,-5.5511,-5.478,-5.5088,-5.5241,-5.3857,0.0,0.0,-5.3549,-5.2087,-5.1164,-5.2,0.0,0.0,0.0,0.0,-5.5665,0.0,0.0,0.0,0.0,0.0,0.0,0.0,0.0,0.0,0.0,-6.0781,-6.0781,-6.0781,-6.0781,-6.0781,-6.0781,-6.0781,-6.0781,-6.0781,-5.9169,-5.7912,-5.6983,-5.4517,-5.2902,-5.2,-5.1144,-5.0749,-5.0749,-5.0642,-5.0594,0.0,-4.9741,-4.9645,-4.9924,-4.9139,-4.9059,-4.9386,-4.9431,-4.9445,-4.9445,0.0,0.0,0.0,0.0,0.0,0.0,-4.3164,-4.3711,-4.4606,-4.7067,-4.7996,-4.8171,-4.7398,-4.6358,-4.4455,-4.1388,0.0,0.0,0.0,0.0,0.0,0.0,0.0,0.0,0.0,0.0,-3.7738,-3.7238,-3.7738,0.0,0.0,0.0,0.0,0.0,0.0,-3.65,-3.6462,-3.6115,0.0,0.0,0.0,0.0,0.0,0.0,0.0,0.0,0.0,0.0,0.0,0.0,0.0,0.0,-4.6394,-4.774,0.0,0.0,-5.2692,-5.2779,-5.4511,-5.4587,-5.4241,-5.4434,-5.3933,-5.3241,-5.2577,0.0,-5.1164,-5.0317,-4.9202,-4.8509,-4.8808,-4.8885,0.0,0.0,0.0,0.0,0.0,0.0,0.0,0.0,0.0,0.0,0.0,0.0,0.0,0.0,-6.0781,-6.0781,-6.0781,-6.0781,-6.0781,-6.0781,-6.0781,-6.055,-6.0012,-5.8357,-5.6819,-5.5472,-5.3395,-5.1972,-5.1164,-5.0866,-5.0712,-5.0712,-5.0712,-5.0712,0.0,-5.0111,-4.9949,-5.0024,-4.9489,-4.9356,-4.9518,-4.9754,-4.9872,-4.9898,0.0,0.0,0.0,0.0,0.0,-3.9766,-4.3164,-4.3671,-4.4556,-4.7036,-4.861,-4.9182,-4.8345,-4.7286,-4.5085,-4.1216,-4.0177,0.0,0.0,0.0,0.0,0.0,0.0,0.0,0.0,0.0,-3.7084,-3.6692,-3.7315,-3.7161,0.0,0.0,-3.6385,-3.5846,0.0,0.0,0.0,0.0,0.0,0.0,0.0,0.0,0.0,0.0,0.0,0.0,0.0,0.0,0.0,0.0,0.0,0.0,0.0,0.0,0.0,0.0,-5.1548,-5.1933,-5.3664,-5.3664,-5.3356,-5.3972,-5.301,-5.1846,0.0,0.0,-4.9086,-4.7971,-4.7086,-4.6509,-4.6509,-4.674,-4.7355,-4.8779,-5.0625,-5.2423,-5.3895,0.0,0.0,0.0,0.0,0.0,0.0,0.0,0.0,0.0,-6.0781,-6.0781,-6.0781,-6.055,-6.0512,-6.0781,-6.055,-6.0127,-5.9511,-5.7588,-5.5895,-5.4472,-5.2731,-5.1471,-5.0712,-5.0712,-5.0712,-5.0712,-5.0712,-5.0712,0.0,-5.0279,-5.0171,-5.0218,-4.9846,-4.9728,-4.9898,-5.0171,-5.0291,-5.0325,0.0,0.0,0.0,0.0,0.0,0.0,-4.3164,-4.3657,-4.446,-4.69,-4.786,-4.8268,-4.8114,-4.6595,-4.4594,-4.2008,-4.0977,0.0,0.0,0.0,0.0,0.0,0.0,0.0,0.0,0.0,-3.5923,-3.6692,-3.6692,-3.7161,-3.7969,-3.7084,-3.6692,-3.6654,0.0,0.0,0.0,0.0,0.0,0.0,0.0,0.0,0.0,0.0,0.0,0.0,0.0,0.0,0.0,0.0,0.0,0.0,0.0,-4.4932,-4.6287,-4.9711,-5.0712,-5.1097,-5.2779,-5.3203,-5.3203,-5.3203,-5.2538,-5.1692,0.0,0.0,-4.8933,-4.7278,-4.6201,-4.5594,-4.5594,-4.6317,-4.7154,-4.7971,-5.0231,0.0,-5.3087,0.0,0.0,0.0,0.0,0.0,0.0,0.0,0.0,0.0,0.0,0.0,-6.0781,-5.9973,-5.9896,-6.0781,-5.9973,-5.9511,-5.9511,-5.6973,-5.5318,-5.4472,-5.2731,-5.1471,-5.0712,-5.0712,-5.0712,-5.0712,-5.0712,-5.0712,0.0,-5.0279,-5.0336,-5.0644,-5.023,-5.0336,-5.0702,-5.0702,-5.0702,-5.0702,0.0,0.0,0.0,0.0,0.0,0.0,0.0,-4.0948,-4.1791,-4.4145,-4.5195,-4.6095,-4.7142,-4.524,-4.3316,-4.1923,-4.0508,0.0,0.0,0.0,0.0,0.0,0.0,0.0,0.0,-3.6308,-3.7046,-3.8469,-3.8469,-3.8623,-3.8892,-3.8623,-3.8469,-3.8392,-3.6969,-3.6654,0.0,0.0,0.0,0.0,0.0,0.0,0.0,0.0,0.0,0.0,0.0,0.0,0.0,0.0,0.0,0.0,0.0,0.0,0.0,-4.6556,-4.8009,-4.9163,-5.0317,-5.0164,-4.9856,-5.0433,-4.9971,-4.9086,-4.8279,0.0,-4.6317,-4.4662,-4.3624,-4.3162,-4.3778,-4.4124,-4.5124,-4.7702,-4.9279,0.0,0.0,0.0,0.0,0.0,0.0,0.0,0.0,0.0,0.0,0.0,0.0,-6.055,-5.9935,-5.9665,-5.9627,-5.9896,-5.8511,-5.7511,-5.6896,-5.4972,-5.3549,-5.2692,-5.1625,-5.1241,-5.151,-5.151,-5.151,-5.151,-5.151,-5.1202,-5.0702,-5.0573,-5.0594,-5.0702,-5.0573,-5.0594,-5.0712,-5.0712,-5.0712,-5.0712,0.0,0.0,0.0,0.0,0.0,0.0,0.0,-3.9129,-3.9758,-4.1513,-4.248,-4.3511,-4.4825,-4.3278,-4.1777,-4.0931,-3.9585,0.0,0.0,0.0,0.0,0.0,0.0,0.0,-3.6692,-3.7,-3.8046,-3.9746,-4.0085,-4.0392,-4.0739,-4.0392,-4.0239,-4.0162,-3.8469,-3.7815,0.0,0.0,0.0,0.0,0.0,0.0,-3.5538,0.0,0.0,0.0,0.0,0.0,0.0,0.0,0.0,0.0,0.0,0.0,0.0,0.0,-4.5393,-4.6624,-4.8432,-4.8509,-4.8317,-4.9163,-4.8509,-4.7509,0.0,0.0,-4.4624,-4.297,-4.22,-4.2085,-4.2931,-4.3355,-4.4662,-4.8048,-4.9048,0.0,0.0,0.0,0.0,0.0,0.0,0.0,0.0,0.0,0.0,0.0,0.0,-5.9627,-5.9088,-5.8742,-5.855,-5.855,-5.7561,-5.6599,-5.5703,-5.4357,-5.3087,-5.1885,-5.1395,-5.1433,-5.1885,-5.1885,-5.1885,-5.1885,-5.1885,-5.1433,0.0,-5.0712,-5.0712,-5.0712,-5.0712,-5.0712,-5.0712,-5.0712,-5.0712,-5.0712,0.0,0.0,0.0,0.0,0.0,0.0,0.0,-3.804,-3.8291,-3.911,-3.9855,-4.0662,-4.1546,-4.0777,-3.9938,-3.9284,0.0,0.0,0.0,0.0,0.0,0.0,0.0,0.0,-3.6769,-3.77,-3.9046,-4.0785,-4.1585,-4.247,-4.3355,-4.247,-4.2077,-4.2008,-4.02,-3.8854,-3.7853,0.0,0.0,0.0,-3.6308,-3.6115,0.0,0.0,0.0,0.0,0.0,0.0,0.0,0.0,0.0,0.0,0.0,0.0,0.0,0.0,0.0,0.0,0.0,-4.7778,-4.8048,-4.8894,-4.7971,-4.6817,-4.6817,-4.5509,0.0,-4.2316,-4.1923,-4.2162,-4.3047,-4.3893,-4.5547,-4.8856,-4.951,0.0,0.0,0.0,0.0,0.0,0.0,0.0,0.0,0.0,0.0,0.0,0.0,-5.8242,-5.8127,-5.7357,-5.6868,-5.6714,-5.6714,-5.6329,-5.5511,-5.4664,-5.3433,-5.1808,-5.1808,-5.1885,-5.2,-5.2,-5.2038,0.0,-5.2,-5.1548,-5.0789,-5.0712,-5.0712,-5.0712,-5.0712,-5.0712,-5.0712,-5.0712,-5.075,-5.0789,0.0,0.0,0.0,0.0,0.0,0.0,0.0,0.0,0.0,0.0,-3.8075,-3.8931,-3.9777,-3.8507,-3.7777,0.0,0.0,0.0,0.0,0.0,0.0,0.0,0.0,0.0,-3.77,-3.9161,-4.1054,-4.3393,-4.3624,-4.4509,-4.6009,-4.5124,-4.4701,-4.4594,-4.1554,-3.9008,-3.6962,-3.6115,0.0,0.0,-3.5692,-3.5276,0.0,0.0,0.0,0.0,-3.77,-3.8738,0.0,0.0,0.0,0.0,0.0,0.0,0.0,0.0,-4.2124,-4.2431,-4.3893,0.0,-4.5393,-4.6287,-4.621,-4.5893,0.0,-4.5086,-4.4201,-4.3778,-4.3239,-4.3047,-4.3855,-4.5278,-4.6971,-4.9048,0.0,-5.2049,0.0,0.0,0.0,0.0,0.0,0.0,0.0,0.0,0.0,0.0,0.0,-5.7703,-5.6395,-5.6126,-5.5434,-5.4126,-5.4087,-5.3972,-5.378,-5.2318,-5.1395,-5.0971,-5.0971,-5.1664,-5.2895,-5.2895,-5.328,-5.3857,-5.3203,-5.2433,-5.1587,-5.0933,-5.0712,-5.0712,-5.0712,-5.0712,-5.0712,-5.0712,-5.1087,-5.1625,0.0,0.0,0.0,0.0,0.0,0.0,0.0,0.0,0.0,0.0,0.0,-3.7046,-3.7507,-3.6692,0.0,0.0,0.0,0.0,0.0,0.0,0.0,0.0,0.0,-3.8354,-3.9123,-4.0816,-4.2547,-4.4316,-4.5086,-4.597,-4.6885,-4.6817,-4.6317,-4.5441,-4.1631,-3.8969,-3.7238,-3.6423,-3.5846,-3.55,-3.55,0.0,0.0,0.0,0.0,0.0,-3.7392,-3.8315,0.0,-3.92,-3.9631,-3.9938,0.0,0.0,0.0,0.0,-4.12,-4.1393,-4.2277,-4.3124,-4.3932,-4.4778,-4.5017,-4.5017,-4.5017,-4.494,-4.4778,-4.4393,-4.3932,-4.4047,-4.5278,-4.6278,-4.7692,0.0,-5.1308,0.0,0.0,0.0,0.0,0.0,0.0,0.0,0.0,0.0,0.0,0.0,0.0,-5.6126,-5.5203,-5.5164,-5.4549,-5.3241,-5.2818,-5.2577,-5.2577,-5.1702,-5.1048,-5.0712,-5.1087,-5.1933,-5.3203,-5.3626,-5.4049,-5.4472,-5.401,-5.3087,-5.1885,-5.1433,-5.101,-5.0712,-5.0712,-5.0933,-5.1241,-5.1241,-5.1779,-5.25,0.0,0.0,0.0,0.0,0.0,0.0,0.0,0.0,0.0,0.0,0.0,0.0,0.0,0.0,0.0,0.0,0.0,0.0,0.0,0.0,0.0,0.0,-3.7969,-3.9315,-4.0862,-4.2585,-4.3932,-4.4893,-4.6355,-4.724,-4.7509,-4.8048,-4.7317,-4.5441,-4.1324,-3.9008,-3.8123,-3.7007,-3.6038,-3.5308,-3.5308,0.0,0.0,0.0,0.0,0.0,0.0,0.0,0.0,-3.7969,-3.8469,-3.9092,-3.9092,0.0,0.0,0.0,0.0,0.0,-4.1354,-4.2239,-4.3124,-4.4085,-4.4316,-4.4316,-4.447,-4.5056,-4.5441,-4.4816,-4.4701,-4.5201,-4.6778,-4.7317,0.0,0.0,0.0,0.0,0.0,0.0,0.0,0.0,0.0,0.0,0.0,0.0,0.0,0.0,0.0,-5.4241,-5.4126,-5.4087,-5.3703,-5.2856,-5.2087,-5.1731,-5.1731,-5.1846,-5.1625,-5.1097,-5.1779,-5.2538,-5.3433,-5.4164,-5.4549,-5.4664,0.0,0.0,-5.2269,-5.2154,-5.1702,-5.1097,-5.1097,-5.151,-5.2115,-5.2115,-5.2654,-5.3395,0.0,0.0,0.0,0.0,0.0,0.0,0.0,0.0,0.0,0.0,0.0,0.0,0.0,0.0,0.0,0.0,0.0,0.0,0.0,0.0,0.0,-3.7777,-4.0008,-4.17,-4.2662,-4.4355,-4.597,-4.7509,-4.7778,-4.8663,-5.0087,-4.9471,-4.7894,-4.5441,-4.1901,-3.9861,-3.8938,-3.6661,-3.5199,-3.4398,-3.4398,0.0,0.0,0.0,0.0,0.0,0.0,0.0,0.0,-3.7738,-3.8084,-3.82,-3.82,0.0,0.0,0.0,0.0,0.0,-4.0477,-4.1354,-4.2354,-4.3893,-4.4316,-4.447,-4.5248,-4.5518,-4.5787,-4.6394,-4.6509,-4.6778,-4.774,-4.9125,-5.051,0.0,0.0,-5.4203,0.0,0.0,0.0,0.0,0.0,0.0,0.0,0.0,0.0,0.0,0.0,-5.3087,-5.2346,-5.2308,-5.1933,-5.1097,-5.0933,-5.0894,-5.0894,-5.1548,-5.2192,-5.2818,-5.2933,-5.3472,-5.4318,-5.4434,-5.4857,-5.5472,0.0,-5.4357,-5.4049,-5.3318,-5.2933,-5.2818,-5.2818,-5.2895,-5.301,-5.301,-5.3549,-5.428,0.0,0.0,0.0,0.0,0.0,0.0,0.0,0.0,0.0,0.0,0.0,0.0,0.0,0.0,0.0,0.0,0.0,0.0,0.0,0.0,-3.7507,-3.9277,-4.0931,-4.22,-4.3085,-4.4748,-4.6201,-4.7471,-4.8355,-4.9202,-4.9971,-4.8163,-4.6971,-4.6086,-4.1277,-3.9207,-3.913,-3.6577,-3.5007,-3.4205,0.0,0.0,0.0,0.0,0.0,0.0,0.0,0.0,0.0,0.0,-3.693,-3.7315,-3.7315,0.0,0.0,0.0,0.0,0.0,-4.0285,-4.1123,-4.22,-4.3893,-4.4662,-4.5355,-4.6663,-4.7317,-4.7778,-4.8163,-4.824,-4.8509,0.0,0.0,-5.1279,-5.301,0.0,-5.4511,-5.4511,-5.3395,-5.2731,0.0,0.0,0.0,0.0,0.0,0.0,0.0,0.0,-5.2308,-5.1923,-5.1885,-5.1548,-5.075,-5.0712,-5.1125,-5.2049,-5.2433,-5.2577,-5.25,-5.2972,-5.3664,-5.4511,-5.4934,-5.5357,-5.5665,0.0,-5.4895,-5.4472,-5.4087,-5.3626,-5.3203,-5.3203,-5.351,-5.3972,-5.4395,-5.478,-5.5164,0.0,0.0,0.0,0.0,0.0,0.0,0.0,0.0,0.0,0.0,0.0,0.0,0.0,0.0,0.0,0.0,0.0,0.0,0.0,-3.6231,-3.7738,-4.0131,-4.1046,-4.2354,-4.4239,-4.5509,-4.6701,-4.7778,-4.9086,-4.951,-4.9048,-4.7086,-4.6317,-4.6355,-4.12,-3.9161,-3.94,-3.6853,-3.5161,-3.4205,0.0,0.0,0.0,0.0,0.0,0.0,0.0,0.0,0.0,0.0,0.0,0.0,0.0,0.0,0.0,-3.8661,-3.9015,-3.9207,-4.0246,-4.1277,-4.2508,-4.4201,-4.524,-4.6278,-4.7778,-4.8779,-4.9394,-4.9394,-4.9548,0.0,0.0,-5.1318,0.0,-5.3895,-5.4203,-5.4126,-5.3933,-5.3164,-5.2626,-5.2626,-5.2049,0.0,0.0,0.0,0.0,0.0,0.0,0.0,-5.1625,-5.1625,-5.1356,-5.0712,-5.0712,-5.1318,-5.2587,-5.2818,-5.2856,-5.2808,-5.3472,-5.4126,-5.478,-5.5434,-5.5703,-5.5703,-5.5703,-5.5357,-5.478,-5.478,-5.4395,-5.378,-5.378,-5.4203,-5.4857,-5.5472,-5.5703,-5.5703,0.0,0.0,0.0,0.0,0.0,0.0,0.0,0.0,0.0,0.0,0.0,0.0,0.0,0.0,0.0,0.0,0.0,0.0,0.0,-3.6231,-3.7507,-3.9323,-4.0169,-4.2854,-4.7625,-4.7855,-4.874,-5.0442,-5.0558,-4.9779,-4.8202,-4.8009,-4.7124,-4.5556,-4.2777,-4.1123,-4.0246,-3.77,-3.5699,-3.4205,-3.4205,0.0,0.0,0.0,0.0,0.0,0.0,0.0,0.0,0.0,0.0,0.0,0.0,0.0,-3.6,-3.7623,-3.8084,-3.843,-4.0054,-4.1739,-4.3393,-4.5094,-4.6163,-4.7048,-4.7894,-4.8779,-4.9394,-4.9394,-5.0048,-5.0856,0.0,-5.3126,-5.401,-5.3395,-5.328,-5.301,-5.2192,0.0,-5.0866,-5.0866,-5.0827,0.0,0.0,0.0,0.0,0.0,0.0,0.0,-5.0789,-5.0789,-5.075,-5.0712,-5.0712,-5.075,-5.0866,-5.1625,-5.3164,-5.5434,-5.5472,-5.5549,-5.5626,-5.5665,-5.5703,-5.5703,-5.5703,-5.5665,-5.5588,-5.5588,-5.5588,-5.5511,-5.5511,-5.5549,-5.5626,-5.5665,-5.5703,-5.5703,0.0,0.0,0.0,0.0,0.0,0.0,0.0,0.0,0.0,0.0,0.0,0.0,0.0,0.0,0.0,0.0,0.0,0.0,0.0,-3.5769,-3.6969,-3.9207,-3.9592,-4.1901,-4.6432,-4.7086,-4.8202,-4.9894,-4.9894,-4.9279,-4.8086,-4.7048,-4.5932,-4.4662,-4.2124,-4.0823,-4.0362,-3.8354,-3.6546,-3.5045,-3.5545,-3.5122,0.0,0.0,0.0,0.0,0.0,0.0,0.0,0.0,-3.55,-3.55,-3.55,-3.55,-3.5846,-3.7507,-3.8392,-3.9277,-4.1508,-4.297,-4.4509,-4.7278,-4.8202,-4.8663,-4.951,-5.0356,-5.0971,-5.0971,-5.1664,-5.251,0.0,0.0,-5.4395,0.0,0.0,-5.2895,-5.2,-5.1202,-5.0712,-5.0712,-5.0712,0.0,0.0,0.0,0.0,0.0,0.0,0.0,-5.0712,-5.0712,-5.0712,-5.0712,-5.1202,-5.1702,-5.2241,-5.3087,-5.4241,-5.5703,-5.5203,-5.5203,-5.5703,-5.5703,-5.5703,-5.5703,-5.5703,-5.5703,-5.5703,-5.5703,-5.5703,-5.5703,-5.5703,-5.5703,-5.5703,-5.5703,-5.5703,-5.5703,0.0,0.0,0.0,0.0,0.0,0.0,0.0,0.0,0.0,0.0,0.0,0.0,0.0,0.0,0.0,0.0,0.0,0.0,-3.55,-3.5731,-3.7007,-3.9554,-3.9931,-4.1816,-4.5518,-4.6432,-4.774,-4.9394,-4.9125,-4.8548,-4.7702,-4.597,-4.4739,-4.3816,-4.1816,-4.0746,-4.04,-3.9008,-3.743,-3.5923,-3.6462,-3.5853,0.0,0.0,0.0,0.0,0.0,0.0,0.0,0.0,-3.55,-3.55,-3.55,-3.55,-3.5846,-3.7507,-3.8623,-3.9861,-4.2393,-4.3893,-4.5393,-4.8279,-4.9202,-4.9625,-5.0519,-5.1318,-5.1885,-5.1885,-5.2577,-5.3472,-5.4357,0.0,0.0,0.0,0.0,0.0,0.0,0.0,0.0,0.0,0.0,0.0,0.0,0.0,0.0,0.0,0.0,0.0,0.0,-5.0712,-5.0712,-5.0712,-5.1241,-5.1933,-5.2779,-5.3664,-5.4511,-5.5318,-5.5011,-5.5164,-5.5703,-5.5703,-5.5703,-5.5703,-5.5703,-5.5703,-5.5703,-5.5703,-5.5703,-5.5703,-5.5703,-5.5703,-5.5703,-5.5703,-5.5703,-5.5703,0.0,0.0,0.0,0.0,0.0,0.0,0.0,0.0,-3.55,-3.55,-3.55,0.0,0.0,0.0,0.0,0.0,0.0,0.0,-3.55,-3.6231,-3.7815,-4.0362,-4.1316,-4.297,-4.5518,-4.6432,-4.7702,-4.9394,-4.8509,-4.7702,-4.6846,-4.5124,-4.3855,-4.3047,-4.22,-4.1316,-4.0439,-3.9631,-3.8315,-3.6692,-3.6692,-3.6231,-3.55,0.0,0.0,0.0,0.0,0.0,0.0,0.0,-3.55,-3.55,-3.55,-3.55,-3.5846,-3.7507,-3.8623,-3.9861,-4.2431,-4.4355,-4.6018,-4.7702,-4.8779,-4.9625,-5.0519,-5.1356,-5.1923,-5.1923,-5.2615,-5.3472,-5.4318,-5.4472,0.0,0.0,0.0,0.0,0.0,0.0,0.0,0.0,0.0,0.0,0.0,0.0,0.0,0.0,0.0,0.0,0.0,-5.0712,-5.0712,-5.0712,-5.075,-5.1125,-5.1923,-5.2779,-5.3664,-5.4511,-5.5318,-5.5703,-5.5703,-5.5703,-5.5703,-5.5703,-5.5703,-5.5703,-5.5703,-5.5703,-5.5703,-5.5703,-5.5703,-5.5703,-5.5703,-5.5703,-5.5703,-5.5703,0.0,0.0,0.0,0.0,0.0,0.0,0.0,0.0,-3.55,-3.55,-3.55,0.0,0.0,0.0,0.0,0.0,0.0,0.0,-3.55,-3.6231,-3.7315,-3.8661,-3.9008,-4.0315,-4.2854,-4.4932,-4.6817,-4.8509,-4.7663,-4.6817,-4.597,-4.4816,-4.3547,-4.2162,-4.1923,-4.1316,-4.0439,-3.9631,-3.8661,-3.7546,-3.6962,-3.6231,-3.55,0.0,0.0,0.0,0.0,0.0,0.0,0.0,0.0,0.0,-3.55,-3.55,-3.5962,-3.8238,-3.9515,-4.0977,-4.4739,-4.6124,-4.7201,-5.0038,-5.0087,0.0,0.0,-5.2626,0.0,0.0,-5.3933,-5.401,-5.3664,-5.4087,0.0,-5.2538,0.0,0.0,0.0,0.0,0.0,0.0,0.0,0.0,0.0,0.0,0.0,0.0,0.0,0.0,0.0,-5.1241,-5.1548,-5.1548,-5.2741,-5.3472,-5.3741,-5.4549,-5.5088,-5.5357,-5.5588,-5.5703,-5.5703,-5.5703,-5.5703,-5.5703,-5.5703,-5.5703,-5.5703,-5.5703,-5.5703,-5.5703,-5.5703,-5.5703,-5.5703,-5.5703,-5.5703,-5.5703,0.0,0.0,0.0,0.0,0.0,0.0,-3.55,-3.55,-3.55,-3.55,-3.5769,-3.5846,0.0,0.0,0.0,-3.5962,-3.5692,-3.5769,-3.6462,-3.6969,-3.7738,-3.8931,-3.9315,-4.0392,-4.2277,-4.347,-4.4778,-4.6124,-4.6278,-4.6124,-4.5556,-4.4393,-4.3278,-4.2316,-4.2316,-4.1816,-4.0969,-4.0131,-3.9084,-3.7969,-3.743,-3.6538,-3.5538,0.0,0.0,0.0,0.0,0.0,0.0,0.0,0.0,0.0,-3.55,-3.55,-3.6077,-3.8931,-4.0131,-4.1516,-4.6124,-4.7394,-4.8048,-5.0741,-5.0664,-5.0394,-5.2279,0.0,0.0,0.0,-5.3241,-5.3318,-5.2779,-5.3126,0.0,-5.2077,0.0,0.0,0.0,0.0,0.0,0.0,0.0,0.0,0.0,0.0,0.0,0.0,0.0,0.0,0.0,-5.1164,-5.1587,-5.1885,-5.2933,-5.3818,-5.4472,-5.4972,-5.5395,-5.5703,-5.5703,-5.5703,-5.5703,-5.5703,-5.5703,-5.5703,-5.5703,-5.5703,-5.5703,-5.5703,-5.5703,-5.5703,-5.5703,-5.5703,-5.5703,-5.5703,-5.5703,-5.5703,0.0,0.0,0.0,0.0,0.0,0.0,-3.55,-3.55,-3.55,-3.55,-3.6192,-3.6385,0.0,0.0,0.0,-3.6692,-3.6038,-3.6269,-3.7892,-3.8007,-3.87,-4.0323,-4.1239,-4.2008,-4.2739,-4.2124,-4.22,-4.297,-4.4586,-4.5364,-4.5325,-4.3816,-4.3047,-4.297,-4.297,-4.2508,-4.1623,-4.0662,-3.94,-3.8007,-3.7815,-3.6853,-3.5577,-3.6308,0.0,0.0,0.0,0.0,0.0,0.0,0.0,0.0,-3.55,-3.55,-3.6115,-3.9315,-4.04,-4.1593,-4.6547,-4.7971,-4.8509,-5.0173,-5.0596,-5.0779,-5.1625,-5.1769,-5.1587,-5.0933,0.0,-5.1885,-5.1808,-5.1846,-5.1885,0.0,0.0,0.0,0.0,0.0,0.0,0.0,0.0,0.0,0.0,0.0,0.0,0.0,0.0,0.0,-5.0712,-5.0827,-5.1241,-5.2,-5.2154,-5.301,-5.4587,-5.4626,-5.4972,-5.5703,-5.5703,-5.5703,-5.5703,-5.5703,-5.5703,-5.5703,-5.5703,-5.5703,-5.5703,-5.5703,-5.5703,-5.5703,-5.5703,-5.5703,-5.5703,-5.5703,-5.5724,-5.5707,0.0,0.0,0.0,0.0,0.0,0.0,-3.55,-3.55,-3.55,-3.55,-3.6192,-3.6385,-3.5577,-3.6815,0.0,-3.6769,-3.6538,-3.6885,-3.793,-3.8007,-3.8469,-3.9515,-4.0362,-4.0593,-4.0131,-4.1239,-4.1885,-4.2085,-4.3124,-4.3624,-4.3624,-4.3278,-4.2739,-4.2085,-4.2085,-4.1585,-4.0669,-3.9161,-3.8315,-3.7892,-3.6577,-3.5808,-3.5538,-3.5692,-3.5654,0.0,0.0,0.0,0.0,0.0,0.0,0.0,-3.55,-3.55,-3.5885,-3.793,-3.9477,-4.1324,-4.5094,-4.7086,0.0,-4.9433,-4.9663,-4.9894,-5.0741,-5.0971,-5.1087,-5.1548,-5.1769,-5.1692,-5.1087,0.0,0.0,0.0,0.0,0.0,0.0,0.0,0.0,0.0,0.0,0.0,0.0,0.0,0.0,0.0,0.0,0.0,-5.0712,-5.1933,-5.2741,-5.2933,-5.4203,-5.5049,-5.5434,-5.5434,-5.5511,-5.5703,-5.5703,-5.5703,-5.5703,-5.5703,-5.5703,-5.5703,-5.5703,-5.5703,-5.5703,-5.5703,-5.5703,-5.5703,-5.5703,-5.5703,-5.5703,-5.5703,-5.576,-5.5849,0.0,0.0,0.0,0.0,0.0,0.0,0.0,0.0,-3.6231,-3.6654,-3.7046,-3.7161,-3.6731,-3.7853,0.0,0.0,-3.7546,-3.7853,-3.9123,-3.8854,-3.8815,-3.9284,-3.9284,-3.9123,-3.87,-3.9546,-4.02,-4.0585,-4.1046,-4.17,-4.2508,-4.2893,-4.2624,-4.1808,-4.2239,-4.17,-4.0439,-3.9169,-3.8123,-3.7315,-3.6423,-3.5846,-3.5538,-3.5923,-3.5846,-3.55,-3.55,0.0,0.0,0.0,0.0,0.0,0.0,0.0,-3.5923,-3.8007,-3.8931,-4.0208,0.0,0.0,0.0,-4.8894,0.0,-5.0125,-5.0596,-5.0712,-5.0827,-5.1241,-5.1318,-5.1202,0.0,0.0,0.0,0.0,0.0,0.0,0.0,0.0,0.0,0.0,0.0,0.0,0.0,0.0,0.0,0.0,0.0,-5.0856,-5.1241,-5.2087,-5.2972,-5.3818,-5.4664,-5.5318,-5.5703,-5.5703,-5.5703,-5.5703,-5.5703,-5.5703,-5.5703,-5.5703,-5.5703,-5.5703,-5.5703,-5.5703,-5.5703,-5.5703,-5.5703,-5.5703,-5.5703,-5.5703,-5.5724,-5.5769,-5.5861,-5.5893,0.0,0.0,0.0,0.0,0.0,0.0,0.0,0.0,0.0,-3.77,-3.8046,-3.8161,-3.8007,-3.8777,-3.9246,0.0,0.0,0.0,-3.9977,-3.9438,-3.9092,-3.9092,-3.8392,-3.8007,-3.8007,-3.8007,-3.8354,-3.9092,-3.9092,-3.9854,-4.1393,-4.2393,-4.2393,-4.1623,-4.2508,-4.1893,-4.0246,-3.9592,-3.8277,-3.6692,-3.6692,-3.6231,-3.5577,-3.6231,-3.6077,-3.55,-3.55,-3.55,-3.55,-3.55,0.0,0.0,0.0,0.0,-3.5731,-3.7969,-3.8354,0.0,0.0,0.0,-4.5893,-4.8894,-5.0048,0.0,-5.0673,-5.0712,-5.0712,-5.0712,-5.0712,0.0,0.0,0.0,0.0,0.0,0.0,0.0,0.0,0.0,0.0,0.0,0.0,0.0,0.0,0.0,0.0,0.0,0.0,-5.1202,-5.1846,-5.2192,-5.301,-5.4434,-5.4626,-5.5011,-5.5703,-5.5703,-5.5703,-5.5703,-5.5703,-5.5703,-5.5703,-5.5717,-5.5717,-5.5714,-5.5717,-5.5738,-5.5738,-5.5738,-5.5768,-5.5769,-5.5758,-5.5768,-5.5798,-5.5907,-5.5954,-5.6005,0.0,0.0,0.0,0.0,0.0,0.0,0.0,0.0,0.0,0.0,-3.82,-3.8854,-3.8084,-3.8777,-3.9015,-3.8238,-3.7392,-3.7276,-3.8277,0.0,0.0,-3.8161,-3.8046,-3.8007,-3.8007,-3.8007,-3.8046,-3.8161,-3.8161,-3.8661,-3.9662,-4.1239,-4.1508,-4.0708,-4.1585,-4.1046,-3.9438,-3.9361,-3.8277,-3.6692,-3.6692,-3.6231,-3.55,-3.5615,-3.5577,-3.55,-3.55,-3.55,-3.55,-3.55,-3.5007,0.0,0.0,0.0,-3.4584,-3.5699,-3.6969,0.0,0.0,0.0,-4.9009,0.0,-5.0048,-4.9779,0.0,0.0,-5.0712,0.0,0.0,0.0,0.0,0.0,0.0,0.0,0.0,0.0,0.0,0.0,0.0,0.0,0.0,0.0,0.0,0.0,0.0,0.0,-5.1356,-5.1769,-5.1885,-5.3318,-5.4241,-5.4472,-5.5164,-5.5588,-5.5703,-5.5703,-5.5703,-5.5703,-5.5703,-5.5703,-5.5714,-5.5825,-5.5807,-5.5724,-5.5825,-5.5874,-5.5874,-5.5874,-5.5986,-5.6116,-5.5947,-5.5993,-5.6135,-5.6158,-5.6237,-5.6358,0.0,0.0,0.0,0.0,0.0,0.0,0.0,0.0,0.0,0.0,0.0,-3.9169,-3.8777,-3.9092,-3.8938,-3.8084,-3.7661,-3.7584,-3.7969,-3.7546,-3.7276,-3.7276,-3.6853,-3.6615,-3.6615,-3.6615,-3.6815,-3.7276,-3.7276,-3.7969,0.0,-4.0046,-4.02,-3.9823,-3.9738,-3.9008,-3.7892,-3.8354,-3.7853,-3.6731,-3.7238,-3.7507,-3.7584,-3.7084,-3.7199,-3.7584,-3.7084,-3.6577,-3.6154,-3.6154,-3.5615,-3.493,-3.4814,0.0,0.0,0.0,0.0,0.0,-4.07,-4.4739,-4.8202,0.0,-4.9702,-5.025,-5.0596,0.0,0.0,0.0,0.0,0.0,0.0,0.0,0.0,0.0,0.0,0.0,0.0,0.0,0.0,0.0,0.0,0.0,0.0,0.0,0.0,0.0,-5.1471,-5.2115,-5.2577,-5.3818,-5.4703,-5.5164,-5.5511,-5.5703,-5.5703,-5.5779,-5.5879,-5.5963,-5.5963,-5.5963,-5.5963,-5.605,-5.5986,-5.5825,-5.6008,-5.6084,-5.6084,-5.6084,-5.6128,-5.6186,-5.6116,-5.6135,-5.6202,-5.6273,-5.6361,-5.6475,0.0,0.0,0.0,0.0,0.0,0.0,0.0,0.0,0.0,0.0,0.0,-3.9515,-3.9323,0.0,0.0,0.0,-3.7469,-3.7353,-3.7353,-3.6769,-3.6385,-3.6385,-3.5808,-3.55,-3.55,-3.55,-3.5808,-3.6385,-3.6385,0.0,-3.8969,-3.8738,-3.8892,0.0,-3.8623,-3.7738,-3.6769,-3.7853,-3.77,-3.6808,-3.8123,-3.9008,-3.9515,-3.8892,-3.9161,-3.9815,-3.8931,-3.8084,-3.7315,-3.7123,-3.6346,-3.5385,-3.4737,-3.4661,0.0,0.0,0.0,0.0,0.0,0.0,0.0,0.0,0.0,0.0,0.0,0.0,0.0,0.0,0.0,0.0,0.0,0.0,0.0,0.0,0.0,0.0,0.0,0.0,0.0,0.0,0.0,0.0,0.0,0.0,0.0,0.0,-5.1664,-5.25,-5.3164,-5.4203,-5.5088,-5.5665,-5.5703,-5.5703,-5.5703,-5.5843,-5.5984,-5.6191,-5.6191,-5.6191,-5.6191,-5.6227,-5.6186,-5.6039,-5.6197,-5.6242,-5.6242,-5.6242,-5.626,-5.6285,-5.6256,-5.626,-5.6336,-5.6672,-5.6766,-5.6928,0.0,0.0,0.0,0.0,0.0,0.0,0.0,0.0,0.0,0.0,0.0,-4.0169,-3.94,-3.8546,-3.7738,-3.6846,-3.6077,-3.5615,-3.5615,-3.5577,-3.5577,-3.5577,-3.5538,0.0,-3.55,-3.55,-3.5538,-3.5577,0.0,0.0,-3.8046,-3.7238,-3.7738,-3.9284,-3.9246,-3.8277,-3.6808,0.0,-3.8238,-3.6923,-3.9392,-4.04,-4.0439,-4.04,-4.0893,-4.1546,-4.0669,-3.9861,-3.9053,-3.82,-3.6853,-3.55,-3.5462,-3.4308,-3.3199,0.0,0.0,0.0,0.0,0.0,0.0,0.0,0.0,0.0,0.0,0.0,0.0,0.0,0.0,0.0,0.0,0.0,0.0,0.0,0.0,0.0,0.0,0.0,0.0,0.0,0.0,0.0,0.0,0.0,0.0,0.0,-5.2202,-5.3164,-5.3203,-5.4741,-5.5665,-5.5703,-5.5703,-5.5703,-5.5703,-5.5843,-5.5984,-5.6191,-5.6191,-5.6191,-5.6197,-5.6347,-5.6383,-5.6377,-5.6383,-5.6383,-5.6383,-5.6383,-5.646,-5.6561,-5.6448,-5.646,-5.6679,-5.75,-5.7812,-5.7968,0.0,0.0,0.0,0.0,0.0,0.0,0.0,0.0,0.0,0.0,0.0,0.0,0.0,-3.82,-3.743,-3.6038,-3.5654,-3.55,-3.55,-3.55,-3.55,-3.55,-3.55,-3.55,-3.55,-3.55,-3.55,0.0,0.0,-3.6077,-3.7161,-3.6846,-3.7038,-3.7623,-3.7623,-3.7276,-3.6731,-3.7353,0.0,0.0,-3.9469,-4.0862,-4.1393,-4.197,-4.3008,-4.4047,-4.2662,-4.197,-4.1431,-3.9469,-3.8046,-3.6815,-3.5161,-3.4237,-3.3705,-3.343,-3.5045,0.0,0.0,0.0,0.0,0.0,0.0,0.0,0.0,0.0,0.0,0.0,0.0,0.0,0.0,0.0,0.0,0.0,0.0,0.0,0.0,0.0,0.0,0.0,0.0,0.0,0.0,0.0,0.0,0.0,0.0,-5.4049,-5.4049,-5.5088,-5.5703,-5.5703,-5.5798,-5.5939,-5.6131,-5.6184,-5.6301,-5.6458,-5.6458,-5.6458,-5.6458,-5.6511,-5.6516,-5.6516,-5.6516,-5.6516,-5.6516,-5.6516,-5.656,-5.6601,-5.6558,-5.6911,-5.7461,-5.7773,-5.8242,-5.8867,0.0,0.0,0.0,0.0,0.0,0.0,0.0,0.0,-4.0516,-4.0516,0.0,0.0,0.0,0.0,-3.7738,-3.6038,-3.5654,-3.55,-3.55,-3.55,-3.55,-3.55,-3.55,-3.55,-3.55,-3.55,-3.55,0.0,0.0,0.0,0.0,-3.6692,-3.6846,-3.7123,-3.6846,-3.6538,0.0,0.0,0.0,-3.7353,0.0,-4.1816,-4.3124,-4.3701,-4.5355,-4.7018,-4.4739,-4.4316,-4.4393,-4.1854,-4.0392,-3.9315,-3.7014,-3.5552,-3.4468,-3.3583,-3.4353,0.0,-3.6853,0.0,0.0,0.0,0.0,0.0,0.0,0.0,0.0,0.0,0.0,0.0,0.0,0.0,0.0,0.0,0.0,0.0,0.0,0.0,0.0,0.0,0.0,0.0,0.0,0.0,0.0,0.0,0.0,0.0,-5.4511,-5.5241,-5.5707,-5.576,-5.584,-5.6065,-5.6389,-5.6389,-5.646,-5.6601,-5.6601,-5.6601,-5.6601,-5.6601,-5.6601,-5.6601,-5.6601,-5.6601,-5.6601,-5.6601,-5.6758,-5.7031,-5.7031,-5.7578,-5.8359,-5.8633,-5.9101,-5.9726,0.0,0.0,0.0,0.0,0.0,0.0,0.0,0.0,-4.0516,-4.0516,0.0,0.0,0.0,0.0,0.0,-3.6846,-3.5962,-3.55,-3.55,-3.55,-3.55,-3.55,-3.55,-3.55,-3.55,-3.55,-3.55,0.0,0.0,0.0,0.0,0.0,-3.7123,-3.7892,-3.7038,-3.6231,-3.5538,0.0,-3.7199,-3.82,0.0,-4.3316,-4.5518,0.0,-4.7749,-5.0212,-4.6864,-4.6701,-4.7702,-4.5201,-4.3778,-4.2777,-4.0977,-3.8161,-3.5346,-3.4468,-3.4814,-3.55,0.0,0.0,0.0,0.0,0.0,0.0,0.0,0.0,0.0,0.0,0.0,0.0,0.0,0.0,0.0,0.0,0.0,0.0,0.0,0.0,0.0,0.0,0.0,0.0,0.0,0.0,0.0,0.0,-5.4049,-5.4549,-5.4549,-5.5291,-5.576,-5.5885,-5.5893,-5.6077,-5.6391,-5.6394,-5.6462,-5.6601,-5.6601,-5.6601,-5.6601,-5.6601,-5.6601,-5.6601,-5.6601,-5.6601,-5.6601,-5.6601,-5.7109,-5.789,-5.789,-5.8437,-5.9336,-6.0117,-6.043,-6.0547,0.0,0.0,0.0,0.0,0.0,-4.0516,-4.0516,-4.0516,-4.0516,0.0,0.0,0.0,-3.94,-3.8161,-3.7238,-3.6731,-3.5962,-3.55,-3.55,-3.55,-3.55,-3.55,-3.55,-3.55,-3.55,-3.55,-3.55,-3.55,0.0,0.0,0.0,0.0,0.0,0.0,-3.5923,-3.5692,-3.5538,-3.6346,0.0,-3.7392,-4.12,-4.2777,0.0,0.0,0.0,0.0,-4.774,-4.7702,-4.7817,-4.5893,-4.4278,-4.2585,-3.9623,-3.7623,-3.6077,-3.4622,-3.4814,-3.55,-3.55,0.0,0.0,0.0,0.0,0.0,0.0,0.0,0.0,0.0,0.0,0.0,0.0,0.0,0.0,0.0,0.0,0.0,0.0,0.0,0.0,0.0,0.0,0.0,0.0,0.0,0.0,0.0,-5.5241,-5.5357,-5.5357,-5.5654,-5.5932,-5.6122,-5.6227,-5.6335,-5.6558,-5.6558,-5.6561,-5.6601,-5.6601,-5.6601,-5.6601,-5.6601,-5.6601,-5.6601,-5.6601,-5.6601,-5.6601,-5.6601,-5.7109,-5.789,-5.789,-5.8789,-6.0078,-6.0312,-6.0781,-6.1367,0.0,0.0,-4.0516,-4.0516,-4.0516,-4.0516,-4.0516,-4.0516,-4.0516,0.0,0.0,0.0,-3.9861,-3.8892,-3.8007,-3.7315,-3.6462,-3.5846,-3.5538,-3.55,-3.55,-3.55,-3.55,-3.55,-3.55,-3.5154,-3.4968,-3.4968,-3.4577,-3.4423,-3.4423,-3.4423,-3.4622,-3.4968,-3.4968,-3.5154,-3.5577,-3.6731,0.0,0.0,-4.1123,0.0,0.0,-4.6778,-4.8548,0.0,0.0,0.0,-4.9356,-4.7317,-4.5278,-4.3239,-4.1277,-3.9084,-3.6969,-3.5622,-3.5391,-3.55,-3.55,-3.6077,-3.7038,0.0,0.0,0.0,0.0,0.0,0.0,0.0,0.0,0.0,0.0,0.0,0.0,0.0,0.0,0.0,0.0,0.0,0.0,0.0,0.0,0.0,0.0,-5.4511,-5.5203,-5.5665,-5.5703,-5.5703,-5.5703,-5.5834,-5.5976,-5.6186,-5.6347,-5.6458,-5.6601,-5.6601,-5.6601,-5.6601,-5.6601,-5.6601,-5.6601,-5.6601,-5.6601,-5.6601,-5.6601,-5.6601,-5.6601,-5.6601,-5.7344,-5.8437,-5.8437,-5.9453,-6.0937,-6.0937,-6.125,-6.1719,0.0,0.0,-4.0516,-4.0516,-4.0593,-4.0631,-4.0516,-4.0669,-4.0746,0.0,-4.0746,-4.0785,-4.0785,-4.0631,-3.99,-3.8392,-3.7392,-3.6538,-3.5808,-3.5692,-3.5615,-3.5615,-3.5538,-3.55,-3.55,-3.4661,-3.4205,-3.4205,-3.3314,-3.2891,-3.2891,-3.2891,-3.3314,-3.4052,-3.4244,-3.4776,-3.5615,-3.7199,0.0,-3.8507,-4.1162,-4.3124,0.0,0.0,-4.9279,-5.0366,-4.8894,-4.9779,-5.1231,-4.8779,-4.6509,0.0,-4.4278,-4.1662,-3.8469,-3.7199,-3.6346,-3.5731,-3.5423,-3.5885,-3.6462,-3.6538,0.0,0.0,0.0,0.0,0.0,0.0,0.0,0.0,0.0,0.0,0.0,0.0,0.0,0.0,0.0,0.0,0.0,0.0,0.0,0.0,-5.4203,-5.4934,-5.5472,-5.5549,-5.5665,-5.5724,-5.5717,-5.5852,-5.5984,-5.6212,-5.6351,-5.6458,-5.6601,-5.6601,-5.6601,-5.6601,-5.6601,-5.6601,-5.6601,-5.6601,-5.6601,-5.6601,-5.6601,-5.6601,-5.6601,-5.6601,-5.7578,-5.9062,-5.914,-6.0156,-6.1562,-6.164,-6.1719,-6.1719,-4.0323,-4.0516,-4.0516,-4.0516,-4.1085,-4.1316,-4.0593,-4.17,-4.2354,-4.1623,-4.2162,-4.2585,-4.2585,-4.1362,-4.0362,-4.0054,-3.8623,-3.77,-3.7507,-3.6846,-3.6462,-3.6462,-3.5846,-3.55,-3.55,-3.4661,-3.4205,-3.4205,-3.3314,-3.2891,-3.2891,-3.2891,-3.3006,-3.3199,-3.4622,-3.5346,-3.5577,-3.6538,0.0,-4.0285,-4.3555,0.0,-4.571,-4.898,-4.9971,-4.9702,-5.0048,-5.0048,-4.9625,-4.7778,-4.724,-4.6894,0.0,0.0,0.0,-3.8777,0.0,0.0,-3.5007,-3.4584,-3.4853,-3.5577,0.0,0.0,0.0,0.0,0.0,0.0,0.0,0.0,0.0,0.0,0.0,0.0,0.0,0.0,0.0,0.0,0.0,0.0,0.0,0.0,-5.2423,-5.3203,-5.3972,-5.4664,-5.5318,-5.5768,-5.5849,-5.5899,-5.6045,-5.6361,-5.6383,-5.6458,-5.6601,-5.6601,-5.6601,-5.6601,-5.6601,-5.6601,-5.6601,-5.6601,-5.6601,-5.6601,-5.6601,-5.6601,-5.6601,-5.6601,-5.7226,-5.8203,-5.8945,-5.9805,-6.0742,-6.1445,-6.1719,-6.1719,-3.9823,-4.0208,-4.0631,-4.1085,-4.1162,-4.1316,-4.1739,-4.2162,-4.2585,-4.3008,-4.3816,-4.4355,-4.4355,-4.3555,-4.2709,-4.1854,-4.1046,-4.0162,-3.9315,-3.8469,-3.7815,-3.7353,-3.6538,-3.5923,-3.55,-3.4237,-3.3545,-3.3545,-3.2275,-3.1654,-3.1654,-3.1654,-3.2776,-3.4814,-3.4814,-3.6007,-3.8007,0.0,-4.0085,-4.2516,-4.3816,0.0,-4.6018,-4.9856,-5.051,-4.9586,-5.0856,-5.0471,-4.9394,-4.9394,-4.8279,0.0,-4.5855,-4.4432,-4.2624,0.0,-3.9008,-3.7623,0.0,0.0,0.0,-3.5385,-3.6115,0.0,0.0,0.0,0.0,0.0,0.0,0.0,0.0,0.0,0.0,0.0,0.0,0.0,0.0,0.0,0.0,0.0,0.0,0.0,0.0,-5.2692,-5.3395,-5.3818,-5.4626,-5.5171,-5.5296,-5.579,-5.6142,-5.6386,-5.646,-5.6517,-5.6601,-5.6601,-5.6601,-5.6601,-5.6601,-5.6601,-5.6601,-5.6601,-5.6601,-5.6601,-5.6601,-5.6601,-5.6601,-5.6601,-5.6875,-5.7344,-5.8203,-5.9297,-6.0469,-6.0898,-6.1328,-6.1719,-3.9284,-3.9938,-4.0708,-4.1431,-4.1123,-4.12,-4.2624,-4.2547,-4.2893,-4.4586,-4.5393,-4.5902,-4.6056,-4.5787,-4.5133,-4.3932,-4.3508,-4.2739,-4.1324,-4.0477,-3.9623,-3.8777,-3.7584,-3.6654,-3.6,-3.4122,-3.3083,-3.2891,-3.1385,-3.0577,-3.0385,-3.0577,-3.2462,-3.5731,-3.5353,0.0,0.0,0.0,0.0,-4.4047,0.0,-4.524,-4.7672,-5.0933,-5.1395,-5.051,-5.1356,-5.0894,-5.0087,-5.1423,-4.974,-4.724,-4.8279,-4.6278,0.0,0.0,0.0,0.0,0.0,0.0,0.0,0.0,0.0,-3.6692,0.0,0.0,0.0,0.0,0.0,0.0,0.0,0.0,0.0,0.0,0.0,0.0,0.0,0.0,0.0,0.0,0.0,0.0,0.0,-5.2923,-5.3664,-5.301,-5.4357,-5.5075,-5.4745,-5.5443,-5.6057,-5.6445,-5.6508,-5.6559,-5.6601,-5.6601,-5.6601,-5.6601,-5.6601,-5.6601,-5.6601,-5.6601,-5.6601,-5.6601,-5.6601,-5.6601,-5.6601,-5.6601,-5.6601,-5.668,-5.7578,-5.8711,-5.9961,-6.0273,-6.0859,-6.1484,-3.9284,-3.9938,-4.0516,-4.0631,-4.12,-4.1739,-4.1923,-4.3124,-4.4624,-4.6394,-4.6701,-4.7009,-4.774,-4.6471,-4.5817,-4.6432,-4.5047,-4.4085,-4.3893,-4.3124,-4.2277,-4.1423,-3.9123,-3.7815,-3.7738,-3.5315,-3.366,-3.2891,-3.2006,-3.1154,-3.0423,-3.1192,-3.1814,-3.2468,-3.6776,0.0,0.0,0.0,-4.3624,0.0,-4.5586,-4.9279,0.0,-5.3164,-5.3395,-5.3664,-5.1587,-5.1164,-5.1654,0.0,-5.2077,-5.2125,0.0,-5.0096,-4.8942,-4.5124,0.0,0.0,0.0,0.0,0.0,0.0,-3.4423,-3.5846,0.0,0.0,-3.7392,-3.8238,0.0,0.0,0.0,0.0,0.0,0.0,0.0,0.0,0.0,0.0,0.0,0.0,0.0,0.0,0.0,0.0,-5.5308,-5.2269,-5.5665,-5.6995,-5.4991,-5.4752,-5.526,-5.6521,-5.6368,-5.6368,-5.6601,-5.6601,-5.6601,-5.6601,-5.6601,-5.6601,-5.6601,-5.6601,-5.6601,-5.6601,-5.6601,-5.6601,-5.6601,-5.6601,-5.6601,-5.668,-5.7578,-5.8008,-5.8359,-5.9844,-6.0469,-6.0664,-3.8738,-3.9592,-4.0823,-4.1816,-4.1893,-4.2462,-4.4462,-4.6624,-4.8279,-4.9009,-4.951,-5.0115,-5.0971,-4.9971,-4.9009,-4.8394,-4.7663,-4.6855,-4.5855,-4.4547,-4.3624,-4.3278,-4.0354,-3.8507,-3.8007,-3.5507,-3.3782,-3.2891,-3.2083,-3.1231,-3.0423,-3.1269,-3.2737,-3.4737,-3.7892,0.0,-4.0816,0.0,-4.7317,0.0,0.0,0.0,0.0,-5.4664,-5.3433,-5.3549,-5.1972,-5.1625,-5.1962,0.0,-5.3241,0.0,0.0,0.0,0.0,-4.7048,0.0,0.0,0.0,0.0,0.0,0.0,0.0,0.0,-3.6846,0.0,-3.6115,0.0,0.0,0.0,0.0,0.0,0.0,0.0,0.0,0.0,0.0,0.0,0.0,0.0,0.0,0.0,0.0,0.0,0.0,0.0,0.0,-5.5507,-5.4235,-5.4511,-5.5073,-5.582,-5.6234,-5.6506,-5.6601,-5.6601,-5.6601,-5.6601,-5.6601,-5.6601,-5.6601,-5.6601,-5.6601,-5.6601,-5.6601,-5.6601,-5.6601,-5.6601,-5.6601,-5.664,-5.6992,-5.7773,-5.875,-5.9453,-6.0312,-6.1211,-3.8969,-3.9854,-4.1162,-4.22,-4.2277,-4.3085,-4.5778,-4.8548,-5.0327,-5.0327,-5.1241,-5.2308,-5.3433,-5.2356,-5.1279,-5.051,-4.9817,-4.8894,-4.7663,-4.6394,-4.547,-4.5047,-4.2008,-3.9931,-3.9046,-3.6546,-3.4699,-3.3622,-3.2776,-3.1814,-3.0769,-3.1621,-3.3468,-3.6122,0.0,-4.0785,-4.3431,0.0,-4.9163,-5.2626,-5.1241,-5.429,-5.9242,-5.5626,-5.3818,-5.3087,-5.2192,-5.1885,-5.2077,-5.3164,-5.3972,0.0,-5.3549,0.0,-5.2549,0.0,0.0,0.0,-4.2093,0.0,0.0,0.0,0.0,0.0,0.0,0.0,0.0,0.0,0.0,0.0,0.0,0.0,0.0,0.0,0.0,0.0,0.0,0.0,0.0,0.0,0.0,0.0,0.0,0.0,0.0,0.0,0.0,0.0,-5.3279,-5.4041,-5.4706,-5.523,-5.609,-5.656,-5.6601,-5.6601,-5.6601,-5.6601,-5.6601,-5.6601,-5.6601,-5.6601,-5.6601,-5.6601,-5.6601,-5.6601,-5.6601,-5.6601,-5.6601,-5.6601,-5.6601,-5.7539,-5.8828,-5.8828,-5.9765,-6.1055,-4.0593,-4.1123,-4.1508,-4.0708,-4.197,-4.3355,-4.4239,-4.724,-4.9433,-4.9433,-5.0894,-5.2538,-5.428,-5.2241,-5.1356,-5.2933,-5.0818,-4.9394,-4.9317,-4.9279,-4.8509,-4.6885,-4.4355,-4.2585,-4.1692,-3.92,-3.7084,-3.5423,-3.4545,-3.3276,-3.1698,-3.2468,-3.3353,-3.4436,-3.7784,-3.9785,-4.09,-4.5124,-4.7432,-4.8471,-5.0048,-5.1818,-5.3741,0.0,-5.5357,-5.3087,-5.2192,0.0,0.0,-5.3895,-5.4472,0.0,0.0,0.0,0.0,0.0,0.0,0.0,0.0,0.0,0.0,-3.9477,0.0,0.0,0.0,0.0,-3.77,0.0,0.0,0.0,0.0,0.0,0.0,0.0,0.0,0.0,0.0,0.0,0.0,0.0,0.0,0.0,0.0,0.0,0.0,0.0,0.0,0.0,-5.2375,-5.2971,-5.3952,-5.5072,-5.5967,-5.646,-5.6601,-5.6601,-5.6601,-5.6601,-5.6601,-5.6601,-5.6601,-5.6601,-5.6601,-5.6601,-5.6601,-5.6601,-5.6601,-5.6601,-5.6601,-5.6601,-5.6601,-5.7148,-5.793,-5.793,-5.8515,-5.9375,-4.2277,-4.2893,-4.3355,-4.3085,-4.3508,-4.4355,-4.5817,-4.9394,-5.151,-5.0394,-5.2702,-5.4434,-5.4472,-5.4203,-5.378,-5.3241,-5.2395,-5.1433,-5.0317,-5.025,-4.974,-4.8586,-4.6124,-4.4355,-4.347,-4.0431,-3.8007,-3.6308,-3.5462,-3.393,0.0,-3.3122,-3.3936,-3.4359,0.0,-4.0669,0.0,0.0,0.0,0.0,0.0,-5.5742,-5.5615,0.0,-5.4318,-5.3933,-5.3087,-5.3126,0.0,-5.428,-5.5626,-5.6819,-5.5703,-5.5895,-5.5857,-5.2164,-5.0664,-4.9538,0.0,0.0,-4.5778,-4.3239,0.0,0.0,0.0,0.0,0.0,0.0,0.0,0.0,0.0,0.0,0.0,0.0,0.0,0.0,0.0,0.0,0.0,0.0,0.0,0.0,0.0,0.0,0.0,0.0,0.0,0.0,0.0,-5.2918,-5.3668,-5.4209,-5.5653,-5.6458,-5.6601,-5.6601,-5.6601,-5.6601,-5.6601,-5.6601,-5.6601,-5.6601,-5.6601,-5.6601,-5.6601,-5.6601,-5.6601,-5.6601,-5.6601,-5.6601,-5.6601,-5.6797,-5.7109,-5.7695,-5.8789,-6.0039,-4.3547,-4.3932,-4.4201,-4.3932,-4.4624,-4.5817,-4.7548,-5.0625,-5.2356,-5.1279,-5.3549,-5.5164,-5.4934,-5.5126,-5.4934,-5.4164,-5.3549,-5.2972,-5.252,-5.1625,-5.101,-5.0779,-4.8009,-4.6086,-4.524,-4.22,-3.9815,-3.8046,-3.6615,-3.4615,0.0,0.0,0.0,0.0,0.0,-4.0469,-4.4778,0.0,-4.8971,0.0,0.0,-5.6626,0.0,0.0,-5.4626,-5.5241,0.0,-5.3818,-5.4087,-5.4395,-5.5588,-5.6703,-5.5357,-5.5857,-5.6319,-5.301,-5.2202,-5.1769,-4.9009,-4.8817,0.0,-4.5932,-4.6086,0.0,-4.4816,0.0,-4.117,0.0,0.0,0.0,0.0,0.0,0.0,0.0,0.0,0.0,0.0,0.0,0.0,0.0,0.0,0.0,0.0,0.0,0.0,0.0,0.0,0.0,0.0,0.0,-5.3333,-5.4164,-5.5327,-5.6149,-5.6601,-5.6601,-5.6601,-5.6601,-5.6601,-5.6601,-5.6601,-5.6601,-5.6601,-5.6601,-5.6601,-5.6601,-5.6601,-5.6601,-5.6601,-5.664,-5.6953,-5.707,-5.7148,-5.7695,-5.8945,-6.043,-4.4432,-4.4432,-4.4201,-4.3547,-4.5432,-4.7548,-4.9163,-5.0818,-5.1885,-5.1885,-5.3433,-5.478,-5.5549,-5.4972,-5.4857,-5.5626,-5.4241,-5.3972,-5.5549,-5.3395,-5.2423,-5.3164,-5.0087,-4.7971,-4.7124,-4.4586,-4.2393,-4.0554,-3.8046,0.0,0.0,0.0,0.0,0.0,-3.5615,0.0,-4.5556,-4.397,-4.6663,-5.2154,-5.378,-5.4549,-5.4741,-5.5434,-5.6291,-5.683,-5.5164,-5.4049,-5.3433,-5.428,-5.4549,-5.4703,-5.5472,-5.5164,-5.4511,-5.4511,-5.3895,-5.2856,-5.1241,-5.0202,-4.9125,-4.7509,-4.7077,0.0,0.0,0.0,-4.4662,0.0,0.0,0.0,0.0,0.0,0.0,0.0,0.0,0.0,0.0,0.0,0.0,0.0,0.0,0.0,0.0,0.0,0.0,0.0,0.0,0.0,0.0,0.0,-5.3048,-5.4835,-5.5032,-5.5565,-5.6601,-5.6601,-5.6601,-5.6601,-5.6601,-5.6601,-5.6601,-5.6601,-5.6601,-5.6601,-5.6601,-5.6601,-5.6601,-5.6601,-5.6601,-5.668,-5.7578,-5.7969,-5.8008,-5.8008,-5.9023,-6.0508,-4.624,-4.624,-4.6547,-4.7586,-4.8317,-4.8894,-4.9317,-5.0818,-5.1885,-5.1885,-5.3433,-5.4587,-5.478,-5.5164,-5.5472,-5.5665,-5.5318,-5.4972,-5.4818,-5.4741,-5.428,-5.3241,-5.2356,-5.1202,-4.974,-4.724,-4.447,-4.147,-3.9546,0.0,-3.3898,0.0,0.0,0.0,0.0,0.0,-4.6547,-4.6124,-4.9009,-5.3818,-5.3626,-5.5049,-5.7203,0.0,-5.6626,-5.7742,-5.6011,-5.5241,-5.5088,-5.5318,-5.5395,-5.5434,-5.5626,-5.5164,-5.4511,-5.4511,-5.3895,-5.3126,-5.2664,-5.1933,-5.101,-4.9971,-4.9702,-4.9548,0.0,0.0,0.0,0.0,0.0,0.0,0.0,0.0,0.0,0.0,0.0,0.0,0.0,0.0,0.0,0.0,0.0,0.0,0.0,0.0,0.0,0.0,0.0,0.0,0.0,0.0,0.0,-5.4874,-5.5021,-5.5562,-5.6601,-5.6601,-5.6601,-5.6601,-5.6601,-5.6601,-5.6601,-5.6601,-5.6601,-5.6601,-5.6601,-5.6601,-5.6601,-5.6601,-5.6601,-5.668,-5.7578,-5.8672,-5.9765,-5.9765,-6.0039,-6.0508,-4.7432,-4.8048,-4.8856,-4.9779,-5.0587,-5.1048,-5.1048,-5.2202,-5.3318,-5.4049,-5.4664,-5.5164,-5.5549,-5.5665,-5.5703,-5.5703,-5.5703,-5.5818,-5.6126,-5.5549,-5.5088,-5.4857,-5.3433,-5.2202,-5.1241,-4.9086,-4.6317,-4.2893,-4.1585,0.0,-3.4776,0.0,0.0,0.0,0.0,-4.1085,0.0,-4.8308,-5.1202,-5.4472,-5.3972,-5.5126,0.0,-5.6049,-5.6319,-5.7049,-5.6049,-5.5703,-5.5703,-5.5703,-5.5703,-5.5703,-5.5703,-5.5395,-5.5011,-5.5011,-5.4664,-5.4203,-5.3857,-5.3395,-5.2741,-5.1548,-5.151,-5.1548,-5.0702,-4.951,-4.8663,0.0,-4.6086,-4.3932,0.0,0.0,0.0,0.0,0.0,0.0,0.0,0.0,0.0,0.0,0.0,0.0,0.0,0.0,0.0,0.0,0.0,0.0,0.0,0.0,0.0,-5.4324,-5.5181,-5.5798,-5.6015,-5.6797,-5.6992,-5.6601,-5.6601,-5.6601,-5.6601,-5.6601,-5.6601,-5.6601,-5.6601,-5.6601,-5.6601,-5.6601,-5.6836,-5.7305,-5.8515,-5.9805,-6.0976,-6.0976,-6.0976,-6.1055,-4.8586,-4.9817,-5.0943,-5.1174,-5.2472,-5.3587,-5.3664,-5.4049,-5.4972,-5.6791,-5.6137,-5.5895,-5.6907,-5.6214,-5.5703,-5.5703,-5.5703,-5.6357,-5.7857,-5.5895,-5.5318,-5.6791,-5.3972,-5.2346,-5.2231,-5.0587,-4.8125,-4.4816,-4.3662,0.0,0.0,0.0,0.0,0.0,0.0,0.0,0.0,-5.0587,-5.3164,-5.4664,-5.4549,-5.4972,-5.5703,-5.5703,-5.5703,-5.5703,-5.5703,-5.5703,-5.5703,-5.5703,-5.5703,-5.5703,-5.5703,-5.5626,-5.5549,-5.5665,-5.5626,-5.5395,-5.4818,-5.4587,-5.4126,-5.2615,-5.2731,-5.301,-5.2231,-5.1548,-5.1202,-5.1769,-4.8894,-4.6941,0.0,0.0,0.0,0.0,0.0,0.0,0.0,0.0,0.0,0.0,0.0,0.0,0.0,0.0,0.0,0.0,0.0,0.0,0.0,0.0,0.0,-5.3735,-5.5276,-5.5923,-5.5625,0.0,-5.7422,-5.6758,-5.664,-5.6601,-5.6601,-5.6601,-5.6601,-5.6601,-5.6601,-5.6601,-5.6601,-5.6719,-5.7344,-5.8359,-5.9844,-6.0937,-6.1719,-6.1719,-6.1719,-6.1719,-5.1231,-5.1462,-5.2125,-5.3587,-5.4626,-5.5511,-5.6214,-5.4664,-5.428,-5.6676,-5.5665,-5.528,-5.683,-5.6214,-5.5703,-5.5703,-5.5703,-5.5818,-5.6126,-5.5742,-5.5626,-5.5895,-5.5357,-5.4703,-5.4049,-5.2356,-5.0154,-4.7432,-4.4509,-4.1893,0.0,0.0,0.0,0.0,0.0,0.0,-5.0923,-5.3126,0.0,-5.5434,-5.478,-5.4972,-5.5703,-5.5703,-5.5703,-5.5703,-5.5703,-5.5703,-5.5703,-5.5703,-5.5703,-5.5703,-5.5703,-5.5241,-5.4857,-5.5511,-5.5241,-5.4818,-5.5357,-5.5011,-5.4434,-5.4126,-5.3626,-5.3164,-5.301,-5.2856,-5.2587,-5.2,-5.0779,-4.9942,-5.0404,0.0,0.0,0.0,0.0,0.0,0.0,0.0,0.0,0.0,0.0,0.0,0.0,0.0,0.0,0.0,0.0,0.0,0.0,0.0,0.0,0.0,-5.4498,0.0,0.0,0.0,-5.7109,-5.7656,-5.6953,-5.6601,-5.6601,-5.6601,-5.6601,-5.6601,-5.6601,-5.6601,-5.664,-5.7383,-5.8594,-6.0,-6.0273,-6.0937,-6.1719,-6.1719,-6.1719,-6.1719,-5.2577,-5.3626,-5.4664,-5.5049,-5.6549,-5.7665,-5.7665,-5.6626,-5.6434,-5.8088,-5.7242,-5.678,-5.7588,-5.6907,-5.6214,-5.5742,-5.5703,-5.5703,-5.5703,-5.5703,-5.5703,-5.5703,-5.528,-5.4895,-5.4511,-5.3664,-5.201,-4.9433,-4.7817,-4.571,-4.3094,0.0,0.0,0.0,0.0,-4.8279,0.0,0.0,0.0,-5.5665,-5.528,-5.5357,-5.5703,-5.5703,-5.5703,-5.5703,-5.5703,-5.5703,-5.5703,-5.5703,-5.5703,-5.5703,-5.5703,-5.5434,-5.5203,-5.5588,-5.5434,-5.5203,-5.5588,-5.5126,-5.4587,-5.5011,-5.4164,-5.3318,-5.378,-5.351,-5.3087,-5.2654,-5.1895,-5.1202,-5.0789,-4.9317,0.0,0.0,0.0,0.0,0.0,0.0,0.0,0.0,0.0,0.0,0.0,0.0,0.0,0.0,0.0,0.0,0.0,0.0,0.0,0.0,0.0,0.0,0.0,0.0,0.0,-5.7226,-5.6797,-5.6601,-5.6601,-5.6601,-5.6601,-5.6601,-5.6601,-5.6875,-5.7383,-5.8672,-5.9687,-6.043,-6.0898,-6.1328,-6.1719,-6.1719,-6.1719,-6.1719,-5.428,-5.5895,-5.7088,-5.6588,-5.8165,-5.9358,-5.8896,-5.8665,-5.8781,-5.9435,-5.8819,-5.8319,-5.8319,-5.7703,-5.6857,-5.578,-5.5857,-5.5895,-5.5703,-5.5703,-5.5703,-5.5703,-5.5088,-5.4857,-5.5011,-5.4664,-5.3587,0.0,0.0,-4.8788,-4.5056,0.0,0.0,0.0,0.0,0.0,0.0,0.0,-5.4395,-5.5472,-5.5626,-5.5703,-5.5703,-5.5703,-5.5703,-5.5703,-5.5703,-5.5703,-5.5703,-5.5703,-5.5703,-5.5703,-5.5703,-5.5703,-5.5703,-5.5703,-5.5703,-5.5703,-5.5703,-5.5241,-5.4895,-5.5549,-5.4703,-5.3895,-5.4587,-5.4203,-5.3664,-5.351,-5.2779,-5.1972,-5.1356,-5.0394,0.0,0.0,0.0,0.0,0.0,0.0,0.0,0.0,0.0,0.0,0.0,0.0,0.0,0.0,0.0,0.0,0.0,0.0,0.0,0.0,0.0,-5.6433,-5.6367,0.0,-5.7578,-5.6875,-5.668,-5.6601,-5.6601,-5.6601,-5.6601,-5.6601,-5.6601,-5.7187,-5.8281,-5.9805,-6.0508,-6.0742,-6.1445,-6.1719,-6.1719,-6.1719,-6.1719,-6.1719,-5.7819,-5.8011,-5.8396,-5.905,-5.9358,-5.9742,-6.0473,-5.9896,-5.9396,-5.9473,-5.8819,-5.8319,-5.8319,-5.8242,-5.7511,-5.5818,-5.6406,-5.656,-5.5742,-5.5703,-5.5703,-5.5703,-5.5626,-5.5972,-5.6753,-5.528,-5.4741,0.0,0.0,-4.8163,-4.3393,-4.5547,0.0,0.0,0.0,0.0,0.0,-5.4472,-5.5126,-5.4664,-5.5395,-5.5703,-5.5703,-5.5703,-5.5703,-5.5703,-5.5703,-5.5703,-5.5703,-5.5703,-5.5703,-5.5703,-5.5703,-5.5703,-5.5703,-5.5703,-5.5703,-5.5703,-5.5703,-5.5665,-5.5588,-5.5665,-5.5588,-5.5472,-5.5549,-5.5511,-5.5241,-5.4511,-5.3664,-5.3049,-5.2972,-5.1664,-5.1558,0.0,0.0,0.0,0.0,0.0,0.0,0.0,0.0,0.0,0.0,0.0,0.0,0.0,0.0,0.0,0.0,0.0,0.0,-5.5794,0.0,-5.7656,-5.9883,-5.8594,-5.7851,-5.7773,-5.6992,-5.6601,-5.6601,-5.6601,-5.6601,-5.6601,-5.6601,-5.7539,-5.914,-6.0039,-6.0859,-6.1601,-6.168,-6.1719,-6.1719,-6.1719,-6.1719,-6.1719,-5.8319,-5.9127,-5.9742,-5.955,-6.0358,-6.1012,-6.0819,-6.0512,-6.0281,-6.0281,-5.955,-5.8858,-5.8357,-5.8742,-5.855,-5.7357,-5.7588,-5.7396,-5.656,-5.6483,-5.6252,-5.5703,-5.5703,-5.5857,-5.6214,-5.6099,-5.5895,0.0,0.0,-5.2943,-4.9933,-4.9933,-5.0077,-5.0423,0.0,-5.2933,-5.4241,-5.528,-5.5511,-5.5241,-5.5549,-5.5703,-5.5703,-5.5703,-5.5703,-5.5703,-5.5703,-5.5703,-5.5703,-5.5703,-5.5703,-5.5703,-5.5703,-5.5703,-5.5703,-5.5703,-5.5703,-5.5703,-5.5703,-5.5357,-5.5088,-5.5588,-5.4934,-5.4472,-5.5472,-5.5318,-5.5011,-5.5203,-5.4549,-5.3972,-5.3972,-5.3818,-5.3972,-5.4818,0.0,0.0,0.0,0.0,0.0,0.0,0.0,0.0,0.0,0.0,0.0,0.0,0.0,0.0,0.0,0.0,0.0,-5.7765,0.0,-5.6885,-5.9648,-5.8515,-5.7656,-5.7109,-5.6758,-5.6601,-5.6601,-5.6601,-5.6875,-5.7422,-5.793,-5.8828,-6.0,-6.082,-6.1406,-6.1719,-6.1719,-6.1719,-6.1719,-6.1719,-6.1719,-6.1719,-5.905,-5.9973,-6.0589,-5.9973,-6.0896,-6.1524,-6.0896,-6.0781,-6.0781,-6.0781,-6.0242,-5.9588,-5.8742,-5.9396,-5.9473,-5.8396,-5.8511,-5.828,-5.7434,-5.7357,-5.7088,-5.6472,-5.6472,0.0,-5.6819,-5.7203,-5.7203,-5.6819,-5.6945,-5.5637,-5.2972,-5.1241,-5.1231,0.0,-5.3318,-5.4241,-5.5357,-5.5588,-5.5549,-5.5357,-5.5588,-5.5703,-5.5703,-5.5703,-5.5703,-5.5703,-5.5703,-5.5703,-5.5703,-5.5703,-5.5703,-5.5703,-5.5703,-5.5703,-5.5703,-5.5703,-5.5703,-5.5703,-5.5703,-5.528,-5.4972,-5.5549,-5.4818,-5.4241,-5.5434,-5.5241,-5.5011,-5.5588,-5.5241,-5.478,-5.4549,-5.4972,-5.5318,-5.5241,0.0,0.0,0.0,0.0,0.0,0.0,-5.1241,-5.0818,0.0,0.0,0.0,0.0,0.0,0.0,0.0,0.0,0.0,0.0,0.0,0.0,0.0,-5.8437,-5.7461,-5.6601,-5.6601,-5.6601,-5.6601,-5.6601,-5.707,-5.7969,-5.8828,-5.9648,-6.0469,-6.1328,-6.1719,-6.1719,-6.1719,-6.1719,-6.1719,-6.1719,-6.1719,-6.1719,-6.0781,-6.0781,-6.0781,-6.0781,-6.0781,-6.0819,-6.0781,-6.0781,-6.0781,-6.0781,-6.0781,-6.0435,-5.9588,-6.0242,-6.0127,-5.8434,-5.905,-5.9127,-5.8357,-5.828,-5.828,0.0,0.0,-5.8627,-5.9435,-5.8704,-5.8665,-5.9435,0.0,-5.4406,-4.9433,-4.774,-4.9663,-5.4472,-5.4472,-5.4511,-5.4549,-5.5357,-5.5241,-5.4587,-5.5395,-5.5703,-5.5703,-5.5703,-5.5703,-5.5703,-5.5703,-5.5703,-5.5703,-5.5703,-5.5703,-5.5703,-5.5703,-5.5703,-5.5703,-5.5703,-5.5703,-5.5703,-5.5703,-5.5703,-5.5703,-5.5703,-5.5665,-5.5665,-5.5703,-5.5703,-5.5703,-5.5703,-5.5703,-5.5434,-5.4664,-5.4511,-5.5049,-5.6714,0.0,0.0,0.0,0.0,0.0,0.0,-5.5626,-5.4972,-5.3318,0.0,0.0,0.0,0.0,0.0,0.0,0.0,0.0,-5.7483,-5.7606,0.0,-6.0351,-5.8711,-5.7461,-5.6601,-5.6601,-5.6601,-5.6601,-5.6601,-5.707,-5.7969,-5.8828,-5.9648,-6.0469,-6.1328,-6.1719,-6.1719,-6.1719,-6.1719,-6.1719,-6.1719,-6.1719,-6.1719,-6.0781,-6.0781,-6.0781,-6.0781,-6.0781,-6.0781,-6.0781,-6.0781,-6.0781,-6.0781,-6.0781,-6.0704,-6.0435,-6.0627,-6.0589,0.0,-6.0242,-6.0012,0.0,-5.9127,-5.8858,-5.8319,-5.8319,-5.8434,-5.8665,-5.8973,-5.8973,-5.8665,0.0,0.0,0.0,-5.3703,-5.3741,-5.5318,-5.5318,-5.5318,-5.5357,-5.6252,-5.6099,-5.5318,-5.5588,-5.5703,-5.5703,-5.5703,-5.5703,-5.5703,-5.5703,-5.5703,-5.5703,-5.5703,-5.5703,-5.5703,-5.5703,-5.5703,-5.5703,-5.5703,-5.5703,-5.5703,-5.5703,-5.5703,-5.5703,-5.5703,-5.5703,-5.5703,-5.5703,-5.5703,-5.5703,-5.5703,-5.5703,-5.5626,-5.5357,-5.5318,-5.5472,-5.6011,-5.4972,0.0,-5.5164,0.0,-5.2856,-5.3087,-5.3626,-5.3549,0.0,-5.3857,0.0,0.0,0.0,0.0,0.0,0.0,0.0,0.0,-5.7716,0.0,-5.957,-5.8476,-5.7461,-5.6601,-5.6601,-5.6601,-5.6601,-5.6601,-5.7383,-5.8789,-5.9062,-6.0,-6.1328,-6.1601,-6.1719,-6.1719,-6.1719,-6.1719,-6.1719,-6.1719,-6.1719,-6.1719,-6.0781,-6.0781,-6.0781,-6.0781,-6.0781,-6.0781,-6.0781,-6.0781,-6.0781,-6.0781,-6.0781,-6.0781,-6.0781,-6.0781,0.0,-6.0781,-6.0781,-6.055,-6.0012,-5.9973,-5.9742,-5.9242,-5.9242,-5.9242,-5.9242,-5.9742,0.0,-5.9242,-5.9665,-5.9165,-5.778,-5.6357,-5.5857,-5.6165,-5.5857,-5.5857,-5.6214,-5.6406,-5.6214,-5.5703,-5.5703,-5.5703,-5.5703,-5.5703,-5.5703,-5.5703,-5.5703,-5.5703,-5.5703,-5.5703,-5.5703,-5.5703,-5.5703,-5.5703,-5.5703,-5.5703,-5.5703,-5.5703,-5.5703,-5.5703,-5.5703,-5.5703,-5.5703,-5.5703,-5.5703,-5.5703,-5.5703,-5.5703,-5.5703,-5.5703,-5.5703,-5.5703,-5.5703,-5.5703,-5.528,-5.4934,-5.4934,0.0,-5.3933,0.0,0.0,0.0,0.0,-5.5011,-5.5681,0.0,0.0,0.0,0.0,0.0,0.0,-5.8655,-5.7203,0.0,-5.8711,-5.7851,-5.7148,-5.6601,-5.6601,-5.6601,-5.6601,-5.6953,-5.7851,-5.9219,-5.9531,-6.043,-6.1719,-6.1719,-6.1719,-6.1719,-6.1719,-6.1719,-6.1719,-6.1719,-6.1719,-6.1719,-6.0781,-6.0781,-6.0781,-6.0781,-6.0781,-6.0781,-6.0781,-6.0781,-6.0781,-6.0781,-6.0781,-6.0781,-6.0781,-6.0781,-6.0781,-6.0781,0.0,0.0,-6.0781,-6.0781,-6.0781,-6.0781,-6.0781,-6.0781,-6.0781,-6.0781,-6.0781,-6.0781,-5.9242,-5.8011,-5.7137,-5.628,-5.628,-5.6945,-5.6088,-5.6137,-5.6868,-5.6049,-5.5703,-5.5703,-5.5703,-5.5703,-5.5703,-5.5703,-5.5703,-5.5703,-5.5703,-5.5703,-5.5703,-5.5703,-5.5703,-5.5703,-5.5703,-5.5703,-5.5703,-5.5703,-5.5703,-5.5703,-5.5703,-5.5703,-5.5703,-5.5703,-5.5703,-5.5703,-5.5703,-5.5703,-5.5703,-5.5703,-5.5703,-5.5703,-5.5703,-5.5703,-5.5703,-5.5703,-5.5703,-5.5703,-5.5703,-5.5049,-5.5703,0.0,0.0,0.0,-5.7973,-5.7346,-5.6319,0.0,0.0,0.0,0.0,0.0,-5.8946,-5.6305,-5.6322,-5.6854,-5.7812,-5.6992,-5.6601,-5.6601,-5.6601,-5.6601,-5.664,-5.75,-5.8398,-5.9258,-6.0039,-6.0898,-6.1719,-6.1719,-6.1719,-6.1719,-6.1719,-6.1719,-6.1719,-6.1719,-6.1719,-6.1719,-6.0781,-6.0781,-6.0781,-6.0781,-6.0781,-6.0781,-6.0781,-6.0781,-6.0781,-6.0781,-6.0781,-6.0781,-6.0781,-6.0781,-6.0781,-6.0781,-6.0781,-6.0781,-6.0781,-6.0781,-6.0781,-6.0781,-6.0781,-6.0781,-6.0781,-6.0781,-6.0781,-6.0781,-6.0396,-5.9742,-5.8896,-5.8088,-5.7434,-5.6945,-5.6088,-5.5818,-5.5972,-5.578,-5.5703,-5.5703,-5.5703,-5.5703,-5.5703,-5.5703,-5.5703,-5.5703,-5.5703,-5.5703,-5.5703,-5.5703,-5.5703,-5.5703,-5.5703,-5.5703,-5.5703,-5.5703,-5.5703,-5.5703,-5.5703,-5.5703,-5.5703,-5.5703,-5.5703,-5.5703,-5.5703,-5.5703,-5.5703,-5.5703,-5.5703,-5.5703,-5.5703,-5.5703,-5.5703,-5.5703,-5.5703,-5.5703,-5.5703,-5.5549,-5.5472,0.0,-5.5895,-5.5857,-5.5434,-5.578,-5.6703,0.0,0.0,0.0,0.0,-5.9287,-5.85,-5.6407,-5.6466,-5.6678,-5.6914,-5.6719,-5.6601,-5.6601,-5.6601,-5.6601,-5.664,-5.75,-5.8398,-5.9258,-6.0039,-6.0898,-6.1719,-6.1719,-6.1719,-6.1719,-6.1719,-6.1719,-6.1719,-6.1719,-6.1719,-6.1719,-6.1473,-6.1408,-6.1281,-6.0858,-6.0781,-6.0781,-6.0781,-6.0781,-6.0781,-6.0781,-6.0781,-6.0781,-6.0781,-6.0781,-6.0781,-6.0781,-6.0781,-6.0781,-6.0781,-6.0781,-6.0781,-6.0781,-6.0781,-6.0781,-6.0781,-6.0781,-6.0781,-6.0781,-6.0396,-5.9973,-5.9473,-5.8665,-5.7819,-5.6983,-5.6522,-5.6049,-5.5703,-5.5703,-5.5703,-5.5703,-5.5703,-5.5703,-5.5703,-5.5703,-5.5703,-5.5703,-5.5703,-5.5703,-5.5703,-5.5703,-5.5703,-5.5703,-5.5703,-5.5703,-5.5703,-5.5703,-5.5703,-5.5703,-5.5703,-5.5703,-5.5703,-5.5703,-5.5703,-5.5703,-5.5703,-5.5703,-5.5703,-5.5703,-5.5703,-5.5703,-5.5703,-5.5703,-5.5703,-5.5703,-5.5703,-5.5703,-5.5703,-5.5703,-5.5549,-5.5088,-5.5434,-5.5511,-5.5088,-5.5434,-5.648,-5.8384,-5.8161,0.0,-5.8765,-5.8538,-5.7763,-5.6428,-5.6517,-5.6601,-5.6601,-5.6601,-5.6601,-5.6601,-5.6601,-5.6797,-5.7226,-5.8086,-5.8945,-5.9805,-6.0625,-6.125,-6.1719,-6.1719,-6.1719,-6.1719,-6.1719,-6.1719,-6.1719,-6.1719,-6.1719,-6.1719,-6.2397,-6.2281,-6.2012,-6.1127,-6.1012,-6.0935,-6.0819,-6.0781,-6.0781,-6.0781,-6.0781,-6.0781,-6.0781,-6.0781,-6.0781,-6.0781,-6.0781,-6.0781,-6.0781,-6.0781,-6.0781,-6.0781,-6.0781,-6.0781,-6.0781,-6.0781,-6.0781,-6.0781,-6.005,-5.9627,-5.9473,-5.8819,-5.8011,-5.7214,-5.7214,-5.6714,-5.5895,-5.5895,-5.5818,-5.5703,-5.5703,-5.5703,-5.5703,-5.5703,-5.5703,-5.5703,-5.5703,-5.5703,-5.5703,-5.5703,-5.5703,-5.5703,-5.5703,-5.5703,-5.5703,-5.5703,-5.5703,-5.5703,-5.5703,-5.5703,-5.5703,-5.5703,-5.5703,-5.5703,-5.5703,-5.5703,-5.5703,-5.5703,-5.5703,-5.5703,-5.5703,-5.5703,-5.5857,-5.6395,-5.6049,-5.5895,-5.6395,-5.6011,-5.5703,-5.5703,-5.5703,-5.5703,-5.5703,-5.5703,-5.6011,-5.6753,-5.6823,-5.6943,-5.722,-5.7258,-5.7013,-5.6443,-5.6558,-5.6601,-5.6601,-5.6601,-5.6601,-5.6601,-5.6601,-5.707,-5.793,-5.8789,-5.9648,-6.0469,-6.1328,-6.1719,-6.1719,-6.1719,-6.1719,-6.1719,-6.1719,-6.1719,-6.1719,-6.1719,-6.1719,-6.1719,-6.3128,-6.3128,-6.2858,-6.2062,-6.1908,-6.1639,-6.0896,-6.0781,-6.0781,-6.0781,-6.0781,-6.0781,-6.0781,-6.0781,-6.0781,-6.0781,-6.0781,-6.0781,-6.0781,-6.0781,-6.0781,-6.0781,-6.0781,-6.0781,-6.0781,-6.0781,-6.0781,-6.0781,-6.0666,-6.0204,-5.9511,-5.9358,-5.8896,-5.8088,-5.8088,-5.7627,-5.6791,-5.6791,-5.6368,-5.5703,-5.5703,-5.5703,-5.5703,-5.5703,-5.5703,-5.5703,-5.5703,-5.5703,-5.5703,-5.5703,-5.5703,-5.5703,-5.5703,-5.5703,-5.5703,-5.5703,-5.5703,-5.5703,-5.5703,-5.5703,-5.5703,-5.5703,-5.5703,-5.5703,-5.5703,-5.5703,-5.5703,-5.5703,-5.5703,-5.5703,-5.5703,-5.5703,-5.6665,-5.955,-5.7588,-5.6703,-5.9588,-5.7511,-5.5703,-5.5703,-5.5703,-5.5703,-5.5703,-5.5703,-5.5742,-5.5895,-5.6029,-5.6172,-5.6375,-5.6484,-5.656,-5.6561,-5.6601,-5.6601,-5.6601,-5.6601,-5.6601,-5.6601,-5.6601,-5.707,-5.793,-5.8789,-5.9648,-6.0469,-6.1328,-6.1719,-6.1719,-6.1719,-6.1719,-6.1719,-6.1719,-6.1719,-6.1719,-6.1719,-6.1719,-6.1719,-6.4089,-6.4012,-6.3743,-6.2897,-6.2743,-6.2474,-6.1639,-6.1512,-6.132,-6.0858,-6.0781,-6.0781,-6.0781,-6.0781,-6.0781,-6.0781,-6.0781,-6.0781,-6.0781,-6.0781,-6.0781,-6.0781,-6.0781,-6.0781,-6.0781,-6.0781,-6.0781,-6.0781,-6.0781,-6.0589,-6.0204,-6.0204,-5.9742,-5.8934,-5.8934,-5.8473,-5.7703,-5.7703,-5.7203,-5.6406,-5.6406,-5.6126,-5.5703,-5.5703,-5.5703,-5.5703,-5.5703,-5.5703,-5.5703,-5.5703,-5.5703,-5.5703,-5.5703,-5.5703,-5.5703,-5.5703,-5.5703,-5.5703,-5.5703,-5.5703,-5.5703,-5.5703,-5.5703,-5.5703,-5.5703,-5.5703,-5.5703,-5.5703,-5.5703,-5.5703,-5.5703,-5.5703,-5.6203,-5.778,-5.6742,-5.6242,-5.7819,-5.6703,-5.5703,-5.5703,-5.5703,-5.5703,-5.5703,-5.5703,-5.5703,-5.5703,-5.575,-5.5891,-5.6181,-5.6251,-5.6383,-5.6601,-5.6601,-5.6601,-5.6601,-5.6601,-5.6601,-5.6601,-5.707,-5.7773,-5.8633,-5.9453,-6.0312,-6.1133,-6.1523,-6.1719,-6.1719,-6.1719,-6.1719,-6.1719,-6.1719,-6.1719,-6.1719,-6.1719,-6.1719,-6.1719,-6.5013,-6.4897,-6.4628,-6.3743,-6.3589,-6.332,-6.2512,-6.2216,-6.187,-6.1166,-6.0935,-6.0781,-6.0781,-6.0781,-6.0781,-6.0781,-6.0781,-6.0781,-6.0781,-6.0781,-6.0781,-6.0781,-6.0781,-6.0781,-6.0781,-6.0781,-6.0781,-6.0781,-6.0781,-6.0781,-6.0781,-6.0781,-6.0435,-5.9819,-5.9819,-5.9358,-5.8588,-5.8588,-5.7973,-5.6983,-5.6983,-5.6483,-5.5703,-5.5703,-5.5703,-5.5703,-5.5703,-5.5703,-5.5703,-5.5703,-5.5703,-5.5703,-5.5703,-5.5703,-5.5703,-5.5703,-5.5703,-5.5703,-5.5703,-5.5703,-5.5703,-5.5703,-5.5703,-5.5703,-5.5703,-5.5703,-5.5703,-5.5703,-5.5703,-5.5703,-5.5703,-5.5703,-5.5972,-5.6742,-5.6203,-5.5972,-5.678,-5.6203,-5.5703,-5.5703,-5.5703,-5.5703,-5.5703,-5.5703,-5.5703,-5.5703,-5.5703,-5.5864,-5.6175,-5.6191,-5.6305,-5.6601,-5.6601,-5.6601,-5.6601,-5.6601,-5.6601,-5.6601,-5.7461,-5.8359,-5.9219,-6.0039,-6.0898,-6.1719,-6.1719,-6.1719,-6.1719,-6.1719,-6.1719,-6.1719,-6.1719,-6.1719,-6.1719,-6.1719,-6.1719,-6.1719,-6.582,-6.5782,-6.5513,-6.4666,-6.4512,-6.4205,-6.3358,-6.2589,-6.2101,-6.2024,-6.1281,-6.0781,-6.0781,-6.0781,-6.0781,-6.0781,-6.0781,-6.0781,-6.0781,-6.0781,-6.0781,-6.0781,-6.0781,-6.0781,-6.0781,-6.0781,-6.0781,-6.0781,-6.0781,-6.0781,-6.0781,-6.0781,-6.0781,-6.0704,-6.0704,-6.0204,-5.9396,-5.9396,-5.8473,-5.6983,-5.6983,-5.6483,-5.5703,-5.5703,-5.5703,-5.5703,-5.5703,-5.5703,-5.5703,-5.5703,-5.5703,-5.5703,-5.5703,-5.5703,-5.5703,-5.5703,-5.5703,-5.5703,-5.5703,-5.5703,-5.5703,-5.5703,-5.5703,-5.5703,-5.5703,-5.5703,-5.5703,-5.5703,-5.5703,-5.5703,-5.5703,-5.5703,-5.6742,-5.9896,-5.778,-5.6819,-5.9973,-5.7703,-5.5703,-5.5703,-5.5703,-5.5703,-5.5703,-5.5703,-5.5703,-5.5703,-5.5703,-5.5864,-5.6175,-5.6191,-5.6305,-5.6601,-5.6601,-5.6601,-5.6601,-5.6601,-5.6601,-5.6601,-5.7461,-5.8359,-5.9219,-6.0039,-6.0898,-6.1719,-6.1719,-6.1719,-6.1719,-6.1719,-6.1719,-6.1719,-6.1719,-6.1719,-6.1719,-6.1719,-6.1719,-6.1719,-6.5897,-6.5897,-6.5782,-6.5474,-6.5397,-6.5128,-6.4243,-6.3397,-6.2666,-6.2178,-6.1331,-6.0781,-6.0781,-6.0781,-6.0781,-6.0781,-6.0781,-6.0781,-6.0781,-6.0781,-6.0781,-6.0781,-6.0781,-6.0781,-6.0781,-6.0781,-6.0781,-6.0781,-6.0781,-6.0781,-6.0781,-6.0781,-6.0781,-6.0781,-6.0781,-6.0627,-6.0281,-5.9742,-5.8858,-5.7742,-5.7214,-5.6483,-5.5703,-5.5703,-5.5703,-5.5703,-5.5703,-5.5703,-5.5703,-5.5703,-5.5703,-5.5703,-5.5703,-5.5703,-5.5703,-5.5703,-5.5703,-5.5703,-5.5703,-5.5703,-5.5703,-5.5703,-5.5703,-5.5703,-5.5703,-5.5703,-5.5703,-5.5703,-5.5703,-5.5703,-5.5703,-5.5703,-5.6126,-5.7434,-5.6549,-5.6165,-5.7434,-5.6511,-5.5703,-5.5703,-5.5703,-5.5703,-5.5703,-5.5703,-5.5703,-5.5703,-5.5703,-5.5789,-5.5984,-5.6222,-5.6397,-5.6601,-5.6601,-5.6601,-5.6601,-5.6601,-5.6875,-5.7422,-5.8281,-5.914,-5.9961,-6.082,-6.1406,-6.1719,-6.1719,-6.1719,-6.1719,-6.1719,-6.1719,-6.1719,-6.1719,-6.1719,-6.1719,-6.1719,-6.1719,-6.1679,-6.5897,-6.5897,-6.5897,-6.5897,-6.5897,-6.5705,-6.5089,-6.4282,-6.3397,-6.2589,-6.1743,-6.1089,-6.0819,-6.0781,-6.0781,-6.0781,-6.0781,-6.0781,-6.0781,-6.0781,-6.0781,-6.0781,-6.0781,-6.0781,-6.0781,-6.0781,-6.0781,-6.0781,-6.0781,-6.0781,-6.0781,-6.0781,-6.0781,-6.0781,-6.0781,-6.0781,-6.0742,-6.0165,-5.9281,-5.8242,-5.7665,-5.6703,-5.5703,-5.5703,-5.5703,-5.5703,-5.5703,-5.5703,-5.5703,-5.5703,-5.5703,-5.5703,-5.5703,-5.5703,-5.5703,-5.5703,-5.5703,-5.5703,-5.5703,-5.5703,-5.5703,-5.5703,-5.5703,-5.5703,-5.5703,-5.5703,-5.5703,-5.5703,-5.5703,-5.5703,-5.5703,-5.5703,-5.5703,-5.5703,-5.5703,-5.5703,-5.5703,-5.5703,-5.5703,-5.5703,-5.5703,-5.5703,-5.5703,-5.5703,-5.5703,-5.5703,-5.5703,-5.575,-5.5907,-5.6203,-5.645,-5.6518,-5.6835,-5.6992,-5.6992,-5.6992,-5.7305,-5.789,-5.9023,-5.9883,-6.043,-6.1289,-6.1719,-6.1719,-6.1719,-6.1719,-6.1719,-6.1719,-6.1719,-6.1719,-6.1719,-6.1719,-6.1719,-6.1719,-6.1679,-6.1632,-6.5897,-6.5897,-6.5897,-6.5897,-6.5897,-6.5897,-6.5897,-6.5166,-6.4282,-6.3423,-6.2589,-6.1793,-6.0896,-6.0781,-6.0781,-6.0781,-6.0781,-6.0781,-6.0781,-6.0781,-6.0781,-6.0781,-6.0781,-6.0781,-6.0781,-6.0781,-6.0781,-6.0781,-6.0781,-6.0781,-6.0781,-6.0781,-6.0781,-6.0781,-6.0781,-6.0781,-6.0781,-6.0781,-5.9819,-5.8319,-5.828,-5.7242,-5.5703,-5.5703,-5.5703,-5.5703,-5.5703,-5.5703,-5.5703,-5.5703,-5.5703,-5.5703,-5.5703,-5.5703,-5.5703,-5.5703,-5.5703,-5.5703,-5.5703,-5.5703,-5.5703,-5.5703,-5.5703,-5.5703,-5.5703,-5.5703,-5.5703,-5.5703,-5.5703,-5.5703,-5.5703,-5.5703,-5.5703,-5.5703,-5.5703,-5.5703,-5.5703,-5.5703,-5.5703,-5.5703,-5.5703,-5.5703,-5.5703,-5.5703,-5.5703,-5.5703,-5.5703,-5.575,-5.5907,-5.6203,-5.6389,-5.6428,-5.7376,-5.789,-5.789,-5.789,-5.789,-5.793,-5.9609,-6.039,-6.043,-6.1289,-6.1719,-6.1719,-6.1719,-6.1719,-6.1719,-6.1719,-6.1719,-6.1719,-6.1719,-6.1719,-6.1719,-6.1719,-6.1591,-6.1501,-6.5897,-6.5897,-6.5897,-6.5897,-6.5897,-6.5897,-6.5897,-6.5166,-6.4512,-6.4243,-6.2974,-6.1985,-6.1755,-6.1166,-6.0781,-6.0781,-6.0781,-6.0781,-6.0781,-6.0781,-6.0781,-6.0781,-6.0781,-6.0781,-6.0781,-6.0781,-6.0781,-6.0781,-6.0781,-6.0781,-6.0781,-6.0781,-6.0781,-6.0781,-6.0781,-6.0781,-6.0742,-6.0165,-5.9281,-5.8242,-5.7627,-5.6703,-5.5703,-5.5703,-5.5703,-5.5703,-5.5703,-5.5703,-5.5703,-5.5703,-5.5703,-5.5703,-5.5703,-5.5703,-5.5703,-5.5703,-5.5703,-5.5703,-5.5703,-5.5703,-5.5703,-5.5703,-5.5703,-5.5703,-5.5703,-5.5703,-5.5703,-5.5703,-5.5703,-5.5703,-5.5703,-5.5703,-5.5703,-5.5703,-5.5703,-5.5703,-5.5703,-5.5703,-5.5703,-5.5703,-5.5703,-5.5703,-5.5703,-5.5703,-5.5703,-5.5703,-5.5703,-5.575,-5.5907,-5.6113,-5.6562,-5.7286,-5.7688,-5.8203,-5.8828,-5.8828,-5.9101,-5.9648,-6.0156,-6.0703,-6.1328,-6.147,-6.1629,-6.168,-6.1587,-6.163,-6.1719,-6.1719,-6.1719,-6.1719,-6.1719,-6.1635,-6.1573,-6.1573,-6.1488,-6.1339,-6.5897,-6.5897,-6.5897,-6.5897,-6.5897,-6.5897,-6.5897,-6.5436,-6.4974,-6.4666,-6.3705,-6.2974,-6.2589,-6.2089,-6.1666,-6.132,-6.1012,-6.0781,-6.0781,-6.0781,-6.0781,-6.0781,-6.0781,-6.0781,-6.0781,-6.0781,-6.0781,-6.0781,-6.0781,-6.0781,-6.0781,-6.0781,-6.0781,-6.0781,-6.0781,-6.0781,-6.0781,-6.0242,-5.9358,-5.8242,-5.7742,-5.678,-5.5703,-5.5703,-5.5703,-5.5703,-5.5703,-5.5703,-5.5703,-5.5703,-5.5703,-5.5703,-5.5703,-5.5703,-5.5703,-5.5703,-5.5703,-5.5703,-5.5703,-5.5703,-5.5703,-5.5703,-5.5703,-5.5703,-5.5703,-5.5703,-5.5703,-5.5703,-5.5703,-5.5703,-5.5703,-5.5703,-5.5703,-5.5703,-5.5703,-5.5703,-5.5703,-5.5703,-5.5703,-5.5703,-5.5703,-5.5703,-5.5703,-5.5703,-5.5703,-5.5703,-5.5703,-5.575,-5.5907,-5.6382,-5.6996,-5.7677,-5.847,-5.914,-5.9687,-6.0039,-6.0273,-6.039,-6.0742,-6.1172,-6.1719,-6.1573,-6.1579,-6.168,-6.1573,-6.1579,-6.1719,-6.1719,-6.1678,-6.1631,-6.1631,-6.1525,-6.1409,-6.1409,-6.1328,-6.1172,-6.5897,-6.5897,-6.5897,-6.5897,-6.5897,-6.5897,-6.5897,-6.5897,-6.5628,-6.482,-6.4666,-6.432,-6.3512,-6.3346,-6.3012,-6.2293,-6.1396,-6.0858,-6.0819,-6.0781,-6.0781,-6.0781,-6.0781,-6.0781,-6.0781,-6.0781,-6.0781,-6.0781,-6.0781,-6.0781,-6.0781,-6.0781,-6.0781,-6.0781,-6.0781,-6.0781,-6.0781,-6.0781,-5.9858,-5.8396,-5.8319,-5.7319,-5.5818,-5.5742,-5.5703,-5.5703,-5.5703,-5.5703,-5.5703,-5.5703,-5.5703,-5.5703,-5.5703,-5.5703,-5.5703,-5.5703,-5.5703,-5.5703,-5.5703,-5.5703,-5.5703,-5.5703,-5.5703,-5.5703,-5.5703,-5.5703,-5.5703,-5.5703,-5.5703,-5.5703,-5.5703,-5.5703,-5.5703,-5.5703,-5.5703,-5.5703,-5.5703,-5.5703,-5.5703,-5.5703,-5.5703,-5.5703,-5.5703,-5.5703,-5.5703,-5.5703,-5.578,-5.5855,-5.5999,-5.6945,-5.7605,-5.7902,-5.9521,-6.0429,-6.0508,-6.1289,-6.1289,-6.0547,-6.1328,-6.168,-6.1679,-6.1571,-6.1575,-6.1679,-6.1529,-6.1579,-6.1719,-6.1679,-6.1629,-6.1504,-6.1495,-6.1392,-6.1265,-6.1265,-6.115,-6.1009,-6.5897,-6.5897,-6.5897,-6.5897,-6.5897,-6.5897,-6.5897,-6.5897,-6.582,-6.5628,-6.5013,-6.4551,-6.4359,-6.3705,-6.3243,-6.3051,-6.2281,-6.1524,-6.0819,-6.0781,-6.0781,-6.0781,-6.0781,-6.0781,-6.0781,-6.0781,-6.0781,-6.0781,-6.0781,-6.0781,-6.0781,-6.0781,-6.0781,-6.0781,-6.0781,-6.0781,-6.0781,-6.0781,-6.0204,-5.9165,-5.855,-5.7665,-5.6637,-5.5972,-5.5703,-5.5703,-5.5703,-5.5703,-5.5703,-5.5703,-5.5703,-5.5703,-5.5703,-5.5703,-5.5703,-5.5703,-5.5703,-5.5703,-5.5703,-5.5703,-5.5703,-5.5703,-5.5703,-5.5703,-5.5703,-5.5703,-5.5703,-5.5703,-5.5703,-5.5703,-5.5703,-5.5703,-5.5703,-5.5703,-5.5703,-5.5703,-5.5703,-5.5703,-5.5703,-5.5703,-5.5703,-5.5703,-5.5703,-5.5703,-5.5703,-5.5703,-5.6329,-5.6736,-5.676,-5.7731,-5.8641,-5.9469,-5.9967,-6.0607,-6.1406,-6.1601,-6.1601,-6.1406,-6.1601,-6.1636,-6.1525,-6.1509,-6.1512,-6.1525,-6.1509,-6.1579,-6.1679,-6.1582,-6.1517,-6.1498,-6.1373,-6.124,-6.1073,-6.1073,-6.0963,-6.1037,-6.5897,-6.5897,-6.5897,-6.5897,-6.5897,-6.5897,-6.5897,-6.5897,-6.5897,-6.5897,-6.5513,-6.5205,-6.5205,-6.482,-6.4359,-6.3974,-6.3166,-6.232,-6.1473,-6.1396,-6.1243,-6.0819,-6.0781,-6.0781,-6.0781,-6.0781,-6.0781,-6.0781,-6.0781,-6.0781,-6.0781,-6.0781,-6.0781,-6.0781,-6.0781,-6.0781,-6.0781,-6.0781,-6.0281,-5.9435,-5.8627,-5.778,-5.6907,-5.6011,-5.5703,-5.5703,-5.5703,-5.5703,-5.5703,-5.5703,-5.5703,-5.5703,-5.5703,-5.5703,-5.5703,-5.5703,-5.5703,-5.5703,-5.5703,-5.5703,-5.5703,-5.5703,-5.5703,-5.5703,-5.5703,-5.5703,-5.5703,-5.5703,-5.5703,-5.5703,-5.5703,-5.5703,-5.5703,-5.5703,-5.5703,-5.5703,-5.5703,-5.5703,-5.5703,-5.5703,-5.5703,-5.5703,-5.5703,-5.5703,-5.5857,-5.628,-5.6742,-5.7191,-5.7699,-5.8604,-5.9435,-6.0058,-6.0495,-6.1033,-6.168,-6.1579,-6.1525,-6.1588,-6.1588,-6.1522,-6.1396,-6.1396,-6.1424,-6.1504,-6.1504,-6.1579,-6.1679,-6.1571,-6.1478,-6.1383,-6.1234,-6.104,-6.0895,-6.0895,-6.1109,-6.1589,-6.5897,-6.5897,-6.5897,-6.5897,-6.5897,-6.5897,-6.5897,-6.5897,-6.5897,-6.5897,-6.5897,-6.5897,-6.5897,-6.5897,-6.5551,-6.4666,-6.3935,-6.3166,-6.237,-6.2178,-6.1793,-6.105,-6.0858,-6.0781,-6.0781,-6.0781,-6.0781,-6.0781,-6.0781,-6.0781,-6.0781,-6.0781,-6.0781,-6.0781,-6.0781,-6.0781,-6.0781,-6.0781,-6.0396,-5.9665,-5.8819,-5.7973,-5.7137,-5.6242,-5.5818,-5.5703,-5.5703,-5.5703,-5.5703,-5.5703,-5.5703,-5.5703,-5.5703,-5.5703,-5.5703,-5.5703,-5.5703,-5.5703,-5.5703,-5.5703,-5.5703,-5.5703,-5.5703,-5.5703,-5.5703,-5.5703,-5.5703,-5.5703,-5.5703,-5.5703,-5.5703,-5.5703,-5.5703,-5.5703,-5.5703,-5.5703,-5.5703,-5.5703,-5.5703,-5.5703,-5.5703,-5.5742,-5.5895,-5.5934,-5.628,-5.7154,-5.7357,-5.7772,-5.8633,-5.9502,-6.008,-6.0317,-6.0923,-6.1373,-6.1633,-6.14,-6.1334,-6.1417,-6.1435,-6.1396,-6.1289,-6.1312,-6.1387,-6.1504,-6.1504,-6.1573,-6.1638,-6.1462,-6.1359,-6.1227,-6.1031,-6.0884,-6.0819,-6.0973,-6.1485,-6.2255,-6.5897,-6.5897,-6.5897,-6.5897,-6.5897,-6.5897,-6.5897,-6.5897,-6.5897,-6.5897,-6.5897,-6.5897,-6.5897,-6.5897,-6.5551,-6.4666,-6.4474,-6.4051,-6.3205,-6.2474,-6.2062,-6.1947,-6.1204,-6.0781,-6.0781,-6.0781,-6.0781,-6.0781,-6.0781,-6.0781,-6.0781,-6.0781,-6.0781,-6.0781,-6.0781,-6.0781,-6.0781,-6.0781,-6.0742,-6.055,-5.9665,-5.8858,-5.805,-5.7165,-5.6368,-5.5703,-5.5703,-5.5703,-5.5703,-5.5703,-5.5703,-5.5703,-5.5703,-5.5703,-5.5703,-5.5703,-5.5703,-5.5703,-5.5703,-5.5703,-5.5703,-5.5703,-5.5703,-5.5703,-5.5703,-5.5703,-5.5703,-5.5703,-5.5703,-5.5703,-5.5703,-5.5703,-5.5703,-5.5703,-5.5703,-5.5703,-5.5703,-5.5703,-5.5703,-5.5703,-5.5703,-5.6011,-5.6753,-5.683,-5.7203,-5.805,-5.8781,-5.9215,-5.9375,-6.0195,-6.073,-6.0887,-6.0987,-6.1158,-6.1344,-6.1306,-6.1227,-6.105,-6.1253,-6.1306,-6.1289,-6.1409,-6.1491,-6.1504,-6.1504,-6.1509,-6.1507,-6.1201,-6.1073,-6.1023,-6.0882,-6.0827,-6.0896,-6.1639,-6.1985,-6.2332,-6.5897,-6.5897,-6.5897,-6.5897,-6.5897,-6.5897,-6.5897,-6.5897,-6.5897,-6.5897,-6.5897,-6.5897,-6.5897,-6.5897,-6.5743,-6.5359,-6.532,-6.4974,-6.4089,-6.3705,-6.3089,-6.2139,-6.1716,-6.1281,-6.0819,-6.0781,-6.0781,-6.0781,-6.0781,-6.0781,-6.0781,-6.0781,-6.0781,-6.0781,-6.0781,-6.0781,-6.0781,-6.0781,-6.0781,-6.0704,-5.9858,-5.9011,-5.8204,-5.7319,-5.6483,-5.5703,-5.5703,-5.5703,-5.5703,-5.5703,-5.5703,-5.5703,-5.5703,-5.5703,-5.5703,-5.5703,-5.5703,-5.5703,-5.5703,-5.5703,-5.5703,-5.5703,-5.5703,-5.5703,-5.5703,-5.5703,-5.5703,-5.5703,-5.5703,-5.5703,-5.5703,-5.5703,-5.5703,-5.5703,-5.5703,-5.5703,-5.5703,-5.5703,-5.5703,-5.5703,-5.6126,-5.6599,-5.6945,-5.7434,-5.8088,-5.8896,-5.9319,-5.9704,-6.0204,-6.0589,-6.085,-6.0997,-6.0945,-6.1018,-6.1283,-6.112,-6.1009,-6.1006,-6.1097,-6.1143,-6.115,-6.1396,-6.1478,-6.1383,-6.1481,-6.1474,-6.1364,-6.1128,-6.0997,-6.0979,-6.0867,-6.1089,-6.1562,-6.1947,-6.2666,-6.3589]},{"header":{"parameterUnit":"m.s-1","parameterCategory":1,"la1":30.6,"la2":28.766,"lo1":-90.7593,"lo2":-88.6598,"dx":0.0162,"dy":0.0183,"nx":116,"ny":114,"refTime":"2023-01-08T06:00:00:Z","depth":0,"parameterNumber":3,"parameterNumberName":"V-component_of_WINDS"},"data":[0.0,0.0,0.0,0.0,0.0,0.0,0.0,0.0,0.0,0.0,0.0,0.0,0.0,0.0,0.0,0.0,0.0,0.0,0.0,0.0,0.0,0.0,0.0,0.0,0.0,0.0,0.0,0.0,0.0,0.0,0.0,0.0,0.0,0.0,0.0,0.0,0.0,0.0,0.0,0.0,0.0,0.0,0.0,0.0,0.0,0.0,0.0,0.0,0.0,0.0,0.0,0.0,0.0,0.0,0.0,0.0,0.0,0.0,0.0,0.0,0.0,0.0,0.0,0.0,0.0,0.0,0.0,0.0,0.0,0.0,0.0,0.0,0.0,0.0,0.0,0.0,0.0,0.0,0.0,0.0,0.0,0.0,0.0,0.0,0.0,0.0,0.0,0.0,0.0,0.0,0.0,0.0,0.0,0.0,0.0,0.0,0.0,0.0,0.0,0.0,0.0,0.0,0.0,0.0,0.0,0.0,0.0,0.0,0.0,0.0,0.0,0.0,0.0,0.0,0.0,0.0,0.0,0.0,0.0,0.0,0.0,0.0,0.0,0.0,0.0,0.0,0.0,0.0,0.0,0.0,0.0,0.0,0.0,0.0,0.0,0.0,0.0,0.0,0.0,0.0,0.0,0.0,0.0,0.0,0.0,0.0,0.0,0.0,0.0,0.0,0.0,0.0,0.0,0.0,0.0,0.0,0.0,0.0,0.0,0.0,0.0,0.0,0.0,0.0,0.0,0.0,0.0,0.0,0.0,0.0,0.0,0.0,0.0,0.0,0.0,0.0,0.0,0.0,0.0,0.0,0.0,0.0,0.0,0.0,0.0,0.0,0.0,0.0,0.0,0.0,0.0,0.0,0.0,0.0,0.0,0.0,0.0,0.0,0.0,0.0,0.0,0.0,0.0,0.0,0.0,0.0,0.0,0.0,0.0,0.0,0.0,0.0,0.0,0.0,0.0,0.0,0.0,0.0,0.0,0.0,0.0,0.0,0.0,0.0,0.0,0.0,0.0,0.0,0.0,0.0,0.0,0.0,0.0,0.0,0.0,0.0,0.0,0.0,0.0,0.0,0.0,0.0,0.0,0.0,0.0,0.0,0.0,0.0,0.0,0.0,0.0,0.0,0.0,0.0,0.0,0.0,0.0,0.0,0.0,0.0,0.0,0.0,0.0,0.0,0.0,0.0,0.0,0.0,0.0,0.0,0.0,0.0,0.0,0.0,0.0,0.0,0.0,0.0,0.0,0.0,0.0,0.0,0.0,0.0,0.0,0.0,0.0,0.0,0.0,0.0,0.0,0.0,0.0,0.0,0.0,0.0,0.0,0.0,0.0,0.0,0.0,0.0,0.0,0.0,0.0,0.0,0.0,0.0,0.0,0.0,0.0,0.0,0.0,0.0,0.0,0.0,0.0,0.0,0.0,0.0,0.0,0.0,0.0,0.0,0.0,0.0,0.0,0.0,0.0,0.0,0.0,0.0,0.0,0.0,0.0,0.0,0.0,0.0,0.0,0.0,0.0,0.0,0.0,0.0,0.0,0.0,0.0,0.0,0.0,0.0,0.0,0.0,0.0,0.0,0.0,0.0,0.0,0.0,0.0,0.0,0.0,0.0,0.0,0.0,0.0,0.0,0.0,0.0,0.0,0.0,0.0,0.0,0.0,0.0,0.0,0.0,0.0,0.0,0.0,0.0,0.0,0.0,0.0,0.0,0.0,0.0,0.0,0.0,0.0,0.0,0.0,0.0,0.0,0.0,0.0,0.0,0.0,0.0,0.0,0.0,0.0,0.0,0.0,0.0,0.0,0.0,0.0,0.0,0.0,0.0,0.0,0.0,0.0,0.0,0.0,0.0,0.0,0.0,0.0,0.0,0.0,0.0,0.0,0.0,0.0,0.0,0.0,0.0,0.0,0.0,0.0,0.0,0.0,0.0,0.0,0.0,0.0,0.0,0.0,0.0,0.0,0.0,0.0,0.0,0.0,0.0,0.0,0.0,0.0,0.0,0.0,0.0,0.0,0.0,0.0,0.0,0.0,0.0,0.0,0.0,0.0,0.0,0.0,0.0,0.0,0.0,0.0,0.0,0.0,0.0,0.0,0.0,0.0,0.0,0.0,0.0,0.0,0.0,0.0,0.0,0.0,0.0,0.0,0.0,0.0,0.0,0.0,0.0,0.0,0.0,0.0,0.0,0.0,0.0,0.0,0.0,0.0,0.0,0.0,0.0,0.0,0.0,0.0,0.0,0.0,0.0,0.0,0.0,0.0,0.0,0.0,0.0,0.0,0.0,0.0,0.0,0.0,0.0,0.0,0.0,0.0,0.0,0.0,0.0,0.0,0.0,0.0,0.0,0.0,0.0,0.0,0.0,0.0,0.0,0.0,0.0,0.0,0.0,0.0,0.0,0.0,0.0,0.0,0.0,0.0,0.0,0.0,0.0,0.0,0.0,0.0,0.0,0.0,0.0,0.0,0.0,0.0,0.0,0.0,0.0,0.0,0.0,0.0,0.0,0.0,0.0,0.0,0.0,0.0,0.0,0.0,0.0,0.0,0.0,0.0,0.0,0.0,0.0,0.0,0.0,0.0,0.0,0.0,0.0,0.0,0.0,0.0,0.0,0.0,0.0,0.0,0.0,0.0,0.0,0.0,0.0,0.0,0.0,0.0,0.0,0.0,0.0,0.0,0.0,0.0,0.0,0.0,0.0,0.0,0.0,0.0,0.0,0.0,0.0,0.0,0.0,0.0,0.0,0.0,0.0,0.0,0.0,0.0,0.0,0.0,0.0,0.0,0.0,0.0,0.0,0.0,0.0,0.0,0.0,0.0,0.0,0.0,0.0,0.0,0.0,0.0,0.0,0.0,0.0,0.0,0.0,0.0,0.0,0.0,0.0,0.0,0.0,0.0,0.0,0.0,0.0,0.0,0.0,0.0,0.0,0.0,0.0,0.0,0.0,0.0,0.0,0.0,0.0,0.0,0.0,0.0,0.0,0.0,0.0,0.0,0.0,0.0,0.0,0.0,0.0,0.0,0.0,0.0,0.0,0.0,0.0,0.0,0.0,0.0,0.0,0.0,0.0,0.0,0.0,0.0,0.0,0.0,0.0,0.0,0.0,0.0,0.0,0.0,0.0,0.0,0.0,0.0,0.0,0.0,0.0,0.0,0.0,0.0,0.0,0.0,0.0,0.0,0.0,0.0,0.0,0.0,0.0,0.0,0.0,0.0,0.0,0.0,0.0,0.0,0.0,0.0,0.0,0.0,0.0,0.0,0.0,0.0,0.0,0.0,0.0,0.0,0.0,0.0,0.0,0.0,0.0,0.0,0.0,0.0,0.0,0.0,0.0,0.0,0.0,0.0,0.0,0.0,0.0,0.0,0.0,0.0,0.0,0.0,0.0,0.0,0.0,0.0,0.0,0.0,0.0,0.0,0.0,0.0,0.0,0.0,0.0,0.0,0.0,0.0,0.0,0.0,0.0,0.0,0.0,0.0,0.0,0.0,0.0,0.0,0.0,0.0,0.0,0.0,0.0,0.0,0.0,0.0,0.0,0.0,0.0,0.0,0.0,0.0,0.0,0.0,0.0,0.0,0.0,0.0,0.0,0.0,0.0,0.0,0.0,0.0,0.0,0.0,0.0,0.0,0.0,0.0,0.0,0.0,0.0,0.0,0.0,0.0,0.0,0.0,0.0,0.0,0.0,0.0,0.0,0.0,0.0,0.0,0.0,0.0,0.0,0.0,0.0,0.0,0.0,0.0,0.0,0.0,0.0,0.0,0.0,0.0,0.0,0.0,0.0,0.0,0.0,0.0,0.0,0.0,0.0,0.0,0.0,0.0,0.0,0.0,0.0,0.0,0.0,0.0,0.0,0.0,0.0,0.0,0.0,0.0,0.0,0.0,0.0,0.0,0.0,0.0,0.0,0.0,0.0,0.0,0.0,0.0,0.0,0.0,0.0,0.0,0.0,0.0,0.0,0.0,0.0,0.0,0.0,0.0,0.0,0.0,0.0,0.0,0.0,0.0,0.0,0.0,0.0,0.0,0.0,0.0,0.0,0.0,0.0,0.0,0.0,0.0,0.0,0.0,0.0,0.0,0.0,0.0,0.0,0.0,0.0,0.0,0.0,0.0,0.0,0.0,0.0,0.0,0.0,0.0,0.0,0.0,0.0,0.0,0.0,0.0,0.0,0.0,0.0,0.0,0.0,0.0,0.0,0.0,0.0,0.0,0.0,0.0,0.0,0.0,0.0,0.0,0.0,0.0,0.0,0.0,0.0,0.0,0.0,0.0,0.0,0.0,0.0,0.0,0.0,0.0,0.0,0.0,0.0,0.0,0.0,0.0,0.0,0.0,0.0,0.0,0.0,0.0,0.0,0.0,0.0,0.0,0.0,0.0,0.0,0.0,0.0,0.0,0.0,0.0,0.0,0.0,0.0,0.0,0.0,0.0,0.0,0.0,0.0,0.0,0.0,0.0,0.0,0.0,0.0,0.0,0.0,0.0,0.0,0.0,0.0,0.0,0.0,0.0,0.0,0.0,0.0,0.0,0.0,0.0,0.0,0.0,0.0,0.0,0.0,0.0,0.0,0.0,0.0,0.0,0.0,0.0,0.0,0.0,0.0,0.0,0.0,0.0,0.0,0.0,0.0,0.0,0.0,0.0,0.0,0.0,0.0,0.0,0.0,0.0,0.0,0.0,0.0,0.0,0.0,0.0,0.0,0.0,0.0,0.0,0.0,0.0,0.0,0.0,0.0,0.0,0.0,0.0,0.0,0.0,0.0,0.0,0.0,0.0,0.0,0.0,0.0,0.0,0.0,0.0,0.0,0.0,0.0,0.0,0.0,0.0,0.0,0.0,0.0,0.0,0.0,0.0,0.0,0.0,0.0,0.0,0.0,0.0,0.0,0.0,0.0,0.0,0.0,0.0,0.0,0.0,0.0,0.0,0.0,0.0,0.0,0.0,0.0,0.0,0.0,0.0,0.0,0.0,0.0,0.0,0.0,0.0,0.0,0.0,0.0,0.0,0.0,0.0,0.0,0.0,0.0,0.0,0.0,0.0,0.0,0.0,0.0,0.0,0.0,0.0,0.0,0.0,0.0,0.0,0.0,0.0,0.0,0.0,0.0,0.0,0.0,0.0,0.0,0.0,0.0,0.0,0.0,0.0,0.0,0.0,0.0,0.0,0.0,0.0,0.0,0.0,0.0,0.0,0.0,0.0,0.0,0.0,0.0,0.0,0.0,0.0,0.0,0.0,0.0,0.0,0.0,0.0,0.0,0.0,0.0,0.0,0.0,0.0,0.0,0.0,0.0,0.0,0.0,0.0,0.0,0.0,0.0,0.0,0.0,0.0,0.0,0.0,0.0,0.0,0.0,0.0,0.0,0.0,0.0,0.0,0.0,0.0,0.0,0.0,0.0,0.0,0.0,0.0,0.0,0.0,0.0,0.0,0.0,0.0,0.0,0.0,0.0,0.0,0.0,0.0,0.0,0.0,0.0,0.0,0.0,0.0,0.0,0.0,0.0,0.0,0.0,0.0,0.0,0.0,0.0,0.0,0.0,0.0,0.0,0.0,0.0,0.0,0.0,0.0,0.0,0.0,0.0,0.0,0.0,0.0,0.0,0.0,0.0,0.0,0.0,0.0,0.0,0.0,0.0,0.0,0.0,0.0,0.0,0.0,0.0,0.0,0.0,0.0,0.0,0.0,0.0,0.0,0.0,0.0,0.0,0.0,0.0,0.0,0.0,0.0,0.0,0.0,0.0,0.0,0.0,0.0,0.0,0.0,0.0,0.0,0.0,0.0,0.0,0.0,0.0,0.0,0.0,0.0,0.0,0.0,0.0,0.0,0.0,0.0,0.0,0.0,0.0,0.0,0.0,0.0,0.0,0.0,0.0,0.0,0.0,0.0,0.0,0.0,0.0,0.0,0.0,0.0,0.0,0.0,0.0,0.0,0.0,0.0,0.0,0.0,0.0,0.0,0.0,0.0,0.0,0.0,0.0,0.0,0.0,0.0,0.0,0.0,0.0,0.0,0.0,0.0,0.0,0.0,0.0,0.0,0.0,0.0,0.0,0.0,0.0,0.0,0.0,0.0,0.0,0.0,0.0,0.0,0.0,0.0,0.0,1.3293,1.2556,0.0,0.0,0.0,0.0,0.0,0.0,0.0,0.0,0.0,0.0,0.0,0.0,0.0,0.0,0.0,0.0,0.0,0.0,0.0,0.0,0.0,0.0,0.0,0.4741,0.4755,0.4687,0.468,0.0,0.0,0.0,0.0,0.0,0.0,0.0,0.0,0.0,0.7532,0.915,0.9561,1.0218,1.1082,1.0751,1.0792,1.1176,0.0,0.0,0.0,0.0,0.0,0.0,0.0,0.0,0.0,0.0,0.0,0.0,0.0,0.0,0.0,0.0,0.0,0.0,0.0,0.0,0.0,0.0,0.0,0.0,0.0,0.0,0.0,0.0,0.0,0.0,0.0,0.0,0.0,0.0,0.0,0.0,0.0,0.0,0.0,0.0,0.0,0.0,0.0,0.0,0.0,0.0,0.0,0.0,0.0,0.0,0.0,0.0,0.0,0.0,0.0,0.0,0.0,0.0,0.0,0.0,0.0,0.0,0.0,0.0,0.0,0.0,0.0,0.0,0.0,0.0,1.4242,1.352,0.0,0.0,0.0,0.0,0.0,0.0,0.0,0.0,0.0,0.0,0.0,0.0,0.0,0.0,0.0,0.0,0.0,0.0,0.0,0.0,0.0,0.4931,0.4975,0.5042,0.5063,0.5006,0.4952,0.4938,0.4992,0.4941,0.0,0.0,0.0,0.0,0.0,0.6354,0.7563,0.9781,1.0444,1.1027,1.1444,1.1447,1.1834,1.245,1.1575,0.0,0.0,0.0,0.0,0.0,0.0,0.0,0.0,0.0,0.0,0.0,0.0,0.0,0.0,0.0,0.0,0.0,0.0,0.0,0.0,0.0,0.0,0.0,0.0,0.0,0.0,0.0,0.0,0.0,0.0,0.0,0.0,0.0,0.0,0.0,0.0,0.0,0.0,0.0,0.0,0.0,0.0,0.0,0.0,0.0,0.0,0.0,0.0,0.0,0.0,0.0,0.0,0.0,0.0,0.0,0.0,0.0,0.0,0.0,0.0,0.0,0.0,0.0,1.6112,1.6259,1.6549,1.6246,1.6273,1.6496,1.5418,1.4723,1.4295,1.4001,0.0,0.0,0.0,0.0,0.0,0.0,0.0,0.0,0.0,0.0,0.0,0.0,0.0,0.0,0.0,0.0,0.0,0.0,0.0,0.4455,0.5239,0.5203,0.5176,0.5324,0.5067,0.5026,0.5317,0.5176,0.0,0.0,0.0,0.0,0.6619,0.6754,0.7887,1.0053,1.1055,1.1873,1.2406,1.1643,1.1339,1.1299,1.0522,0.9955,0.9548,0.0,0.0,0.0,0.0,0.0,0.0,0.0,0.0,0.0,0.0,0.0,0.0,0.0,0.0,0.0,0.0,0.0,0.0,0.0,0.0,0.0,0.0,0.0,0.0,0.0,0.0,0.0,0.0,0.0,0.0,0.0,0.0,0.0,0.0,0.0,0.0,0.0,0.0,0.0,0.0,0.0,1.2305,1.269,0.0,0.0,0.0,0.0,0.0,0.0,0.0,0.0,0.0,0.0,0.0,0.0,0.0,1.5778,1.6046,1.6366,1.6687,1.7032,1.7235,1.7368,1.7408,1.7368,1.7368,1.7382,1.7032,0.0,1.5204,1.491,0.0,0.0,0.0,0.0,0.0,0.0,0.0,0.0,0.0,0.0,0.0,0.0,0.0,0.0,0.0,0.0,0.0,0.0,0.0,0.0,0.0,0.5705,0.5759,0.5739,0.5698,0.5691,0.5732,0.5636,0.0,0.0,0.0,0.6115,0.6184,0.6316,0.745,0.9645,1.0674,1.1237,1.1347,1.0897,1.0735,1.0833,1.0632,1.063,1.0888,1.1042,0.0,0.0,0.0,0.0,0.0,0.0,0.0,0.0,0.0,0.0,0.0,0.0,0.0,0.0,0.0,0.0,0.0,0.0,0.0,0.0,0.0,0.0,0.0,0.0,0.0,0.0,0.0,0.0,0.0,0.0,0.0,0.0,0.0,0.0,0.0,0.0,0.0,0.0,0.0,1.2721,1.3106,1.3936,1.3961,1.4068,0.0,0.0,0.0,0.0,0.0,0.0,0.0,0.0,0.0,1.6126,1.642,1.6794,1.7248,1.7382,1.7609,1.7903,1.8036,1.809,1.809,1.809,1.809,1.809,1.7956,1.7515,1.682,1.6032,1.5618,1.5471,0.0,0.0,0.0,0.0,1.4389,1.4349,0.0,0.0,0.0,0.0,0.0,0.0,0.0,0.0,0.0,0.0,0.0,0.0,0.5782,0.6197,0.6306,0.6152,0.6213,0.6286,0.6168,0.6166,0.6112,0.6037,0.603,0.5996,0.5922,0.6442,0.7591,0.9437,1.0184,1.0565,1.0462,1.0095,1.0081,1.0339,1.0471,1.1147,1.2282,1.2275,1.2795,1.3681,0.0,0.0,0.0,0.0,0.0,0.0,0.0,0.0,0.0,0.0,0.0,0.0,0.0,0.0,0.0,0.0,0.0,0.0,0.0,0.0,0.0,0.0,0.0,0.0,0.0,0.0,0.0,0.0,0.0,0.0,0.0,0.0,0.0,0.0,0.0,0.0,0.0,1.3761,1.4095,1.5022,1.5017,1.5057,0.0,0.0,0.0,0.0,0.0,0.0,1.6152,1.6526,1.682,1.7034,1.7341,1.7702,1.813,1.8169,1.8384,1.8597,1.8677,1.8718,1.8718,1.8718,1.8718,1.8704,1.8637,1.8477,1.8129,1.7141,1.6673,1.658,1.6286,1.6032,1.5792,1.5351,1.5177,1.5137,0.0,0.0,0.0,0.0,0.0,0.0,0.0,0.0,0.0,0.0,0.0,0.4089,0.6079,0.6409,0.6497,0.6491,0.6375,0.6416,0.6647,0.6532,0.6512,0.6647,0.6654,0.6525,0.6279,0.7796,0.8972,0.9784,0.9954,1.0279,1.067,0.9702,0.9229,0.9293,0.9394,1.0698,1.2831,1.3505,1.3826,1.3886,1.4004,0.0,0.0,0.0,0.0,0.0,0.0,0.0,0.0,0.0,0.0,0.0,0.0,0.0,0.0,0.0,0.0,0.0,0.0,0.0,0.0,0.0,0.0,0.0,0.0,0.0,0.0,0.0,0.0,0.0,0.0,0.0,0.0,0.0,0.0,0.0,0.0,0.0,0.0,1.5364,1.5858,0.0,0.0,0.0,0.0,1.6633,1.6951,1.7125,1.7139,1.7635,1.7902,1.7943,1.8263,1.8437,1.8464,1.8744,1.8891,1.8905,1.9185,1.9319,1.9319,1.9319,1.9319,1.9363,1.9025,1.8891,1.8824,1.8183,1.7769,1.7488,1.7246,1.7125,1.7005,1.6099,1.5744,1.5698,0.0,0.0,0.0,0.0,0.0,0.0,0.0,0.0,0.0761,0.2821,0.314,0.4003,0.6185,0.6532,0.6661,0.6756,0.6803,0.6831,0.6844,0.6885,0.6844,0.6709,0.6885,0.7027,0.7122,0.7769,0.8402,0.8947,0.9328,0.9596,0.9878,0.9676,1.0111,1.0981,1.1043,1.2037,1.3672,1.3582,1.447,1.5995,1.5663,1.5044,0.0,0.0,0.0,0.0,0.0,0.0,0.0,0.0,0.0,0.0,0.0,0.0,0.0,0.0,0.0,0.0,0.0,0.0,0.0,0.0,0.0,0.0,0.0,0.0,0.0,0.0,0.0,0.0,0.0,0.0,0.0,0.0,0.0,0.0,0.0,0.0,0.0,1.6509,1.6764,0.0,1.7101,1.7208,1.7341,1.7528,1.7662,1.7809,1.805,1.8223,1.841,1.8597,1.8704,1.8865,1.9052,1.9158,1.9212,1.9212,1.9319,1.943,1.943,1.943,1.943,1.9417,1.9252,1.9212,1.9199,1.8971,1.8597,1.8143,1.7836,1.7609,1.742,1.6911,1.6553,1.6366,0.0,0.0,0.0,0.0,0.0,0.0,0.0,0.0,0.0781,0.293,0.3256,0.4116,0.6402,0.6803,0.6966,0.7068,0.721,0.7213,0.7163,0.72,0.721,0.7014,0.719,0.7434,0.774,0.7889,0.8187,0.8635,0.9035,0.9334,0.9537,0.9836,1.0486,1.151,1.151,1.2311,1.3737,1.3296,1.4555,1.6825,1.6253,1.5771,1.5337,0.0,0.0,0.0,0.0,0.0,0.0,0.0,0.0,0.0,0.0,0.0,0.0,0.0,0.0,0.0,0.0,0.0,0.0,0.0,0.0,0.0,0.0,0.0,0.0,0.0,0.0,0.0,0.0,0.0,0.0,0.0,0.0,0.0,0.0,0.0,1.6607,1.7139,1.7474,1.7728,1.7876,1.7889,1.7969,1.8156,1.8222,1.8368,1.8624,1.8731,1.8878,1.9065,1.9078,1.9172,1.9417,1.943,1.943,1.943,1.943,1.943,1.943,1.943,1.943,1.943,1.943,1.943,1.943,1.943,1.9132,1.8758,1.845,1.8156,1.7836,1.7501,1.7166,1.6847,0.0,0.0,0.0,0.0,0.0,0.0,0.0,0.0,0.0801,0.3041,0.3502,0.4433,0.6612,0.719,0.7412,0.7426,0.7516,0.7597,0.7597,0.7604,0.7611,0.7624,0.7624,0.776,0.8002,0.8214,0.8506,0.8892,0.9252,0.9551,0.9836,1.0148,1.0365,1.05,1.05,1.1394,1.2789,1.267,1.399,1.6126,1.5601,1.6065,1.6983,0.0,0.0,0.0,0.0,0.0,0.0,0.0,0.0,0.0,0.0,0.0,0.0,0.0,0.0,0.0,0.0,0.0,0.0,0.0,0.0,0.0,0.0,0.0,0.0,0.0,0.0,0.0,0.0,0.0,0.0,0.0,0.0,0.0,1.5498,1.6687,1.7488,1.7286,1.8023,1.8504,1.8517,1.8517,1.8517,1.8517,1.8784,1.8945,1.8945,1.9212,1.943,1.9386,1.9386,1.9444,1.9399,1.9444,1.9386,1.9386,1.943,1.943,1.943,1.943,1.943,1.943,1.943,1.943,1.943,1.943,1.943,1.939,1.9038,1.8744,1.8424,1.7822,1.746,1.7179,0.0,0.0,0.0,0.0,0.0,0.0,0.0,0.0,0.0499,0.1918,0.288,0.4047,0.5638,0.6618,0.7292,0.7516,0.7577,0.7597,0.7597,0.7699,0.7855,0.8079,0.8085,0.8221,0.852,0.8676,0.8866,0.9096,0.9612,0.9849,0.993,1.0405,1.0622,1.0656,1.0656,1.092,1.1308,1.1257,1.2242,1.3874,1.444,1.5031,1.5587,0.0,0.0,0.0,0.0,0.0,0.0,0.0,0.0,0.0,0.0,0.0,0.0,0.0,0.0,0.0,0.0,0.0,0.0,0.0,0.0,0.0,0.0,0.0,0.0,0.0,0.0,0.0,0.0,0.0,0.0,0.0,0.0,1.6884,1.6967,1.7328,1.7796,1.837,1.8651,1.8891,1.9105,1.9132,1.9132,1.9132,1.9199,1.9239,1.9239,1.9319,1.9466,1.9679,1.9679,1.9786,1.9987,1.9786,1.9679,1.9679,1.9466,1.943,1.943,1.943,1.943,1.943,1.943,1.943,1.943,1.943,1.943,1.939,1.9038,1.8744,1.8437,1.8063,1.7729,1.7501,0.0,0.0,0.0,0.0,0.0,0.0,0.0,0.0,0.0391,0.1556,0.2753,0.4004,0.535,0.6563,0.7428,0.7665,0.7746,0.7787,0.7787,0.7923,0.8113,0.835,0.8418,0.8567,0.8804,0.8954,0.9157,0.9435,0.9849,1.0051,1.0243,1.0568,1.0717,1.0717,1.0717,1.0717,1.0717,1.0717,1.119,1.203,1.2515,1.3504,1.4721,1.4407,1.4241,1.4217,1.4004,1.3755,1.3588,1.3882,0.0,0.0,0.0,0.0,0.0,0.0,0.0,0.0,0.0,0.0,0.0,0.0,0.0,0.0,0.0,0.0,0.0,0.0,0.0,0.0,0.0,0.0,0.0,0.0,1.7192,1.7527,1.7903,1.7969,1.8156,1.8677,1.8958,1.9185,1.9403,1.943,1.943,1.943,1.943,1.9426,1.9546,1.9666,1.9813,1.9973,2.0107,2.0187,2.0167,2.0067,1.9987,1.9987,1.9813,1.9733,1.972,1.9599,1.9546,1.9546,1.9426,1.943,1.943,1.943,1.943,0.0,0.0,0.0,0.0,0.0,1.7729,1.7582,0.0,0.0,0.0,0.0,0.0,0.0,0.0,0.0,0.0399,0.146,0.2771,0.4093,0.5264,0.6712,0.7658,0.7801,0.7887,0.7982,0.8015,0.8208,0.8357,0.8499,0.8669,0.8825,0.8905,0.9123,0.9408,0.9822,0.993,1.0215,1.0493,1.0649,1.0717,1.0717,1.0717,1.0717,1.0717,1.0717,1.0717,1.0697,1.0399,1.1829,1.4084,1.3524,1.3078,1.2654,1.2208,1.1883,1.1816,1.28,0.0,0.0,0.0,0.0,0.0,0.0,0.0,0.0,0.0,0.0,0.0,0.0,0.0,0.0,0.0,0.0,0.0,0.0,0.0,0.0,0.0,0.0,0.0,0.0,1.7462,1.7849,1.845,1.8544,1.8557,1.8584,1.9052,1.943,1.943,1.943,1.943,1.943,1.9457,1.9533,1.9786,0.0,0.0,0.0,0.0,2.0561,2.0273,2.0294,2.0281,2.0281,2.0254,2.0167,2.0167,1.996,1.9826,1.9786,1.9533,1.9457,1.943,1.943,1.9403,1.9319,1.9336,1.8931,1.837,1.7796,1.7582,1.7582,0.0,0.0,0.0,0.0,0.0,0.0,0.0,0.0,0.008,0.0335,0.234,0.3853,0.4124,0.6235,0.7658,0.7801,0.7834,0.7963,0.8208,0.8364,0.8506,0.8662,0.8927,0.9139,0.9166,0.9381,0.9618,0.9822,1.01,1.0324,1.0493,1.0649,1.0717,1.0717,1.0717,1.0717,1.0717,1.0717,1.0717,1.0697,1.0399,1.122,1.2569,1.2283,1.2559,1.3182,1.3158,1.2989,1.2717,1.2853,1.2679,1.2384,1.2017,1.2727,0.0,0.0,0.0,0.0,0.0,0.0,0.0,0.0,0.0,0.0,0.0,0.0,0.0,0.0,0.0,0.0,0.0,0.0,0.0,1.7809,1.7862,1.8102,1.8758,1.8838,1.8931,1.9172,1.935,1.943,1.943,1.943,1.943,1.943,1.9586,1.9746,1.98,2.0067,2.0347,2.0588,2.0641,2.0762,2.0935,2.0708,2.0588,2.0588,0.0,0.0,2.0227,2.0174,2.0013,1.98,1.9746,1.9586,1.943,1.943,1.9225,1.8985,1.8758,1.845,1.8035,1.7716,1.7582,1.7582,0.0,0.0,0.0,0.0,0.0,0.0,0.0,0.0,0.0,0.0,0.1625,0.281,0.2803,0.5094,0.6669,0.6768,0.7495,0.8052,0.8357,0.8445,0.8581,0.8811,0.9035,0.9248,0.9323,0.949,0.9754,1.0053,1.0202,1.0392,1.0609,1.0683,1.0717,1.0717,1.0717,1.0717,1.0717,1.0717,1.0717,1.0697,1.0399,1.0672,1.123,1.0816,1.102,1.1478,1.1444,1.1293,1.1156,1.1666,1.1744,1.149,1.1289,1.2362,1.3502,0.0,0.0,0.0,0.0,0.0,0.0,0.0,0.0,0.0,0.0,0.0,0.0,0.0,0.0,1.7021,0.0,0.0,1.7916,1.8223,1.8342,1.8528,1.8878,1.9052,1.9199,1.9403,1.943,1.943,1.943,1.9492,1.9586,1.9586,1.9853,2.008,2.0227,2.0508,2.0735,2.0882,2.1042,2.1109,2.1109,2.0962,2.0895,2.0895,2.0735,2.0668,2.0668,2.0521,2.0374,2.0227,1.9933,1.9639,1.9403,1.9052,1.8758,1.8422,1.833,1.8183,1.7955,1.7702,1.7582,1.7582,0.0,0.0,0.0,0.0,0.0,0.0,0.0,0.0,0.0,0.0,0.1059,0.182,0.1802,0.409,0.5756,0.6065,0.7233,0.8106,0.8377,0.8452,0.8608,0.8824,0.9089,0.9309,0.9381,0.9557,0.9842,1.0236,1.0263,1.0419,1.0677,1.0704,1.0717,1.0717,1.0717,1.0717,1.0717,1.0717,1.0717,1.0697,1.0399,1.0283,1.0236,0.9808,0.9652,0.9625,0.9449,0.9357,0.9391,1.0248,1.0411,1.0353,1.0313,1.1629,1.3007,1.2204,1.3516,0.0,0.0,0.0,0.0,0.0,0.0,0.0,0.0,0.0,1.6737,1.7259,1.738,1.7488,1.8036,1.8075,1.821,1.845,1.8731,1.8918,1.8918,1.9185,1.9444,1.9439,1.9511,1.9511,1.9511,1.972,1.988,1.988,2.016,2.0428,2.0668,2.0621,2.0779,2.1109,2.1016,2.1016,2.1109,2.1109,2.1109,2.1109,2.1109,2.1109,2.1096,2.0869,2.0735,2.0641,2.0,1.9519,1.9158,1.8624,1.8263,1.7982,1.7929,1.7902,1.7929,1.7675,1.7582,1.7582,0.0,0.0,0.0,0.0,0.0,0.0,0.0,0.0,0.0,0.0,0.1157,0.1924,0.1808,0.4055,0.6042,0.7152,0.757,0.7909,0.8029,0.8336,0.856,0.873,0.9137,0.9361,0.9381,0.9652,0.989,1.0011,1.0215,1.0365,1.0521,1.0656,1.0717,1.0717,1.0717,1.0717,1.0717,1.0717,1.0717,1.0697,1.0399,1.0283,1.0243,0.9917,0.9795,0.9761,0.9483,0.9367,0.9371,0.9196,0.9085,0.9106,0.8967,1.0046,1.1469,1.203,1.3329,1.4761,1.5491,1.5994,0.0,1.6355,1.6852,1.7288,0.0,0.0,1.7528,1.7876,1.7889,1.7995,1.8384,1.8437,1.845,1.849,1.8731,1.8918,1.8918,1.9185,1.9466,1.972,1.976,1.976,1.976,2.0013,2.0187,2.0187,2.0454,2.0641,2.0681,1.9461,1.9483,2.1046,1.9635,1.9571,2.1109,2.1109,2.1109,2.1109,2.1109,2.1109,2.1109,2.1082,2.0922,2.0628,1.9786,1.9105,1.8557,1.8237,1.8022,1.7969,1.7742,1.7635,1.7622,1.7595,1.7582,1.7582,0.0,0.0,0.0,0.0,0.0,0.0,0.0,0.0,0.0,0.0,0.0482,0.0812,0.074,0.3025,0.5018,0.6239,0.7255,0.7875,0.7982,0.8241,0.8465,0.8703,0.8974,0.9164,0.9303,0.9544,0.9768,0.9856,1.0073,1.0263,1.0493,1.0555,1.0636,1.0717,1.0629,1.0588,1.0582,1.05,1.0466,1.0446,1.0229,1.0148,1.0114,0.9815,0.97,0.968,0.9557,0.9401,0.0,0.9103,0.9008,0.8871,0.8811,0.9736,1.0952,1.1238,1.2356,1.3422,1.3027,1.367,0.0,0.0,1.5642,1.6763,1.7755,1.8023,1.8196,1.849,1.8424,1.845,1.8918,1.8851,1.8798,0.0,1.9105,1.9185,1.9185,1.9439,1.9299,1.8379,1.8617,1.8741,1.8519,1.7881,1.7462,1.7462,1.7754,1.7903,1.7903,1.7354,1.7345,1.8052,1.8372,1.8832,1.961,2.0589,2.1109,2.1109,2.1109,2.1109,2.1109,2.1109,2.0762,2.012,1.9412,1.8771,1.821,1.7903,1.7769,1.7769,1.7635,1.7582,1.7582,1.7582,1.7582,1.7582,0.0,0.0,0.0,0.0,0.0,0.0,0.0,0.0,0.0,0.0,0.0,0.0119,0.0446,0.2159,0.3889,0.5396,0.6535,0.7372,0.7853,0.8099,0.8323,0.8581,0.8811,0.8988,0.9089,0.9395,0.9598,0.97,0.9849,1.0059,1.031,1.0351,1.0453,1.0595,1.048,1.0432,1.0426,1.0324,1.0283,1.0263,1.0066,0.9923,0.9889,0.9659,0.9496,0.9435,0.9517,0.9374,0.9207,0.9207,0.9028,0.8824,0.8871,0.9508,1.0262,1.058,1.1754,1.2749,1.19,0.0,0.0,1.3582,1.4491,1.5735,1.7527,1.797,1.8173,1.8871,1.8811,1.8758,1.9279,1.9185,1.9118,1.9332,1.943,1.9457,1.9479,1.9666,1.9184,1.761,1.7394,1.7126,1.6452,1.5907,1.5617,1.5617,1.5758,1.5913,1.5913,1.5459,1.5394,1.5848,1.6625,1.7538,1.8512,1.9737,2.0589,2.1109,2.1109,2.1109,2.1109,2.1029,2.0468,1.9533,1.9105,1.8544,1.7849,1.7675,1.7582,1.7582,1.7582,1.7582,1.7582,1.7582,1.7582,1.7582,0.0,0.0,0.0,0.0,0.0,0.0,0.0,0.0,0.0,0.0,0.0,0.0435,0.1617,0.1827,0.2811,0.5218,0.5571,0.6201,0.7543,0.7882,0.8119,0.8275,0.8703,0.8885,0.8892,0.9239,0.9388,0.9395,0.9551,0.97,0.9842,0.993,1.0148,1.029,1.029,1.029,1.0283,1.0283,1.0283,1.0256,0.9951,0.9829,0.9795,0.9503,0.9211,0.8939,0.9286,0.9344,0.9207,0.9207,0.896,0.8743,0.8838,0.8933,0.9175,1.0353,1.1946,1.3341,1.3549,0.0,1.3935,1.4109,1.4225,1.464,1.6218,1.6562,1.7105,1.8989,1.9118,1.8998,1.9319,1.9417,1.9417,1.943,1.943,1.9466,1.9746,1.9786,1.9387,1.8229,1.6592,1.5032,0.0,1.493,1.5903,1.5903,1.5913,1.5913,1.5913,1.4297,1.4166,1.5848,1.4297,1.507,1.8448,1.8576,1.9419,2.1109,2.1109,2.1109,2.1096,2.0815,2.0054,1.8945,1.8931,1.8424,1.7595,1.7582,1.7582,1.7582,1.7582,1.7582,1.7582,1.7582,1.7582,1.7582,0.0,0.0,0.0,0.0,0.0,0.0,0.0,0.0,0.0,0.0,0.0,0.0,0.0,0.0,0.0,0.0,0.4594,0.579,0.623,0.7289,0.7957,0.8113,0.8357,0.854,0.8635,0.8933,0.9089,0.9089,0.9334,0.9537,0.968,0.9734,0.9836,0.9971,0.9876,0.9836,0.9829,0.9727,0.9686,0.9673,0.9571,0.9469,0.9367,0.9323,0.9049,0.8825,0.0,0.9069,0.8859,0.8859,0.8859,0.8817,0.8865,0.9008,0.9222,0.9774,1.0409,1.0848,1.0961,1.1102,1.1435,1.2484,1.279,1.3305,1.49,1.5253,1.5392,1.6068,1.7103,1.7954,1.8052,1.8919,1.9653,1.9653,1.9492,1.9102,1.8175,1.8239,1.743,1.4915,1.4309,0.0,0.0,0.0,0.0,1.2479,1.2479,1.2479,1.2479,1.1894,1.1828,1.2413,1.2997,1.384,1.5005,1.6172,1.7667,1.9419,2.0393,2.0815,2.0802,2.0321,1.9666,1.8918,1.8718,1.8237,1.7582,1.7582,1.7582,1.7582,1.7582,1.7582,1.7582,1.7582,1.7582,1.7582,0.0,0.0,0.0,0.0,0.0,0.0,0.0,0.0,0.0,0.0,0.0,0.0,0.0,0.0,0.0,0.0,0.0,0.5083,0.5551,0.6911,0.7746,0.7901,0.8106,0.8255,0.8404,0.8648,0.8777,0.8777,0.8967,0.9137,0.9286,0.9347,0.9442,0.9578,0.9544,0.953,0.9523,0.9422,0.9415,0.9449,0.9286,0.9191,0.9193,0.903,0.873,0.0,0.8804,0.8723,0.8506,0.8716,0.8784,0.8784,0.8838,0.8994,0.9268,0.9517,0.9646,0.9686,0.9686,0.9788,1.0107,1.1017,1.1295,1.1736,1.3347,1.3765,1.3885,1.448,1.5611,1.6496,1.6496,1.7781,1.892,1.9009,1.8792,1.8386,1.7645,1.7156,1.5898,1.338,1.3183,1.261,0.0,0.0,0.0,1.0717,1.0717,1.0717,1.0717,1.0717,1.0717,1.0717,1.1762,1.2676,1.3325,1.5005,1.7076,1.9419,2.0302,2.0615,2.0508,2.0013,1.9426,1.8758,1.8571,1.8143,1.7582,1.7582,1.7582,1.7582,1.7582,1.7582,1.7582,1.7582,1.7582,1.7582,0.0,0.0,0.0,0.0,0.0,0.0,0.0,0.0,0.0,0.0,0.0,0.0,0.0,0.0,0.0,0.0,0.0,0.0,0.5427,0.6692,0.7495,0.7773,0.7887,0.8092,0.8292,0.8384,0.8465,0.8472,0.8479,0.8554,0.8703,0.8845,0.8988,0.918,0.9273,0.9334,0.9334,0.9334,0.9422,0.9517,0.9089,0.8994,0.9118,0.8635,0.8289,0.8015,0.8357,0.8275,0.8076,0.8656,0.8723,0.852,0.8682,0.8933,0.9296,0.953,0.9713,0.9822,0.9829,0.9869,0.9936,0.9856,0.9822,1.0179,1.1736,1.2097,1.2509,1.4063,1.454,1.4689,0.0,0.0,1.7213,1.7468,1.7283,1.7211,1.7718,1.6392,1.483,0.0,0.0,0.0,0.0,0.0,0.0,1.0717,0.0,1.0717,1.0717,1.0717,1.0717,1.0717,1.0717,1.1563,1.3259,1.5135,1.7655,2.0956,2.0788,2.0494,2.0201,1.9893,1.9292,1.849,1.8477,1.813,1.7582,1.7582,1.7582,1.7582,1.7582,1.7582,1.7582,1.7582,1.7582,1.7582,0.0,0.0,0.0,0.0,0.0,0.0,0.0,0.0,0.0,0.0,0.0,0.0,0.0,0.0,0.0,0.0,0.0,0.0,0.4094,0.6188,0.7453,0.7482,0.7631,0.778,0.7923,0.8072,0.8208,0.8374,0.8431,0.8499,0.854,0.8581,0.8615,0.8655,0.8696,0.871,0.871,0.871,0.8737,0.8757,0.8642,0.856,0.8538,0.8422,0.8133,0.7896,0.8085,0.8056,0.8029,0.0,0.0,0.8696,0.896,0.9252,0.953,0.9713,0.9795,0.9842,0.9896,0.9876,0.9869,0.9829,0.9822,0.9883,1.0301,1.0422,1.0543,1.0959,1.2286,1.343,0.0,0.0,0.0,1.6034,1.5594,0.0,1.4217,1.3717,0.0,1.1534,0.0,1.1174,1.0717,1.0717,0.0,0.0,1.0717,1.0717,1.0717,1.0717,1.0717,1.0717,1.0717,1.1563,1.3259,1.6302,1.8152,1.886,1.9853,2.0187,1.9893,1.9386,1.8905,1.8477,1.8263,1.7943,1.7582,1.7582,1.7582,1.7582,1.7582,1.7582,1.7582,1.7582,1.7582,1.7582,0.0,0.0,0.0,0.0,0.0,0.0,0.0,0.0,0.0,0.0,0.0,0.0,0.0,0.0,0.0,0.0,0.0,0.0,0.0,0.5856,0.7238,0.7412,0.7455,0.757,0.7719,0.7801,0.7923,0.8072,0.8085,0.816,0.8289,0.8289,0.8323,0.8391,0.8452,0.8479,0.8479,0.8479,0.852,0.0,0.0,0.8282,0.8299,0.8052,0.7828,0.7638,0.7794,0.788,0.0,0.0,0.0,0.8737,0.8906,0.9211,0.9537,0.9686,0.0,0.9842,0.9862,0.9883,0.9822,0.9822,0.9822,0.9836,0.9842,0.9869,0.9842,0.9849,1.0791,0.0,1.182,0.0,0.0,0.0,0.0,0.0,1.2867,1.221,1.1449,0.0,1.0677,0.0,1.0717,1.0717,1.0717,0.0,1.0717,1.0717,1.0717,1.0717,1.0717,1.0717,1.0717,1.1563,1.3259,1.5978,1.7224,1.7044,1.8483,1.8653,1.7709,1.7819,1.7717,1.7439,0.0,1.7876,1.7582,1.7582,1.7582,1.7582,1.7582,1.7582,1.7582,1.7582,1.7582,1.7582,0.0,0.0,0.0,0.0,0.0,0.0,0.0,0.0,0.0,0.0,0.0,0.0,0.0,0.0,0.0,0.0,0.0,0.0,0.0,0.0,0.7041,0.7299,0.7333,0.7414,0.7563,0.757,0.7638,0.778,0.7658,0.7733,0.7934,0.7934,0.8052,0.8187,0.8309,0.8364,0.8364,0.8343,0.8411,0.8499,0.8035,0.8004,0.8079,0.0,0.7448,0.7333,0.7509,0.0,0.0,0.0,0.8452,0.8716,0.8737,0.9022,0.9388,0.9557,0.9693,0.9795,0.9815,0.9822,0.9822,0.9822,0.9822,0.9856,0.993,0.9856,0.9856,0.993,0.0,1.0011,1.0249,1.1429,1.2398,1.2683,0.0,1.234,1.2523,1.131,1.0446,1.0487,1.0609,1.0697,1.0717,1.0717,1.0717,1.0717,1.0717,1.0717,1.0717,1.0717,1.0717,1.0717,1.0916,1.1762,1.3325,1.5005,1.5782,1.5656,1.6932,1.6614,1.4952,1.5776,1.6011,1.5848,1.6879,1.7234,1.7041,1.7252,1.7305,1.7305,1.7529,1.7582,1.7582,1.7582,1.7582,1.7582,0.0,0.0,0.0,0.0,0.0,0.0,0.0,0.0,0.0,0.0,0.0,0.0,0.0,0.0,0.0,0.0,0.0,0.0,0.0,0.0,0.0,0.7,0.7071,0.7251,0.7407,0.746,0.7489,0.7638,0.7611,0.7624,0.7678,0.7678,0.7692,0.7719,0.774,0.7753,0.7746,0.7617,0.7624,0.7584,0.738,0.7267,0.728,0.7206,0.0,0.0,0.0,0.0,0.0,0.0,0.8364,0.873,0.8804,0.9035,0.9303,0.953,0.9625,0.9673,0.9788,0.9822,0.9822,0.9822,0.9822,0.9829,0.9856,0.9842,0.0,0.0,0.9863,0.9944,1.0229,1.0315,1.0452,1.087,0.0,0.0,0.0,0.0,1.0215,0.0,0.0,1.0582,1.0711,1.0717,0.0,0.0,1.0717,1.0717,1.0717,1.0717,1.0717,1.0717,1.2084,1.2997,1.3325,1.5005,1.5711,1.5369,1.5452,1.5131,1.4483,1.4251,1.419,1.4138,1.4135,0.0,1.4126,1.5304,1.5796,1.5902,1.7094,1.7582,1.7582,1.7582,1.7582,1.7582,0.0,0.0,0.0,0.0,0.0,0.0,0.0,0.0,0.0,0.0,0.0,0.0229,0.0874,0.0388,0.0724,0.0,0.0,0.0,0.0,0.0,0.0,0.0,0.0,0.0,0.0,0.7251,0.7285,0.736,0.0,0.736,0.736,0.736,0.736,0.736,0.736,0.736,0.7353,0.7285,0.7251,0.7238,0.7045,0.6991,0.0,0.0,0.0,0.0,0.0,0.0,0.0,0.0,0.8275,0.8737,0.8838,0.9035,0.9282,0.9605,0.9666,0.9639,0.9781,0.9822,0.9822,0.9822,0.9768,0.9747,0.9842,0.0,0.0,0.0,0.97,0.9659,0.989,0.0,0.0,0.0,0.0,0.0,0.0,0.0,0.0,0.0,0.0,0.0,0.0,0.0,1.0717,1.0717,1.0717,1.0717,1.0717,1.0717,1.0717,1.0717,1.1505,1.196,1.196,1.3613,1.3816,1.2623,1.3283,1.2985,1.1786,1.2233,1.2423,1.2469,1.3029,1.3318,1.3426,1.4824,1.5411,1.553,1.7041,1.7582,1.7529,1.6711,1.6446,1.634,0.0,0.0,0.0,0.0,0.0,0.0,0.0,0.0,0.0096,0.0436,0.0447,0.1035,0.2544,0.1305,0.1362,0.0,0.0,0.0,0.0,0.0,0.0,0.0,0.0,0.0,0.0,0.0,0.0,0.7004,0.7004,0.0,0.0,0.0,0.0,0.0,0.7004,0.7004,0.6997,0.697,0.6957,0.0,0.0,0.6803,0.0,0.0,0.0,0.0,0.0,0.0,0.0,0.0,0.8147,0.8601,0.8784,0.896,0.9191,0.9646,0.9673,0.9598,0.9774,0.9822,0.9815,0.9781,0.9713,0.97,0.9808,0.9659,0.0,0.0,0.949,0.9334,0.9483,0.0,0.0,0.0,0.9707,0.0,0.0,0.0,0.0,0.0,0.0,0.0,0.0,0.0,0.0,1.0717,1.0717,1.0717,1.0717,1.0717,1.0717,1.0717,1.0717,1.0717,1.0717,1.1885,1.1695,1.0108,1.1209,1.093,0.9384,1.0344,1.0819,1.0867,1.1873,1.2354,1.2507,1.4234,1.477,1.4663,1.6446,1.6935,1.6552,1.537,1.4931,1.477,0.0,0.0,0.0,0.0,0.0,0.0,0.0,0.0,0.0486,0.1837,0.198,0.2909,0.5327,0.3229,0.2668,0.0,0.0,0.0,0.0,0.0,0.0,0.0,0.0,0.0,0.0,0.0,0.0,0.6742,0.6742,0.0,0.0,0.0,0.0,0.0,0.0,0.6742,0.6729,0.6593,0.0,0.0,0.0,0.0,0.0,0.0,0.0,0.0,0.0,0.0,0.0,0.0,0.0,0.8103,0.8431,0.8723,0.9049,0.9496,0.0,0.0,0.9747,0.9822,0.9788,0.9659,0.9713,0.9741,0.9496,0.0,0.0,0.9442,0.9184,0.9022,0.9228,0.0,0.0,0.0,0.0,0.9815,0.0,0.0,0.0,0.0,0.0,0.0,0.0,0.0,0.0,0.0,1.0717,1.0717,1.0717,1.0717,1.0717,1.0717,1.0717,1.0717,1.0717,1.0633,1.0342,0.9984,0.9797,0.9507,0.9228,0.9133,0.912,0.912,0.9272,0.932,0.0,1.2344,1.2724,1.1755,1.4556,1.4824,1.3696,1.3534,1.348,1.348,0.0,0.0,0.0,0.0,0.0,0.0,0.0,0.0,0.0535,0.2004,0.22,0.3263,0.5977,0.5128,0.4918,0.637,0.0,0.0,0.0,0.0,0.0,0.0,0.0,0.0,0.0,0.0,0.6654,0.6566,0.6654,0.0,0.0,0.0,0.0,0.0,0.0,0.6477,0.647,0.6409,0.0,0.0,0.0,0.0,0.0,0.0,0.0,0.0,0.0,0.0,0.0,0.0,0.0,0.0,0.818,0.8418,0.0,0.0,0.935,0.9306,0.9612,0.9625,0.9564,0.9598,0.951,0.9388,0.933,0.0,0.9022,0.8872,0.8676,0.8554,0.8661,0.8675,0.0,0.0,0.0,0.0,0.0,0.0,0.0,0.0,0.0,0.0,0.0,0.0,0.0,0.0,1.0717,1.0717,1.0717,1.0717,1.0717,1.0717,1.0717,1.0677,1.0582,1.029,1.0019,0.9781,0.9415,0.9164,0.9022,0.8912,0.8885,0.8885,0.8885,0.8885,0.0,1.1109,1.1647,1.1319,1.3318,1.3804,1.321,1.229,1.1973,1.1864,0.0,0.0,0.0,0.0,0.0,0.0,0.0,0.0333,0.1118,0.2619,0.3133,0.4357,0.6848,0.6804,0.6738,0.7175,0.6274,0.0,0.0,0.0,0.0,0.0,0.0,0.0,0.0,0.0,0.6539,0.6511,0.658,0.6552,0.0,0.0,0.6457,0.6361,0.0,0.0,0.0,0.0,0.0,0.0,0.0,0.0,0.0,0.0,0.0,0.0,0.0,0.0,0.0,0.0,0.0,0.0,0.0,0.0,0.0,0.0,0.9089,0.9157,0.9462,0.9462,0.9408,0.9517,0.9347,0.92,0.0,0.0,0.8655,0.8459,0.8303,0.8201,0.8201,0.8241,0.835,0.8601,0.8927,0.9303,0.9503,0.0,0.0,0.0,0.0,0.0,0.0,0.0,0.0,0.0,1.0717,1.0717,1.0717,1.0677,1.067,1.0717,1.0677,1.0602,1.0493,1.0154,0.9856,0.9605,0.9357,0.9076,0.8885,0.8885,0.8885,0.8885,0.8885,0.8885,0.0,1.0515,1.0836,1.0617,1.2082,1.2398,1.1864,1.0836,1.046,1.0296,0.0,0.0,0.0,0.0,0.0,0.0,0.0,0.1143,0.2525,0.4,0.54,0.6837,0.8321,0.8164,0.7813,0.7407,0.7179,0.0,0.0,0.0,0.0,0.0,0.0,0.0,0.0,0.0,0.6375,0.6511,0.6511,0.6552,0.6695,0.6539,0.6511,0.6504,0.0,0.0,0.0,0.0,0.0,0.0,0.0,0.0,0.0,0.0,0.0,0.0,0.0,0.0,0.0,0.0,0.0,0.0,0.0,0.7923,0.811,0.871,0.8885,0.8952,0.9306,0.9381,0.9381,0.9381,0.9323,0.9173,0.0,0.0,0.8628,0.8336,0.8147,0.7988,0.7988,0.8167,0.8368,0.8459,0.8914,0.0,0.9361,0.0,0.0,0.0,0.0,0.0,0.0,0.0,0.0,0.0,0.0,0.0,1.0717,1.0575,1.0561,1.0717,1.0575,1.0493,1.0493,1.0046,0.9754,0.9605,0.9357,0.9076,0.8885,0.8885,0.8885,0.8885,0.8885,0.8885,0.0,1.0515,1.0241,0.9044,1.0562,1.0241,0.894,0.894,0.894,0.894,0.0,0.0,0.0,0.0,0.0,0.0,0.0,0.1519,0.2648,0.4883,0.5649,0.6581,0.8206,0.7977,0.7638,0.7439,0.7143,0.0,0.0,0.0,0.0,0.0,0.0,0.0,0.0,0.6443,0.6532,0.6783,0.6783,0.681,0.6858,0.681,0.6783,0.677,0.6519,0.6504,0.0,0.0,0.0,0.0,0.0,0.0,0.0,0.0,0.0,0.0,0.0,0.0,0.0,0.0,0.0,0.0,0.0,0.0,0.0,0.8157,0.8465,0.8669,0.8872,0.8845,0.8791,0.8893,0.8811,0.8655,0.8513,0.0,0.8167,0.7875,0.7692,0.7611,0.7719,0.778,0.7957,0.8411,0.8689,0.0,0.0,0.0,0.0,0.0,0.0,0.0,0.0,0.0,0.0,0.0,0.0,1.0677,1.0568,1.0521,1.0514,1.0561,1.0317,1.0141,1.0032,0.9693,0.9442,0.935,0.9103,0.9035,0.9083,0.9083,0.9083,0.9083,0.9083,0.9028,0.894,0.943,0.932,0.894,0.943,0.932,0.8885,0.8885,0.8885,0.8885,0.0,0.0,0.0,0.0,0.0,0.0,0.0,0.265,0.361,0.5189,0.5923,0.6697,0.7853,0.7631,0.7366,0.7217,0.698,0.0,0.0,0.0,0.0,0.0,0.0,0.0,0.6511,0.6566,0.6709,0.6964,0.7068,0.7122,0.7183,0.7122,0.7095,0.7082,0.6783,0.6668,0.0,0.0,0.0,0.0,0.0,0.0,0.6306,0.0,0.0,0.0,0.0,0.0,0.0,0.0,0.0,0.0,0.0,0.0,0.0,0.0,0.8004,0.8221,0.854,0.8554,0.852,0.8669,0.8554,0.8377,0.0,0.0,0.7868,0.7577,0.7441,0.7421,0.757,0.7645,0.7875,0.8472,0.8648,0.0,0.0,0.0,0.0,0.0,0.0,0.0,0.0,0.0,0.0,0.0,0.0,1.0514,1.0419,1.0358,1.0324,1.0324,1.0085,0.9916,0.9822,0.9585,0.9361,0.9207,0.9062,0.9069,0.9207,0.9207,0.9207,0.9207,0.9207,0.9069,0.0,0.8885,0.8885,0.8885,0.8885,0.8885,0.8885,0.8885,0.8885,0.8885,0.0,0.0,0.0,0.0,0.0,0.0,0.0,0.4292,0.5126,0.5192,0.6312,0.717,0.7326,0.719,0.6997,0.6883,0.0,0.0,0.0,0.0,0.0,0.0,0.0,0.0,0.6525,0.6647,0.6885,0.7146,0.7333,0.7489,0.7645,0.7489,0.7467,0.7407,0.7088,0.6851,0.6675,0.0,0.0,0.0,0.6443,0.6409,0.0,0.0,0.0,0.0,0.0,0.0,0.0,0.0,0.0,0.0,0.0,0.0,0.0,0.0,0.0,0.0,0.0,0.8425,0.8472,0.8621,0.8459,0.8255,0.8255,0.8024,0.0,0.7461,0.7439,0.7434,0.759,0.774,0.8031,0.8615,0.873,0.0,0.0,0.0,0.0,0.0,0.0,0.0,0.0,0.0,0.0,0.0,0.0,1.027,1.0249,1.0114,0.9963,0.9936,0.9936,0.9869,0.9788,0.9639,0.9422,0.9193,0.9193,0.9207,0.9228,0.9228,0.9234,0.0,0.9228,0.9089,0.8898,0.8885,0.8885,0.8885,0.8885,0.8885,0.8885,0.8885,0.8892,0.8898,0.0,0.0,0.0,0.0,0.0,0.0,0.0,0.0,0.0,0.0,0.6542,0.6865,0.7014,0.679,0.6661,0.0,0.0,0.0,0.0,0.0,0.0,0.0,0.0,0.0,0.6647,0.6905,0.7193,0.7651,0.7692,0.7848,0.8113,0.7957,0.7882,0.7813,0.728,0.6878,0.6559,0.6409,0.0,0.0,0.6334,0.622,0.0,0.0,0.0,0.0,0.6647,0.6831,0.0,0.0,0.0,0.0,0.0,0.0,0.0,0.0,0.7428,0.7482,0.774,0.0,0.8004,0.811,0.8096,0.8092,0.0,0.795,0.7794,0.7719,0.7624,0.759,0.7733,0.7984,0.8282,0.8648,0.0,0.9178,0.0,0.0,0.0,0.0,0.0,0.0,0.0,0.0,0.0,0.0,0.0,1.0175,0.9944,0.9897,0.9774,0.9544,0.9537,0.9517,0.9483,0.9225,0.9062,0.8988,0.8988,0.911,0.9327,0.9327,0.9395,0.9496,0.9381,0.9245,0.9096,0.8981,0.8885,0.8885,0.8885,0.8885,0.8885,0.8885,0.9008,0.9103,0.0,0.0,0.0,0.0,0.0,0.0,0.0,0.0,0.0,0.0,0.0,0.6532,0.6614,0.6511,0.0,0.0,0.0,0.0,0.0,0.0,0.0,0.0,0.0,0.6763,0.6898,0.7197,0.7502,0.7814,0.795,0.8106,0.832,0.8255,0.8167,0.7961,0.7294,0.6871,0.6566,0.6463,0.6361,0.63,0.63,0.0,0.0,0.0,0.0,0.0,0.6593,0.6756,0.0,0.6912,0.6943,0.6997,0.0,0.0,0.0,0.0,0.7265,0.7299,0.7455,0.7604,0.7746,0.7896,0.7887,0.7887,0.7887,0.7874,0.7896,0.7828,0.7746,0.7767,0.7984,0.816,0.8463,0.0,0.9105,0.0,0.0,0.0,0.0,0.0,0.0,0.0,0.0,0.0,0.0,0.0,0.0,0.9897,0.9734,0.9727,0.9618,0.9388,0.9313,0.933,0.933,0.9117,0.9001,0.8885,0.9008,0.9157,0.9381,0.9456,0.953,0.9605,0.9523,0.9361,0.9207,0.9069,0.8994,0.8885,0.8885,0.8981,0.9035,0.9035,0.913,0.9316,0.0,0.0,0.0,0.0,0.0,0.0,0.0,0.0,0.0,0.0,0.0,0.0,0.0,0.0,0.0,0.0,0.0,0.0,0.0,0.0,0.0,0.0,0.6695,0.6932,0.7159,0.7509,0.7746,0.7916,0.8174,0.833,0.8377,0.8472,0.8343,0.7961,0.724,0.6878,0.6722,0.6525,0.6395,0.6265,0.6265,0.0,0.0,0.0,0.0,0.0,0.0,0.0,0.0,0.6695,0.6783,0.6849,0.6849,0.0,0.0,0.0,0.0,0.0,0.7292,0.7448,0.7604,0.7773,0.7814,0.7814,0.7841,0.7894,0.7961,0.7902,0.7882,0.797,0.8248,0.8343,0.0,0.0,0.0,0.0,0.0,0.0,0.0,0.0,0.0,0.0,0.0,0.0,0.0,0.0,0.0,0.9564,0.9544,0.9537,0.9469,0.932,0.9184,0.918,0.918,0.92,0.9103,0.8952,0.913,0.9323,0.9422,0.9551,0.9618,0.9639,0.0,0.0,0.9275,0.9255,0.9117,0.8952,0.8952,0.9083,0.9248,0.9248,0.9344,0.9415,0.0,0.0,0.0,0.0,0.0,0.0,0.0,0.0,0.0,0.0,0.0,0.0,0.0,0.0,0.0,0.0,0.0,0.0,0.0,0.0,0.0,0.6661,0.7054,0.7353,0.7522,0.7821,0.8106,0.8377,0.8425,0.8581,0.8832,0.8723,0.8445,0.7961,0.7341,0.6984,0.6822,0.6464,0.6207,0.6027,0.6027,0.0,0.0,0.0,0.0,0.0,0.0,0.0,0.0,0.6654,0.6715,0.6736,0.6736,0.0,0.0,0.0,0.0,0.0,0.7092,0.7292,0.7468,0.774,0.7814,0.7841,0.7928,0.7975,0.8022,0.818,0.8201,0.8248,0.8418,0.8662,0.8906,0.0,0.0,0.9557,0.0,0.0,0.0,0.0,0.0,0.0,0.0,0.0,0.0,0.0,0.0,0.9361,0.9289,0.9282,0.9157,0.8952,0.8981,0.8974,0.8974,0.9089,0.9262,0.9313,0.9334,0.9429,0.9578,0.9598,0.9673,0.9781,0.0,0.9585,0.953,0.9401,0.9334,0.9313,0.9313,0.9327,0.9347,0.9347,0.9442,0.9571,0.0,0.0,0.0,0.0,0.0,0.0,0.0,0.0,0.0,0.0,0.0,0.0,0.0,0.0,0.0,0.0,0.0,0.0,0.0,0.0,0.6614,0.6926,0.7217,0.7441,0.7597,0.784,0.8147,0.837,0.8526,0.8676,0.8811,0.8492,0.8282,0.8126,0.7278,0.6869,0.6856,0.6491,0.6173,0.5993,0.0,0.0,0.0,0.0,0.0,0.0,0.0,0.0,0.0,0.0,0.6512,0.658,0.658,0.0,0.0,0.0,0.0,0.0,0.7058,0.7251,0.7441,0.774,0.7875,0.7997,0.8228,0.8343,0.8425,0.8492,0.8506,0.8554,0.0,0.0,0.9042,0.9347,0.0,0.9612,0.9612,0.9415,0.9357,0.0,0.0,0.0,0.0,0.0,0.0,0.0,0.0,0.9282,0.9214,0.9207,0.9089,0.8892,0.8885,0.9015,0.9178,0.9245,0.933,0.9316,0.934,0.9462,0.9612,0.9686,0.9761,0.9815,0.0,0.968,0.9605,0.9537,0.9456,0.9381,0.9381,0.9435,0.9517,0.9591,0.9659,0.9727,0.0,0.0,0.0,0.0,0.0,0.0,0.0,0.0,0.0,0.0,0.0,0.0,0.0,0.0,0.0,0.0,0.0,0.0,0.0,0.6429,0.6654,0.7031,0.7238,0.7468,0.7801,0.8024,0.8235,0.8425,0.8655,0.873,0.8648,0.8303,0.8167,0.8174,0.7265,0.6905,0.6903,0.6498,0.62,0.5993,0.0,0.0,0.0,0.0,0.0,0.0,0.0,0.0,0.0,0.0,0.0,0.0,0.0,0.0,0.0,0.6817,0.6836,0.6869,0.7051,0.7278,0.7495,0.7794,0.7977,0.816,0.8425,0.8601,0.871,0.871,0.8737,0.0,0.0,0.9049,0.0,0.9503,0.9557,0.9544,0.951,0.9374,0.9279,0.9279,0.9178,0.0,0.0,0.0,0.0,0.0,0.0,0.0,0.9103,0.9103,0.9055,0.8885,0.8885,0.9049,0.9273,0.9313,0.932,0.9371,0.9429,0.9544,0.9659,0.9774,0.9822,0.9822,0.9822,0.9761,0.9659,0.9659,0.9591,0.9483,0.9483,0.9557,0.9673,0.9781,0.9822,0.9822,0.0,0.0,0.0,0.0,0.0,0.0,0.0,0.0,0.0,0.0,0.0,0.0,0.0,0.0,0.0,0.0,0.0,0.0,0.0,0.6429,0.6614,0.6889,0.7038,0.7556,0.8397,0.8438,0.8594,0.8838,0.8858,0.8777,0.8499,0.8465,0.8309,0.7982,0.7543,0.7251,0.7051,0.6647,0.6295,0.5993,0.5993,0.0,0.0,0.0,0.0,0.0,0.0,0.0,0.0,0.0,0.0,0.0,0.0,0.0,0.6388,0.6634,0.6715,0.6776,0.7018,0.736,0.7651,0.7901,0.814,0.8296,0.8445,0.8601,0.871,0.871,0.8825,0.8967,0.0,0.9367,0.9523,0.9415,0.9395,0.9347,0.9262,0.0,0.8912,0.8912,0.8905,0.0,0.0,0.0,0.0,0.0,0.0,0.0,0.8898,0.8898,0.8892,0.8885,0.8885,0.8892,0.8912,0.9103,0.9374,0.9774,0.9781,0.9795,0.9808,0.9815,0.9822,0.9822,0.9822,0.9815,0.9802,0.9802,0.9802,0.9788,0.9788,0.9795,0.9808,0.9815,0.9822,0.9822,0.0,0.0,0.0,0.0,0.0,0.0,0.0,0.0,0.0,0.0,0.0,0.0,0.0,0.0,0.0,0.0,0.0,0.0,0.0,0.6347,0.6519,0.6869,0.6937,0.7341,0.8187,0.8303,0.8499,0.8798,0.8798,0.8689,0.8479,0.8296,0.8099,0.7875,0.7428,0.7152,0.7071,0.6763,0.6444,0.6179,0.6268,0.6193,0.0,0.0,0.0,0.0,0.0,0.0,0.0,0.0,0.63,0.63,0.63,0.63,0.6361,0.6614,0.677,0.6926,0.7319,0.7577,0.7848,0.8336,0.8499,0.8581,0.873,0.8879,0.8988,0.8988,0.911,0.9259,0.0,0.0,0.9591,0.0,0.0,0.9327,0.9228,0.9028,0.8885,0.8885,0.8885,0.0,0.0,0.0,0.0,0.0,0.0,0.0,0.8885,0.8885,0.8885,0.8885,0.9028,0.9117,0.9211,0.9361,0.9564,0.9822,0.9734,0.9734,0.9822,0.9822,0.9822,0.9822,0.9822,0.9822,0.9822,0.9822,0.9822,0.9822,0.9822,0.9822,0.9822,0.9822,0.9822,0.9822,0.0,0.0,0.0,0.0,0.0,0.0,0.0,0.0,0.0,0.0,0.0,0.0,0.0,0.0,0.0,0.0,0.0,0.0,0.63,0.634,0.6525,0.693,0.7041,0.7373,0.7975,0.8187,0.8418,0.871,0.8662,0.856,0.8411,0.8106,0.7889,0.7726,0.7373,0.7139,0.7078,0.6878,0.66,0.6375,0.647,0.6322,0.0,0.0,0.0,0.0,0.0,0.0,0.0,0.0,0.63,0.63,0.63,0.63,0.6361,0.6614,0.681,0.6984,0.7475,0.774,0.8004,0.8513,0.8676,0.875,0.8851,0.9049,0.9207,0.9207,0.933,0.9429,0.9585,0.0,0.0,0.0,0.0,0.0,0.0,0.0,0.0,0.0,0.0,0.0,0.0,0.0,0.0,0.0,0.0,0.0,0.0,0.8885,0.8885,0.8885,0.9035,0.9157,0.9306,0.9462,0.9612,0.9754,0.97,0.9727,0.9822,0.9822,0.9822,0.9822,0.9822,0.9822,0.9822,0.9822,0.9822,0.9822,0.9822,0.9822,0.9822,0.9822,0.9822,0.9822,0.0,0.0,0.0,0.0,0.0,0.0,0.0,0.0,0.63,0.63,0.63,0.0,0.0,0.0,0.0,0.0,0.0,0.0,0.63,0.6429,0.6668,0.7071,0.7285,0.7577,0.7975,0.8187,0.8411,0.871,0.8554,0.8411,0.8313,0.7957,0.7733,0.759,0.7441,0.7285,0.7085,0.6943,0.6756,0.6511,0.6511,0.6429,0.63,0.0,0.0,0.0,0.0,0.0,0.0,0.0,0.63,0.63,0.63,0.63,0.6361,0.6614,0.681,0.6984,0.7482,0.7821,0.8062,0.8411,0.8601,0.875,0.8851,0.9055,0.9214,0.9214,0.9337,0.9429,0.9578,0.9605,0.0,0.0,0.0,0.0,0.0,0.0,0.0,0.0,0.0,0.0,0.0,0.0,0.0,0.0,0.0,0.0,0.0,0.8885,0.8885,0.8885,0.8892,0.9015,0.9214,0.9306,0.9462,0.9612,0.9754,0.9822,0.9822,0.9822,0.9822,0.9822,0.9822,0.9822,0.9822,0.9822,0.9822,0.9822,0.9822,0.9822,0.9822,0.9822,0.9822,0.9822,0.0,0.0,0.0,0.0,0.0,0.0,0.0,0.0,0.63,0.63,0.63,0.0,0.0,0.0,0.0,0.0,0.0,0.0,0.63,0.6429,0.658,0.6817,0.6878,0.7109,0.7556,0.7923,0.8255,0.8554,0.8404,0.8255,0.8106,0.7902,0.7678,0.7434,0.7439,0.7285,0.7085,0.6943,0.6817,0.662,0.6559,0.6429,0.63,0.0,0.0,0.0,0.0,0.0,0.0,0.0,0.0,0.0,0.63,0.63,0.6381,0.6742,0.6923,0.7179,0.7889,0.8133,0.8323,0.8879,0.8832,0.0,0.0,0.9279,0.0,0.0,0.951,0.9523,0.9462,0.9537,0.0,0.9323,0.0,0.0,0.0,0.0,0.0,0.0,0.0,0.0,0.0,0.0,0.0,0.0,0.0,0.0,0.0,0.9035,0.9089,0.9089,0.93,0.9429,0.9476,0.9618,0.9713,0.9761,0.9802,0.9822,0.9822,0.9822,0.9822,0.9822,0.9822,0.9822,0.9822,0.9822,0.9822,0.9822,0.9822,0.9822,0.9822,0.9822,0.9822,0.9822,0.0,0.0,0.0,0.0,0.0,0.0,0.63,0.63,0.63,0.63,0.6347,0.6361,0.0,0.0,0.0,0.6381,0.6334,0.6347,0.647,0.6519,0.6654,0.6865,0.6932,0.7122,0.7455,0.7665,0.7896,0.8133,0.816,0.8133,0.7982,0.7828,0.7631,0.7461,0.7461,0.7373,0.7224,0.7031,0.6892,0.6695,0.66,0.6484,0.6306,0.0,0.0,0.0,0.0,0.0,0.0,0.0,0.0,0.0,0.63,0.63,0.6402,0.6865,0.7031,0.7274,0.8133,0.8357,0.8472,0.8947,0.8933,0.8886,0.9218,0.0,0.0,0.0,0.9388,0.9401,0.9306,0.9367,0.0,0.9241,0.0,0.0,0.0,0.0,0.0,0.0,0.0,0.0,0.0,0.0,0.0,0.0,0.0,0.0,0.0,0.9022,0.9096,0.9207,0.9334,0.949,0.9605,0.9693,0.9768,0.9822,0.9822,0.9822,0.9822,0.9822,0.9822,0.9822,0.9822,0.9822,0.9822,0.9822,0.9822,0.9822,0.9822,0.9822,0.9822,0.9822,0.9822,0.9822,0.0,0.0,0.0,0.0,0.0,0.0,0.63,0.63,0.63,0.63,0.6422,0.6457,0.0,0.0,0.0,0.6511,0.6395,0.6436,0.6681,0.6702,0.6824,0.7065,0.7272,0.7407,0.7536,0.7428,0.7441,0.7577,0.7862,0.7948,0.7941,0.7726,0.759,0.7577,0.7577,0.7495,0.7339,0.717,0.6903,0.6702,0.6668,0.6498,0.6313,0.6443,0.0,0.0,0.0,0.0,0.0,0.0,0.0,0.0,0.63,0.63,0.6409,0.6932,0.7078,0.7287,0.8208,0.8459,0.8554,0.879,0.8865,0.8954,0.9103,0.9187,0.9096,0.8981,0.0,0.9207,0.9193,0.92,0.9207,0.0,0.0,0.0,0.0,0.0,0.0,0.0,0.0,0.0,0.0,0.0,0.0,0.0,0.0,0.0,0.8885,0.8905,0.9035,0.9228,0.9255,0.9347,0.9625,0.9632,0.9693,0.9822,0.9822,0.9822,0.9822,0.9822,0.9822,0.9822,0.9822,0.9822,0.9822,0.9822,0.9822,0.9822,0.9822,0.9822,0.9822,0.9822,0.97,0.9572,0.0,0.0,0.0,0.0,0.0,0.0,0.63,0.63,0.63,0.63,0.6422,0.6457,0.6313,0.6491,0.0,0.6525,0.6484,0.6545,0.6688,0.6702,0.6783,0.6923,0.7071,0.7112,0.7031,0.7272,0.7433,0.7421,0.7604,0.7692,0.7692,0.7631,0.7536,0.7421,0.7421,0.7333,0.7125,0.6905,0.6756,0.6681,0.6491,0.6354,0.6306,0.6334,0.6327,0.0,0.0,0.0,0.0,0.0,0.0,0.0,0.63,0.63,0.6368,0.6688,0.6916,0.724,0.7901,0.8303,0.0,0.8716,0.8757,0.8798,0.8947,0.8988,0.9008,0.9089,0.9187,0.9173,0.9008,0.0,0.0,0.0,0.0,0.0,0.0,0.0,0.0,0.0,0.0,0.0,0.0,0.0,0.0,0.0,0.0,0.0,0.8885,0.9157,0.93,0.9334,0.9557,0.9707,0.9774,0.9774,0.9788,0.9822,0.9822,0.9822,0.9822,0.9822,0.9822,0.9822,0.9822,0.9822,0.9822,0.9822,0.9822,0.9822,0.9822,0.9822,0.9822,0.9822,0.9019,0.7911,0.0,0.0,0.0,0.0,0.0,0.0,0.0,0.0,0.6429,0.6504,0.6532,0.6552,0.6518,0.6675,0.0,0.0,0.662,0.6675,0.6898,0.6851,0.6844,0.6883,0.6883,0.6898,0.6824,0.6973,0.7088,0.7156,0.7238,0.7353,0.7495,0.7563,0.7516,0.7419,0.7448,0.7353,0.7085,0.6862,0.6722,0.658,0.6463,0.6361,0.6306,0.6375,0.6361,0.63,0.63,0.0,0.0,0.0,0.0,0.0,0.0,0.0,0.6375,0.6702,0.6865,0.7045,0.0,0.0,0.0,0.8621,0.0,0.8838,0.8865,0.8885,0.8905,0.9035,0.9049,0.9028,0.0,0.0,0.0,0.0,0.0,0.0,0.0,0.0,0.0,0.0,0.0,0.0,0.0,0.0,0.0,0.0,0.0,0.8967,0.9035,0.9184,0.934,0.949,0.9639,0.9754,0.9822,0.9822,0.9822,0.9822,0.9822,0.9822,0.9822,0.9822,0.9822,0.9822,0.9822,0.9822,0.9822,0.9822,0.9822,0.9822,0.9822,0.9822,0.97,0.8958,0.8099,0.7296,0.0,0.0,0.0,0.0,0.0,0.0,0.0,0.0,0.0,0.6647,0.6709,0.6729,0.6702,0.6837,0.6876,0.0,0.0,0.0,0.7004,0.691,0.6849,0.6849,0.677,0.6702,0.6702,0.6702,0.6763,0.6849,0.6849,0.7027,0.7299,0.7475,0.7475,0.7339,0.7495,0.7387,0.7051,0.6937,0.6749,0.6511,0.6511,0.6429,0.6313,0.6429,0.6402,0.63,0.63,0.63,0.63,0.63,0.0,0.0,0.0,0.0,0.634,0.6695,0.6763,0.0,0.0,0.0,0.8092,0.8621,0.8825,0.0,0.8878,0.8885,0.8885,0.8885,0.8885,0.0,0.0,0.0,0.0,0.0,0.0,0.0,0.0,0.0,0.0,0.0,0.0,0.0,0.0,0.0,0.0,0.0,0.0,0.9028,0.92,0.9262,0.9347,0.9598,0.9632,0.97,0.9822,0.9822,0.9822,0.9822,0.9822,0.9822,0.9822,0.9511,0.9511,0.9761,0.9511,0.939,0.939,0.939,0.9207,0.8958,0.9268,0.9207,0.8775,0.7484,0.6808,0.6381,0.0,0.0,0.0,0.0,0.0,0.0,0.0,0.0,0.0,0.0,0.6736,0.6851,0.6715,0.6837,0.6836,0.6742,0.6593,0.6573,0.6749,0.0,0.0,0.6729,0.6709,0.6702,0.6702,0.6702,0.6709,0.6729,0.6729,0.6817,0.6993,0.7272,0.7319,0.7132,0.7333,0.7238,0.691,0.6896,0.6749,0.6511,0.6511,0.6429,0.63,0.632,0.6313,0.63,0.63,0.63,0.63,0.63,0.6173,0.0,0.0,0.0,0.6098,0.6295,0.6519,0.0,0.0,0.0,0.8642,0.0,0.8825,0.8777,0.0,0.0,0.8885,0.0,0.0,0.0,0.0,0.0,0.0,0.0,0.0,0.0,0.0,0.0,0.0,0.0,0.0,0.0,0.0,0.0,0.0,0.0,0.9055,0.9187,0.9207,0.9401,0.9564,0.9605,0.9727,0.9802,0.9822,0.9822,0.9822,0.9822,0.9822,0.9822,0.9761,0.8343,0.8465,0.97,0.8343,0.7728,0.7728,0.7728,0.6874,0.5712,0.7179,0.6813,0.5529,0.5284,0.4364,0.3139,0.0,0.0,0.0,0.0,0.0,0.0,0.0,0.0,0.0,0.0,0.0,0.6862,0.6837,0.6849,0.6822,0.6715,0.6641,0.6627,0.6695,0.662,0.6573,0.6573,0.6498,0.6497,0.6497,0.6497,0.6491,0.6573,0.6573,0.6695,0.0,0.7061,0.7088,0.6977,0.7007,0.6878,0.6681,0.6763,0.6675,0.6518,0.6566,0.6614,0.6627,0.6539,0.6559,0.6627,0.6539,0.6491,0.6416,0.6416,0.632,0.6159,0.6139,0.0,0.0,0.0,0.0,0.0,0.7177,0.7889,0.8499,0.0,0.8764,0.8804,0.8865,0.0,0.0,0.0,0.0,0.0,0.0,0.0,0.0,0.0,0.0,0.0,0.0,0.0,0.0,0.0,0.0,0.0,0.0,0.0,0.0,0.0,0.9076,0.9248,0.933,0.949,0.9646,0.9727,0.9788,0.9822,0.9822,0.8897,0.7978,0.7057,0.7057,0.7057,0.7057,0.6324,0.6874,0.8343,0.6691,0.6018,0.6018,0.6018,0.559,0.4977,0.5712,0.5529,0.4794,0.3873,0.3077,0.2342,0.0,0.0,0.0,0.0,0.0,0.0,0.0,0.0,0.0,0.0,0.0,0.6923,0.6889,0.0,0.0,0.0,0.6607,0.6586,0.6586,0.6525,0.6457,0.6457,0.6354,0.63,0.63,0.63,0.6354,0.6457,0.6457,0.0,0.6871,0.6831,0.6858,0.0,0.681,0.6654,0.6525,0.6675,0.6647,0.6532,0.6722,0.6878,0.6923,0.6858,0.6905,0.7021,0.6865,0.6715,0.658,0.6546,0.645,0.6279,0.6125,0.6112,0.0,0.0,0.0,0.0,0.0,0.0,0.0,0.0,0.0,0.0,0.0,0.0,0.0,0.0,0.0,0.0,0.0,0.0,0.0,0.0,0.0,0.0,0.0,0.0,0.0,0.0,0.0,0.0,0.0,0.0,0.0,0.0,0.911,0.9316,0.9374,0.9557,0.9713,0.9815,0.9822,0.9822,0.9822,0.8221,0.6564,0.4916,0.4916,0.4916,0.4916,0.4487,0.4977,0.6075,0.4855,0.4303,0.4303,0.4303,0.4057,0.3689,0.4119,0.4057,0.3507,0.2289,0.1858,0.1677,0.0,0.0,0.0,0.0,0.0,0.0,0.0,0.0,0.0,0.0,0.0,0.7038,0.6903,0.6797,0.6654,0.6538,0.6402,0.632,0.632,0.6313,0.6313,0.6313,0.6306,0.0,0.63,0.63,0.6306,0.6313,0.0,0.0,0.6709,0.6566,0.6654,0.6883,0.6876,0.6749,0.6532,0.0,0.6742,0.6552,0.6946,0.7078,0.7085,0.7078,0.721,0.7326,0.7125,0.6984,0.6842,0.6736,0.6498,0.63,0.6293,0.6088,0.5854,0.0,0.0,0.0,0.0,0.0,0.0,0.0,0.0,0.0,0.0,0.0,0.0,0.0,0.0,0.0,0.0,0.0,0.0,0.0,0.0,0.0,0.0,0.0,0.0,0.0,0.0,0.0,0.0,0.0,0.0,0.0,0.9205,0.9374,0.9381,0.9652,0.9815,0.9822,0.9822,0.9822,0.9822,0.8221,0.6564,0.4916,0.4916,0.4916,0.4855,0.3323,0.2647,0.277,0.2647,0.2647,0.2647,0.2647,0.1663,0.0432,0.2033,0.1663,0.0247,0.0188,0.0126,0.0126,0.0,0.0,0.0,0.0,0.0,0.0,0.0,0.0,0.0,0.0,0.0,0.0,0.0,0.6736,0.66,0.6395,0.6327,0.63,0.63,0.63,0.63,0.63,0.63,0.63,0.63,0.63,0.63,0.0,0.0,0.6402,0.6552,0.6538,0.6573,0.6634,0.6634,0.6573,0.6518,0.6586,0.0,0.0,0.6959,0.7159,0.7299,0.74,0.7584,0.7767,0.7522,0.74,0.7305,0.6959,0.6709,0.6491,0.62,0.6037,0.5905,0.5895,0.6179,0.0,0.0,0.0,0.0,0.0,0.0,0.0,0.0,0.0,0.0,0.0,0.0,0.0,0.0,0.0,0.0,0.0,0.0,0.0,0.0,0.0,0.0,0.0,0.0,0.0,0.0,0.0,0.0,0.0,0.0,0.953,0.953,0.9713,0.9822,0.9822,0.8775,0.724,0.5158,0.4545,0.3444,0.1725,0.1725,0.1725,0.1725,0.1171,0.0925,0.0925,0.0925,0.0925,0.0925,0.0925,0.0555,0.0062,0.0679,0.0559,0.0,0.0,0.0,0.0,0.0,0.0,0.0,0.0,0.0,0.0,0.0,0.0,0.7098,0.7098,0.0,0.0,0.0,0.0,0.6654,0.6395,0.6327,0.63,0.63,0.63,0.63,0.63,0.63,0.63,0.63,0.63,0.63,0.0,0.0,0.0,0.0,0.6511,0.6538,0.6546,0.6538,0.6484,0.0,0.0,0.0,0.6586,0.0,0.7373,0.7604,0.7706,0.7997,0.8238,0.7889,0.7814,0.7828,0.738,0.7122,0.6932,0.6485,0.6229,0.6078,0.5922,0.6057,0.0,0.6498,0.0,0.0,0.0,0.0,0.0,0.0,0.0,0.0,0.0,0.0,0.0,0.0,0.0,0.0,0.0,0.0,0.0,0.0,0.0,0.0,0.0,0.0,0.0,0.0,0.0,0.0,0.0,0.0,0.0,0.9612,0.9741,0.9572,0.9019,0.7972,0.5831,0.2524,0.2524,0.1663,0.0,0.0,0.0,0.0,0.0,0.0,0.0,0.0,0.0,0.0,0.0,0.0,0.0,0.0,0.0,0.0,0.0,0.0,0.0,0.0,0.0,0.0,0.0,0.0,0.0,0.0,0.0,0.7098,0.7098,0.0,0.0,0.0,0.0,0.0,0.6538,0.6381,0.63,0.63,0.63,0.63,0.63,0.63,0.63,0.63,0.63,0.63,0.0,0.0,0.0,0.0,0.0,0.6546,0.6681,0.6573,0.6429,0.6306,0.0,0.6559,0.6736,0.0,0.7638,0.7975,0.0,0.8366,0.8797,0.8211,0.8235,0.8411,0.797,0.7719,0.7543,0.7179,0.6729,0.6272,0.6078,0.6139,0.63,0.0,0.0,0.0,0.0,0.0,0.0,0.0,0.0,0.0,0.0,0.0,0.0,0.0,0.0,0.0,0.0,0.0,0.0,0.0,0.0,0.0,0.0,0.0,0.0,0.0,0.0,0.0,0.0,0.953,0.9618,0.9618,0.9687,0.9019,0.7357,0.7296,0.5708,0.2462,0.2401,0.1602,0.0,0.0,0.0,0.0,0.0,0.0,0.0,0.0,0.0,0.0,0.0,0.0,0.0,0.0,0.0,0.0,0.0,0.0,0.0,0.0,0.0,0.0,0.0,0.0,0.7098,0.7098,0.7098,0.7098,0.0,0.0,0.0,0.6903,0.6729,0.6566,0.6518,0.6381,0.63,0.63,0.63,0.63,0.63,0.63,0.63,0.63,0.63,0.63,0.63,0.0,0.0,0.0,0.0,0.0,0.0,0.6375,0.6334,0.6306,0.645,0.0,0.6593,0.7265,0.7543,0.0,0.0,0.0,0.0,0.8418,0.8411,0.8431,0.8092,0.7807,0.7509,0.6987,0.6634,0.6402,0.6105,0.6139,0.63,0.63,0.0,0.0,0.0,0.0,0.0,0.0,0.0,0.0,0.0,0.0,0.0,0.0,0.0,0.0,0.0,0.0,0.0,0.0,0.0,0.0,0.0,0.0,0.0,0.0,0.0,0.0,0.0,0.9741,0.9761,0.9761,0.869,0.7301,0.5651,0.4487,0.2829,0.074,0.0679,0.0432,0.0,0.0,0.0,0.0,0.0,0.0,0.0,0.0,0.0,0.0,0.0,0.0,0.0,0.0,0.0,0.0,0.0,0.0,0.0,0.0,0.0,0.7098,0.7098,0.7098,0.7098,0.7098,0.7098,0.7098,0.0,0.0,0.0,0.6984,0.6858,0.6702,0.658,0.647,0.6361,0.6306,0.63,0.63,0.63,0.63,0.63,0.63,0.6238,0.6166,0.6166,0.6136,0.6108,0.6108,0.6108,0.6105,0.6166,0.6166,0.6238,0.6313,0.6518,0.0,0.0,0.7251,0.0,0.0,0.8248,0.856,0.0,0.0,0.0,0.8703,0.8343,0.7984,0.7624,0.7278,0.6892,0.6519,0.6281,0.624,0.63,0.63,0.6402,0.6573,0.0,0.0,0.0,0.0,0.0,0.0,0.0,0.0,0.0,0.0,0.0,0.0,0.0,0.0,0.0,0.0,0.0,0.0,0.0,0.0,0.0,0.0,0.9612,0.9734,0.9815,0.9822,0.9822,0.9822,0.8282,0.6625,0.4977,0.3323,0.1725,0.0,0.0,0.0,0.0,0.0,0.0,0.0,0.0,0.0,0.0,0.0,0.0,0.0,0.0,0.0,0.0,0.0,0.0,0.0,0.0,0.0,0.0,0.0,0.0,0.7098,0.7098,0.7112,0.7119,0.7098,0.7125,0.7139,0.0,0.7139,0.7146,0.7146,0.7119,0.6991,0.677,0.6593,0.6484,0.6354,0.6334,0.632,0.632,0.6306,0.63,0.63,0.6112,0.5993,0.5993,0.5874,0.58,0.58,0.58,0.5874,0.5966,0.6,0.6132,0.632,0.6559,0.0,0.679,0.7258,0.7604,0.0,0.0,0.8689,0.8824,0.8621,0.8777,0.9091,0.8601,0.8201,0.0,0.7807,0.7346,0.6783,0.6559,0.645,0.634,0.6286,0.6368,0.647,0.6484,0.0,0.0,0.0,0.0,0.0,0.0,0.0,0.0,0.0,0.0,0.0,0.0,0.0,0.0,0.0,0.0,0.0,0.0,0.0,0.0,0.9557,0.9686,0.9781,0.9795,0.9815,0.97,0.9511,0.816,0.6564,0.4671,0.3262,0.1725,0.0,0.0,0.0,0.0,0.0,0.0,0.0,0.0,0.0,0.0,0.0,0.0,0.0,0.0,0.0,0.0,0.0,0.0,0.0,0.0,0.0,0.0,0.7065,0.7098,0.7098,0.7098,0.7244,0.7285,0.7112,0.7353,0.7468,0.7339,0.7434,0.7509,0.7509,0.7247,0.7071,0.7018,0.681,0.6647,0.6614,0.6538,0.647,0.647,0.6361,0.63,0.63,0.6112,0.5993,0.5993,0.5874,0.58,0.58,0.58,0.582,0.5854,0.6105,0.6272,0.6313,0.6484,0.0,0.7058,0.7631,0.0,0.8008,0.8581,0.8811,0.8764,0.8825,0.8825,0.875,0.8425,0.833,0.8269,0.0,0.0,0.0,0.6837,0.0,0.0,0.6173,0.6098,0.6146,0.6313,0.0,0.0,0.0,0.0,0.0,0.0,0.0,0.0,0.0,0.0,0.0,0.0,0.0,0.0,0.0,0.0,0.0,0.0,0.0,0.0,0.9303,0.9381,0.9517,0.9639,0.9754,0.9207,0.7911,0.7545,0.6014,0.3077,0.2647,0.1725,0.0,0.0,0.0,0.0,0.0,0.0,0.0,0.0,0.0,0.0,0.0,0.0,0.0,0.0,0.0,0.0,0.0,0.0,0.0,0.0,0.0,0.0,0.6977,0.7045,0.7119,0.7244,0.7258,0.7285,0.736,0.7434,0.7509,0.7584,0.7726,0.7821,0.7821,0.7631,0.7483,0.738,0.7238,0.7082,0.6932,0.6783,0.6668,0.6586,0.6484,0.6375,0.63,0.6037,0.5915,0.5915,0.5691,0.5617,0.5617,0.5617,0.5779,0.6139,0.6139,0.6349,0.6702,0.0,0.7068,0.7449,0.7726,0.0,0.8062,0.8791,0.8906,0.8743,0.8967,0.8899,0.871,0.871,0.8513,0.0,0.8085,0.7834,0.7516,0.0,0.6878,0.6634,0.0,0.0,0.0,0.6279,0.6409,0.0,0.0,0.0,0.0,0.0,0.0,0.0,0.0,0.0,0.0,0.0,0.0,0.0,0.0,0.0,0.0,0.0,0.0,0.0,0.0,0.935,0.9415,0.949,0.9632,0.8985,0.7341,0.6541,0.5035,0.2585,0.1663,0.0863,0.0,0.0,0.0,0.0,0.0,0.0,0.0,0.0,0.0,0.0,0.0,0.0,0.0,0.0,0.0,0.0,0.0,0.0,0.0,0.0,0.0,0.0,0.6883,0.6997,0.7132,0.7305,0.7251,0.7265,0.7516,0.7502,0.7563,0.7862,0.8004,0.8042,0.8069,0.8022,0.7907,0.7746,0.7672,0.7536,0.724,0.7092,0.6987,0.6837,0.6627,0.6504,0.6388,0.6017,0.5833,0.58,0.5569,0.5426,0.5392,0.5426,0.576,0.634,0.6234,0.0,0.0,0.0,0.0,0.7767,0.0,0.7977,0.8352,0.8981,0.9062,0.8906,0.9055,0.8974,0.8832,0.9125,0.8771,0.833,0.8513,0.816,0.0,0.0,0.0,0.0,0.0,0.0,0.0,0.0,0.0,0.6511,0.0,0.0,0.0,0.0,0.0,0.0,0.0,0.0,0.0,0.0,0.0,0.0,0.0,0.0,0.0,0.0,0.0,0.0,0.0,0.9391,0.9462,0.9347,0.9585,0.8846,0.6722,0.6133,0.4658,0.2094,0.1295,0.0617,0.0,0.0,0.0,0.0,0.0,0.0,0.0,0.0,0.0,0.0,0.0,0.0,0.0,0.0,0.0,0.0,0.0,0.0,0.0,0.0,0.0,0.0,0.6883,0.6997,0.7098,0.7119,0.7265,0.736,0.7439,0.7604,0.7868,0.818,0.8235,0.8289,0.8418,0.8194,0.8079,0.8187,0.7943,0.7773,0.774,0.7604,0.7455,0.7351,0.6898,0.6668,0.6654,0.6227,0.5935,0.58,0.5644,0.5528,0.5399,0.5535,0.561,0.5725,0.6485,0.0,0.0,0.0,0.7692,0.0,0.8038,0.8689,0.0,0.9374,0.9415,0.9462,0.9096,0.9022,0.9166,0.0,0.9241,0.9191,0.0,0.8777,0.8575,0.7957,0.0,0.0,0.0,0.0,0.0,0.0,0.6108,0.6361,0.0,0.0,0.6593,0.6742,0.0,0.0,0.0,0.0,0.0,0.0,0.0,0.0,0.0,0.0,0.0,0.0,0.0,0.0,0.0,0.0,0.9814,0.9275,0.9815,0.8709,0.5174,0.7573,0.6357,0.0493,0.2954,0.2954,0.0,0.0,0.0,0.0,0.0,0.0,0.0,0.0,0.0,0.0,0.0,0.0,0.0,0.0,0.0,0.0,0.0,0.0,0.0,0.0,0.0,0.0,0.6831,0.6937,0.7152,0.7373,0.7387,0.7535,0.789,0.8221,0.8513,0.8642,0.873,0.8893,0.8988,0.8811,0.8642,0.8533,0.8404,0.8262,0.8085,0.7855,0.7692,0.7631,0.7115,0.679,0.6702,0.6261,0.5919,0.58,0.5657,0.5542,0.5399,0.5549,0.5772,0.6125,0.6681,0.0,0.7197,0.0,0.8343,0.0,0.0,0.0,0.0,0.9639,0.9422,0.9442,0.9164,0.9103,0.9221,0.0,0.9388,0.0,0.0,0.0,0.0,0.8296,0.0,0.0,0.0,0.0,0.0,0.0,0.0,0.0,0.6538,0.0,0.6409,0.0,0.0,0.0,0.0,0.0,0.0,0.0,0.0,0.0,0.0,0.0,0.0,0.0,0.0,0.0,0.0,0.0,0.0,0.0,0.0,0.8357,0.4864,0.603,0.4697,0.0122,0.135,0.1418,0.0,0.0,0.0,0.0,0.0,0.0,0.0,0.0,0.0,0.0,0.0,0.0,0.0,0.0,0.0,0.0,0.0,0.0,0.0,0.0,0.0,0.0,0.6871,0.7027,0.7258,0.7441,0.7455,0.7597,0.8072,0.856,0.8817,0.8817,0.9035,0.9282,0.9422,0.9232,0.9042,0.8906,0.8784,0.8621,0.8404,0.818,0.8018,0.7943,0.7407,0.7041,0.6885,0.6444,0.6118,0.5928,0.5779,0.561,0.546,0.5576,0.5901,0.6369,0.0,0.7146,0.7658,0.0,0.8669,0.9279,0.9035,0.9512,1.0446,0.9808,0.949,0.9361,0.9262,0.9207,0.9241,0.9374,0.9517,0.0,0.9442,0.0,0.9266,0.0,0.0,0.0,0.7375,0.0,0.0,0.0,0.0,0.0,0.0,0.0,0.0,0.0,0.0,0.0,0.0,0.0,0.0,0.0,0.0,0.0,0.0,0.0,0.0,0.0,0.0,0.0,0.0,0.0,0.0,0.0,0.0,0.0,0.5424,0.5263,0.3885,0.0723,0.0673,0.0494,0.0,0.0,0.0,0.0,0.0,0.0,0.0,0.0,0.0,0.0,0.0,0.0,0.0,0.0,0.0,0.0,0.0,0.0,0.0,0.0,0.0,0.0,0.7112,0.7251,0.7319,0.7132,0.74,0.7645,0.7801,0.833,0.8716,0.8716,0.8974,0.9323,0.9571,0.9211,0.9055,0.9334,0.896,0.871,0.8696,0.8689,0.8554,0.832,0.7821,0.7509,0.7398,0.6912,0.6539,0.6286,0.6091,0.5867,0.5589,0.5725,0.5881,0.6033,0.662,0.697,0.7166,0.7957,0.8364,0.8547,0.8825,0.9137,0.9476,0.0,0.9761,0.9361,0.9262,0.0,0.0,0.9503,0.9605,0.0,0.0,0.0,0.0,0.0,0.0,0.0,0.0,0.0,0.0,0.6916,0.0,0.0,0.0,0.0,0.6647,0.0,0.0,0.0,0.0,0.0,0.0,0.0,0.0,0.0,0.0,0.0,0.0,0.0,0.0,0.0,0.0,0.0,0.0,0.0,0.0,0.0,0.6779,0.6739,0.5373,0.2224,0.2321,0.1663,0.0,0.0,0.0,0.0,0.0,0.0,0.0,0.0,0.0,0.0,0.0,0.0,0.0,0.0,0.0,0.0,0.0,0.0,0.0,0.0,0.0,0.0,0.7455,0.7563,0.7645,0.7597,0.7672,0.7821,0.8079,0.871,0.9083,0.8886,0.9293,0.9598,0.9605,0.9557,0.9483,0.9388,0.9239,0.9069,0.8872,0.8804,0.8771,0.8567,0.8133,0.7821,0.7665,0.7129,0.6702,0.6443,0.6293,0.5983,0.0,0.584,0.5946,0.602,0.0,0.7125,0.0,0.0,0.0,0.0,0.0,0.9829,0.9869,0.0,0.9578,0.951,0.9361,0.9367,0.0,0.9571,0.9808,1.0019,0.9822,0.9856,0.9849,0.9198,0.8933,0.8791,0.0,0.0,0.8072,0.7624,0.0,0.0,0.0,0.0,0.0,0.0,0.0,0.0,0.0,0.0,0.0,0.0,0.0,0.0,0.0,0.0,0.0,0.0,0.0,0.0,0.0,0.0,0.0,0.0,0.0,0.0,0.0,0.6849,0.5463,0.2308,0.2369,0.1725,0.0,0.0,0.0,0.0,0.0,0.0,0.0,0.0,0.0,0.0,0.0,0.0,0.0,0.0,0.0,0.0,0.0,0.0,0.0,0.0,0.0,0.0,0.7678,0.7746,0.7794,0.7746,0.7868,0.8079,0.8384,0.8927,0.9232,0.9042,0.9442,0.9727,0.9686,0.972,0.9686,0.9551,0.9442,0.934,0.9202,0.9103,0.8994,0.8954,0.8465,0.8126,0.7977,0.7441,0.7021,0.6709,0.6497,0.6143,0.0,0.0,0.0,0.0,0.0,0.7136,0.7896,0.0,0.8635,0.0,0.0,0.9985,0.0,0.0,0.9632,0.9741,0.0,0.949,0.9537,0.9591,0.9802,0.9998,0.9761,0.9849,0.993,0.9347,0.9205,0.9187,0.8642,0.8608,0.0,0.8099,0.8126,0.0,0.7902,0.0,0.7213,0.0,0.0,0.0,0.0,0.0,0.0,0.0,0.0,0.0,0.0,0.0,0.0,0.0,0.0,0.0,0.0,0.0,0.0,0.0,0.0,0.0,0.0,0.0,0.5664,0.3194,0.2658,0.1593,0.0,0.0,0.0,0.0,0.0,0.0,0.0,0.0,0.0,0.0,0.0,0.0,0.0,0.0,0.0,0.0,0.0,0.0,0.0,0.0,0.0,0.0,0.7834,0.7834,0.7794,0.7678,0.8011,0.8384,0.8669,0.896,0.9207,0.9207,0.9422,0.9659,0.9795,0.9693,0.9673,0.9808,0.9564,0.9517,0.9795,0.9415,0.9303,0.9374,0.8832,0.8459,0.8309,0.7862,0.7475,0.7105,0.6709,0.0,0.0,0.0,0.0,0.0,0.632,0.0,0.7982,0.7753,0.8228,0.9255,0.9483,0.9618,0.9652,0.9774,0.9862,0.9957,0.9727,0.953,0.9422,0.9571,0.9618,0.9646,0.9781,0.9727,0.9612,0.9612,0.9503,0.932,0.9035,0.8852,0.8662,0.8377,0.8354,0.0,0.0,0.0,0.7875,0.0,0.0,0.0,0.0,0.0,0.0,0.0,0.0,0.0,0.0,0.0,0.0,0.0,0.0,0.0,0.0,0.0,0.0,0.0,0.0,0.0,0.0,0.0,0.6103,0.4737,0.3065,0.1516,0.0,0.0,0.0,0.0,0.0,0.0,0.0,0.0,0.0,0.0,0.0,0.0,0.0,0.0,0.0,0.0,0.0,0.0,0.0,0.0,0.0,0.0,0.8153,0.8153,0.8208,0.8391,0.852,0.8621,0.8696,0.896,0.9207,0.9207,0.9422,0.9625,0.9659,0.9727,0.9781,0.9815,0.9754,0.9693,0.9666,0.9652,0.9571,0.9388,0.9232,0.9028,0.8771,0.833,0.7841,0.7312,0.6973,0.0,0.5939,0.0,0.0,0.0,0.0,0.0,0.8208,0.8133,0.8642,0.949,0.9456,0.9707,1.0086,0.0,0.9985,1.0181,0.9876,0.9741,0.9713,0.9754,0.9768,0.9774,0.9808,0.9727,0.9612,0.9612,0.9503,0.9367,0.9286,0.9157,0.8994,0.8811,0.8764,0.8737,0.0,0.0,0.0,0.0,0.0,0.0,0.0,0.0,0.0,0.0,0.0,0.0,0.0,0.0,0.0,0.0,0.0,0.0,0.0,0.0,0.0,0.0,0.0,0.0,0.0,0.0,0.0,0.4741,0.3245,0.1637,0.0,0.0,0.0,0.0,0.0,0.0,0.0,0.0,0.0,0.0,0.0,0.0,0.0,0.0,0.0,0.0,0.0,0.0,0.0,0.0,0.0,0.0,0.8364,0.8472,0.8615,0.8777,0.892,0.9001,0.9001,0.9205,0.9401,0.953,0.9639,0.9727,0.9795,0.9815,0.9822,0.9822,0.9822,0.9842,0.9897,0.9795,0.9713,0.9673,0.9422,0.9205,0.9035,0.8655,0.8167,0.7563,0.7333,0.0,0.6132,0.0,0.0,0.0,0.0,0.7244,0.0,0.8572,0.9028,0.9605,0.9517,0.972,0.0,0.9883,0.993,1.0059,0.9883,0.9822,0.9822,0.9822,0.9822,0.9822,0.9822,0.9768,0.97,0.97,0.9639,0.9557,0.9496,0.9415,0.93,0.9089,0.9083,0.9089,0.894,0.873,0.8581,0.0,0.8126,0.7746,0.0,0.0,0.0,0.0,0.0,0.0,0.0,0.0,0.0,0.0,0.0,0.0,0.0,0.0,0.0,0.0,0.0,0.0,0.0,0.0,0.0,0.4753,0.3194,0.1583,0.0,0.0,0.0,0.0,0.0,0.0,0.0,0.0,0.0,0.0,0.0,0.0,0.0,0.0,0.0,0.0,0.0,0.0,0.0,0.0,0.0,0.0,0.8567,0.8784,0.8925,0.8966,0.9252,0.9449,0.9462,0.953,0.9693,0.995,0.9835,0.9856,0.997,0.9849,0.9822,0.9822,0.9822,0.9937,1.0202,0.9856,0.9754,0.995,0.9517,0.9289,0.9268,0.892,0.8486,0.7902,0.7699,0.0,0.0,0.0,0.0,0.0,0.0,0.0,0.0,0.892,0.9374,0.9639,0.9618,0.9693,0.9822,0.9822,0.9822,0.9822,0.9822,0.9822,0.9822,0.9822,0.9822,0.9822,0.9822,0.9808,0.9795,0.9815,0.9808,0.9768,0.9666,0.9625,0.9544,0.9337,0.9357,0.9347,0.9268,0.9089,0.9028,0.9187,0.8621,0.8224,0.0,0.0,0.0,0.0,0.0,0.0,0.0,0.0,0.0,0.0,0.0,0.0,0.0,0.0,0.0,0.0,0.0,0.0,0.0,0.0,0.0,0.476,0.2897,0.1281,0.0,0.0,0.0,0.0,0.0,0.0,0.0,0.0,0.0,0.0,0.0,0.0,0.0,0.0,0.0,0.0,0.0,0.0,0.0,0.0,0.0,0.0,0.9091,0.9132,0.9191,0.9449,0.9632,0.9788,0.9849,0.9639,0.9571,0.993,0.9815,0.9747,0.9957,0.9849,0.9822,0.9822,0.9822,0.9842,0.9897,0.9829,0.9808,0.9856,0.9761,0.9646,0.953,0.9232,0.89,0.8364,0.7848,0.7387,0.0,0.0,0.0,0.0,0.0,0.0,0.9036,0.9367,0.0,0.9774,0.9659,0.9693,0.9822,0.9822,0.9822,0.9822,0.9822,0.9822,0.9822,0.9822,0.9822,0.9822,0.9822,0.9741,0.9673,0.9788,0.9741,0.9666,0.9761,0.97,0.9598,0.9544,0.9456,0.9374,0.9347,0.932,0.9273,0.9228,0.8954,0.875,0.8831,0.0,0.0,0.0,0.0,0.0,0.0,0.0,0.0,0.0,0.0,0.0,0.0,0.0,0.0,0.0,0.0,0.0,0.0,0.0,0.0,0.0,0.1903,0.0,0.0,0.0,0.0,0.0,0.0,0.0,0.0,0.0,0.0,0.0,0.0,0.0,0.0,0.0,0.0,0.0,0.0,0.0,0.0,0.0,0.0,0.0,0.933,0.9456,0.9639,0.9707,0.9971,1.0168,1.0168,0.9985,0.9951,1.0243,1.0093,1.0012,1.0154,0.997,0.9849,0.9829,0.9822,0.9822,0.9822,0.9822,0.9822,0.9822,0.9747,0.968,0.9612,0.9462,0.9171,0.8716,0.8431,0.8008,0.755,0.0,0.0,0.0,0.0,0.8513,0.0,0.0,0.0,0.9815,0.9747,0.9761,0.9822,0.9822,0.9822,0.9822,0.9822,0.9822,0.9822,0.9822,0.9822,0.9822,0.9822,0.9774,0.9734,0.9802,0.9774,0.9734,0.9802,0.972,0.9625,0.97,0.9551,0.9401,0.9483,0.9435,0.9361,0.9344,0.915,0.9028,0.8898,0.8696,0.0,0.0,0.0,0.0,0.0,0.0,0.0,0.0,0.0,0.0,0.0,0.0,0.0,0.0,0.0,0.0,0.0,0.0,0.0,0.0,0.0,0.0,0.0,0.0,0.0,0.0,0.0,0.0,0.0,0.0,0.0,0.0,0.0,0.0,0.0,0.0,0.0,0.0,0.0,0.0,0.0,0.0,0.0,0.0,0.9571,0.9856,1.0066,0.9978,1.0256,1.0466,1.0385,1.0344,1.0365,1.048,1.0371,1.0283,1.0283,1.0175,1.0025,0.9836,0.9849,0.9856,0.9822,0.9822,0.9822,0.9822,0.9713,0.9673,0.97,0.9639,0.9449,0.0,0.0,0.8548,0.7894,0.0,0.0,0.0,0.0,0.0,0.0,0.0,0.9591,0.9781,0.9808,0.9822,0.9822,0.9822,0.9822,0.9822,0.9822,0.9822,0.9822,0.9822,0.9822,0.9822,0.9822,0.9822,0.9822,0.9822,0.9822,0.9822,0.9822,0.9741,0.968,0.9795,0.9646,0.9503,0.9625,0.9557,0.9462,0.9435,0.9306,0.9164,0.9055,0.8886,0.0,0.0,0.0,0.0,0.0,0.0,0.0,0.0,0.0,0.0,0.0,0.0,0.0,0.0,0.0,0.0,0.0,0.0,0.0,0.0,0.0,0.117,0.0,0.0,0.0,0.0,0.0,0.0,0.0,0.0,0.0,0.0,0.0,0.0,0.0,0.0,0.0,0.0,0.0,0.0,0.0,0.0,0.0,0.0,1.0195,1.0229,1.0297,1.0412,1.0466,1.0534,1.0663,1.0561,1.0473,1.0487,1.0371,1.0283,1.0283,1.027,1.0141,0.9842,0.9883,0.9909,0.9829,0.9822,0.9822,0.9822,0.9808,0.9869,0.9943,0.9747,0.9652,0.0,0.0,0.8492,0.7651,0.8031,0.0,0.0,0.0,0.0,0.0,0.9605,0.972,0.9639,0.9768,0.9822,0.9822,0.9822,0.9822,0.9822,0.9822,0.9822,0.9822,0.9822,0.9822,0.9822,0.9822,0.9822,0.9822,0.9822,0.9822,0.9822,0.9822,0.9815,0.9802,0.9815,0.9802,0.9781,0.9795,0.9788,0.9741,0.9612,0.9462,0.9354,0.934,0.911,0.9033,0.0,0.0,0.0,0.0,0.0,0.0,0.0,0.0,0.0,0.0,0.0,0.0,0.0,0.0,0.0,0.0,0.0,0.0,0.4514,0.0,0.0126,0.0,0.0,0.0,0.0,0.0,0.0,0.0,0.0,0.0,0.0,0.0,0.0,0.0,0.0,0.0,0.0,0.0,0.0,0.0,0.0,0.0,0.0,1.0283,1.0426,1.0534,1.05,1.0643,1.0758,1.0724,1.067,1.0629,1.0629,1.05,1.0378,1.029,1.0358,1.0324,1.0114,1.0154,1.012,0.9909,0.9896,0.9856,0.9822,0.9822,0.9849,0.9849,0.9829,0.9856,0.0,0.0,0.9276,0.8804,0.8804,0.8886,0.8948,0.0,0.9334,0.9564,0.9747,0.9788,0.9741,0.9795,0.9822,0.9822,0.9822,0.9822,0.9822,0.9822,0.9822,0.9822,0.9822,0.9822,0.9822,0.9822,0.9822,0.9822,0.9822,0.9822,0.9822,0.9822,0.9761,0.9713,0.9802,0.9686,0.9605,0.9781,0.9754,0.97,0.9734,0.9618,0.9517,0.9517,0.949,0.9517,0.9666,0.0,0.0,0.0,0.0,0.0,0.0,0.0,0.0,0.0,0.0,0.0,0.0,0.0,0.0,0.0,0.0,0.0,0.3154,0.0,0.18,0.0,0.0,0.0,0.0,0.0,0.0,0.0,0.0,0.0,0.0,0.0,0.0,0.0,0.0,0.0,0.0,0.0,0.0,0.0,0.0,0.0,0.0,1.0412,1.0575,1.0683,1.0575,1.0738,1.0779,1.0738,1.0717,1.0717,1.0717,1.0622,1.0507,1.0358,1.0473,1.0487,1.0297,1.0317,1.0276,1.0127,1.0114,1.0066,0.9958,0.9958,0.0,1.0019,1.0086,1.0086,1.0019,0.9977,0.9748,0.934,0.9035,0.9091,0.0,0.9401,0.9564,0.9761,0.9802,0.9795,0.9761,0.9802,0.9822,0.9822,0.9822,0.9822,0.9822,0.9822,0.9822,0.9822,0.9822,0.9822,0.9822,0.9822,0.9822,0.9822,0.9822,0.9822,0.9822,0.9822,0.9747,0.9693,0.9795,0.9666,0.9564,0.9774,0.9741,0.97,0.9802,0.9741,0.9659,0.9618,0.9693,0.9754,0.9741,0.0,0.0,0.0,0.0,0.0,0.0,0.9035,0.896,0.0,0.0,0.0,0.0,0.0,0.0,0.0,0.0,0.0,0.0,0.0,0.0,0.0,0.0,0.0,0.0,0.0,0.0,0.0,0.0,0.0,0.0,0.0,0.0,0.0,0.0,0.0,0.0,0.0,0.0,0.0,0.0,0.0,0.0,1.0717,1.0717,1.0717,1.0717,1.0717,1.0724,1.0717,1.0717,1.0717,1.0717,1.0717,1.0656,1.0507,1.0622,1.0602,1.0304,1.0412,1.0426,1.029,1.0276,1.0276,0.0,0.0,1.0337,1.048,1.0351,1.0344,1.048,0.0,0.9532,0.8716,0.8418,0.8757,0.9605,0.9605,0.9612,0.9618,0.9761,0.9741,0.9625,0.9768,0.9822,0.9822,0.9822,0.9822,0.9822,0.9822,0.9822,0.9822,0.9822,0.9822,0.9822,0.9822,0.9822,0.9822,0.9822,0.9822,0.9822,0.9822,0.9822,0.9822,0.9822,0.9815,0.9815,0.9822,0.9822,0.9822,0.9822,0.9822,0.9774,0.9639,0.9612,0.9707,0.9936,0.0,0.0,0.0,0.0,0.0,0.0,0.9808,0.9693,0.9401,0.0,0.0,0.0,0.0,0.0,0.0,0.0,0.0,0.4461,0.3208,0.0,0.0,0.0,0.0,0.0,0.0,0.0,0.0,0.0,0.0,0.0,0.0,0.0,0.0,0.0,0.0,0.0,0.0,0.0,0.0,0.0,0.0,0.0,1.0717,1.0717,1.0717,1.0717,1.0717,1.0717,1.0717,1.0717,1.0717,1.0717,1.0717,1.0704,1.0656,1.069,1.0683,0.0,1.0622,1.0582,0.0,1.0426,1.0378,1.0283,1.0283,1.0304,1.0344,1.0399,1.0399,1.0344,0.0,0.0,0.0,0.9469,0.9476,0.9754,0.9754,0.9754,0.9761,0.9856,0.9829,0.9754,0.9802,0.9822,0.9822,0.9822,0.9822,0.9822,0.9822,0.9822,0.9822,0.9822,0.9822,0.9822,0.9822,0.9822,0.9822,0.9822,0.9822,0.9822,0.9822,0.9822,0.9822,0.9822,0.9822,0.9822,0.9822,0.9822,0.9822,0.9822,0.9822,0.9808,0.9761,0.9754,0.9781,0.9876,0.9693,0.0,0.9727,0.0,0.932,0.9361,0.9456,0.9442,0.0,0.9496,0.0,0.0,0.0,0.0,0.0,0.0,0.0,0.0,0.2583,0.0,0.0,0.0,0.0,0.0,0.0,0.0,0.0,0.0,0.0,0.0,0.0,0.0,0.0,0.0,0.0,0.0,0.0,0.0,0.0,0.0,0.0,0.0,1.0717,1.0717,1.0717,1.0717,1.0717,1.0717,1.0717,1.0717,1.0717,1.0717,1.0717,1.0717,1.0717,1.0717,0.0,1.0717,1.0717,1.0677,1.0582,1.0575,1.0534,1.0446,1.0446,1.0446,1.0446,1.0534,0.0,1.0446,1.0521,1.0432,1.0188,0.9937,0.9849,0.9903,0.9849,0.9849,0.9849,0.9883,0.9849,0.9822,0.9822,0.9822,0.9822,0.9822,0.9822,0.9822,0.9822,0.9822,0.9822,0.9822,0.9822,0.9822,0.9822,0.9822,0.9822,0.9822,0.9822,0.9822,0.9822,0.9822,0.9822,0.9822,0.9822,0.9822,0.9822,0.9822,0.9822,0.9822,0.9822,0.9822,0.9822,0.9822,0.9822,0.9822,0.9747,0.9686,0.9686,0.0,0.951,0.0,0.0,0.0,0.0,0.97,0.9255,0.0,0.0,0.0,0.0,0.0,0.0,0.3331,0.2685,0.0,0.0,0.0,0.0,0.0,0.0,0.0,0.0,0.0,0.0,0.0,0.0,0.0,0.0,0.0,0.0,0.0,0.0,0.0,0.0,0.0,0.0,0.0,1.0717,1.0717,1.0717,1.0717,1.0717,1.0717,1.0717,1.0717,1.0717,1.0717,1.0717,1.0717,1.0717,1.0717,1.0717,1.0717,0.0,0.0,1.0717,1.0717,1.0717,1.0717,1.0717,1.0717,1.0717,1.0717,1.0717,1.0717,1.0446,1.0229,1.0011,0.9924,0.9924,0.9977,0.989,0.9835,0.9963,0.9883,0.9822,0.9822,0.9822,0.9822,0.9822,0.9822,0.9822,0.9822,0.9822,0.9822,0.9822,0.9822,0.9822,0.9822,0.9822,0.9822,0.9822,0.9822,0.9822,0.9822,0.9822,0.9822,0.9822,0.9822,0.9822,0.9822,0.9822,0.9822,0.9822,0.9822,0.9822,0.9822,0.9822,0.9822,0.9822,0.9822,0.9822,0.9822,0.9822,0.9707,0.9822,0.0,0.0,0.0,1.0222,1.0176,0.993,0.0,0.0,0.0,0.0,0.0,0.3025,0.4493,0.3075,0.1551,0.0,0.0,0.0,0.0,0.0,0.0,0.0,0.0,0.0,0.0,0.0,0.0,0.0,0.0,0.0,0.0,0.0,0.0,0.0,0.0,0.0,0.0,1.0717,1.0717,1.0717,1.0717,1.0717,1.0717,1.0717,1.0717,1.0717,1.0717,1.0717,1.0717,1.0717,1.0717,1.0717,1.0717,1.0717,1.0717,1.0717,1.0717,1.0717,1.0717,1.0717,1.0717,1.0717,1.0717,1.0717,1.0717,1.0649,1.0534,1.0385,1.0243,1.0127,0.9977,0.989,0.9842,0.9869,0.9836,0.9822,0.9822,0.9822,0.9822,0.9822,0.9822,0.9822,0.9822,0.9822,0.9822,0.9822,0.9822,0.9822,0.9822,0.9822,0.9822,0.9822,0.9822,0.9822,0.9822,0.9822,0.9822,0.9822,0.9822,0.9822,0.9822,0.9822,0.9822,0.9822,0.9822,0.9822,0.9822,0.9822,0.9822,0.9822,0.9822,0.9822,0.9822,0.9822,0.9795,0.9781,0.0,0.9856,0.9849,0.9774,0.9836,0.9298,0.0,0.0,0.0,0.0,0.2394,0.134,0.2956,0.1417,0.0371,0.0,0.0,0.0,0.0,0.0,0.0,0.0,0.0,0.0,0.0,0.0,0.0,0.0,0.0,0.0,0.0,0.0,0.0,0.0,0.0,0.0,0.0,1.0839,1.0759,1.0806,1.0731,1.0717,1.0717,1.0717,1.0717,1.0717,1.0717,1.0717,1.0717,1.0717,1.0717,1.0717,1.0717,1.0717,1.0717,1.0717,1.0717,1.0717,1.0717,1.0717,1.0717,1.0717,1.0717,1.0717,1.0717,1.0649,1.0575,1.0487,1.0344,1.0195,0.9984,0.9903,0.9883,0.9822,0.9822,0.9822,0.9822,0.9822,0.9822,0.9822,0.9822,0.9822,0.9822,0.9822,0.9822,0.9822,0.9822,0.9822,0.9822,0.9822,0.9822,0.9822,0.9822,0.9822,0.9822,0.9822,0.9822,0.9822,0.9822,0.9822,0.9822,0.9822,0.9822,0.9822,0.9822,0.9822,0.9822,0.9822,0.9822,0.9822,0.9822,0.9822,0.9822,0.9822,0.9822,0.9795,0.9713,0.9774,0.9788,0.9713,0.9774,0.9452,0.8661,0.7722,0.0,0.5077,0.3324,0.2396,0.2525,0.0863,0.0,0.0,0.0,0.0,0.0,0.0,0.0,0.0,0.0,0.0,0.0,0.0,0.0,0.0,0.0,0.0,0.0,0.0,0.0,0.0,0.0,0.0,0.0,1.1002,1.0982,1.0934,1.0778,1.0758,1.0744,1.0724,1.0717,1.0717,1.0717,1.0717,1.0717,1.0717,1.0717,1.0717,1.0717,1.0717,1.0717,1.0717,1.0717,1.0717,1.0717,1.0717,1.0717,1.0717,1.0717,1.0717,1.0717,1.0588,1.0514,1.0487,1.0371,1.0229,1.0024,1.0024,0.9936,0.9856,0.9856,0.9842,0.9822,0.9822,0.9822,0.9822,0.9822,0.9822,0.9822,0.9822,0.9822,0.9822,0.9822,0.9822,0.9822,0.9822,0.9822,0.9822,0.9822,0.9822,0.9822,0.9822,0.9822,0.9822,0.9822,0.9822,0.9822,0.9822,0.9822,0.9822,0.9822,0.9822,0.9822,0.9822,0.9822,0.9849,0.9944,0.9883,0.9856,0.9944,0.9876,0.9822,0.9822,0.9822,0.9822,0.9822,0.9822,0.9876,0.9943,0.9764,0.8256,0.5258,0.4821,0.3924,0.2156,0.074,0.0,0.0,0.0,0.0,0.0,0.0,0.0,0.0,0.0,0.0,0.0,0.0,0.0,0.0,0.0,0.0,0.0,0.0,0.0,0.0,0.0,0.0,0.0,1.1131,1.1131,1.1084,1.0873,1.0847,1.0799,1.0738,1.0717,1.0717,1.0717,1.0717,1.0717,1.0717,1.0717,1.0717,1.0717,1.0717,1.0717,1.0717,1.0717,1.0717,1.0717,1.0717,1.0717,1.0717,1.0717,1.0717,1.0717,1.0697,1.0616,1.0493,1.0466,1.0385,1.0243,1.0243,1.0161,0.995,0.995,0.9876,0.9822,0.9822,0.9822,0.9822,0.9822,0.9822,0.9822,0.9822,0.9822,0.9822,0.9822,0.9822,0.9822,0.9822,0.9822,0.9822,0.9822,0.9822,0.9822,0.9822,0.9822,0.9822,0.9822,0.9822,0.9822,0.9822,0.9822,0.9822,0.9822,0.9822,0.9822,0.9822,0.9822,0.9992,1.05,1.0154,0.9998,1.0507,1.0141,0.9822,0.9822,0.9822,0.9822,0.9822,0.9822,0.9829,0.9856,0.8561,0.6959,0.5056,0.364,0.216,0.0432,0.0123,0.0,0.0,0.0,0.0,0.0,0.0,0.0,0.0,0.0,0.0,0.0,0.0,0.0,0.0,0.0,0.0,0.0,0.0,0.0,0.0,0.0,0.0,0.0,1.1301,1.1287,1.124,1.109,1.1063,1.1016,1.0799,1.0846,1.0812,1.0731,1.0717,1.0717,1.0717,1.0717,1.0717,1.0717,1.0717,1.0717,1.0717,1.0717,1.0717,1.0717,1.0717,1.0717,1.0717,1.0717,1.0717,1.0717,1.0717,1.0683,1.0616,1.0616,1.0534,1.0392,1.0392,1.031,1.0175,1.0175,1.0086,0.9883,0.9883,0.9897,0.9822,0.9822,0.9822,0.9822,0.9822,0.9822,0.9822,0.9822,0.9822,0.9822,0.9822,0.9822,0.9822,0.9822,0.9822,0.9822,0.9822,0.9822,0.9822,0.9822,0.9822,0.9822,0.9822,0.9822,0.9822,0.9822,0.9822,0.9822,0.9822,0.9822,0.991,1.0188,1.0005,0.9917,1.0195,0.9998,0.9822,0.9822,0.9822,0.9822,0.9822,0.9822,0.9822,0.9822,0.9079,0.7606,0.5039,0.418,0.2647,0.0062,0.0,0.0,0.0,0.0,0.0,0.0,0.0,0.0,0.0,0.0,0.0,0.0,0.0,0.0,0.0,0.0,0.0,0.0,0.0,0.0,0.0,0.0,0.0,0.0,1.1463,1.1443,1.1396,1.124,1.1212,1.1165,1.1023,1.09,1.084,1.0785,1.0744,1.0717,1.0717,1.0717,1.0717,1.0717,1.0717,1.0717,1.0717,1.0717,1.0717,1.0717,1.0717,1.0717,1.0717,1.0717,1.0717,1.0717,1.0717,1.0717,1.0717,1.0717,1.0656,1.0548,1.0548,1.0466,1.0331,1.0331,1.0222,0.9984,0.9984,0.9896,0.9822,0.9822,0.9822,0.9822,0.9822,0.9822,0.9822,0.9822,0.9822,0.9822,0.9822,0.9822,0.9822,0.9822,0.9822,0.9822,0.9822,0.9822,0.9822,0.9822,0.9822,0.9822,0.9822,0.9822,0.9822,0.9822,0.9822,0.9822,0.9822,0.9822,0.9869,1.0005,0.991,0.9869,1.0012,0.991,0.9822,0.9822,0.9822,0.9822,0.9822,0.9822,0.9822,0.9822,0.9822,0.8349,0.51,0.4916,0.3382,0.0123,0.0,0.0,0.0,0.0,0.0,0.0,0.0,0.0,0.0,0.0,0.0,0.0,0.0,0.0,0.0,0.0,0.0,0.0,0.0,0.0,0.0,0.0,0.0,0.0,1.1606,1.1599,1.1552,1.1402,1.1375,1.1321,1.1172,1.1036,1.088,1.0867,1.0806,1.0717,1.0717,1.0717,1.0717,1.0717,1.0717,1.0717,1.0717,1.0717,1.0717,1.0717,1.0717,1.0717,1.0717,1.0717,1.0717,1.0717,1.0717,1.0717,1.0717,1.0717,1.0717,1.0704,1.0704,1.0616,1.0473,1.0473,1.031,0.9984,0.9984,0.9896,0.9822,0.9822,0.9822,0.9822,0.9822,0.9822,0.9822,0.9822,0.9822,0.9822,0.9822,0.9822,0.9822,0.9822,0.9822,0.9822,0.9822,0.9822,0.9822,0.9822,0.9822,0.9822,0.9822,0.9822,0.9822,0.9822,0.9822,0.9822,0.9822,0.9822,1.0005,1.0561,1.0188,1.0019,1.0575,1.0175,0.9822,0.9822,0.9822,0.9822,0.9822,0.9822,0.9822,0.9822,0.9822,0.8349,0.51,0.4916,0.3382,0.0123,0.0,0.0,0.0,0.0,0.0,0.0,0.0,0.0,0.0,0.0,0.0,0.0,0.0,0.0,0.0,0.0,0.0,0.0,0.0,0.0,0.0,0.0,0.0,0.0,1.1619,1.1619,1.1599,1.1545,1.1531,1.1484,1.1328,1.1179,1.105,1.0894,1.0745,1.0717,1.0717,1.0717,1.0717,1.0717,1.0717,1.0717,1.0717,1.0717,1.0717,1.0717,1.0717,1.0717,1.0717,1.0717,1.0717,1.0717,1.0717,1.0717,1.0717,1.0717,1.0717,1.0717,1.0717,1.069,1.0629,1.0534,1.0378,1.0181,1.0024,0.9896,0.9822,0.9822,0.9822,0.9822,0.9822,0.9822,0.9822,0.9822,0.9822,0.9822,0.9822,0.9822,0.9822,0.9822,0.9822,0.9822,0.9822,0.9822,0.9822,0.9822,0.9822,0.9822,0.9822,0.9822,0.9822,0.9822,0.9822,0.9822,0.9822,0.9822,0.9897,1.0127,0.9971,0.9903,1.0127,0.9964,0.9822,0.9822,0.9822,0.9822,0.9822,0.9822,0.9822,0.9822,0.9822,0.8836,0.6564,0.4548,0.2339,0.0062,0.0,0.0,0.0,0.0,0.0,0.0,0.0,0.0,0.0,0.0,0.0,0.0,0.0,0.0,0.0,0.0,0.0,0.0,0.0,0.0,0.0,0.0,0.0,0.0135,1.1619,1.1619,1.1619,1.1619,1.1619,1.1586,1.1477,1.1335,1.1179,1.1036,1.0887,1.0772,1.0724,1.0717,1.0717,1.0717,1.0717,1.0717,1.0717,1.0717,1.0717,1.0717,1.0717,1.0717,1.0717,1.0717,1.0717,1.0717,1.0717,1.0717,1.0717,1.0717,1.0717,1.0717,1.0717,1.0717,1.0711,1.0609,1.0453,1.027,1.0168,0.9998,0.9822,0.9822,0.9822,0.9822,0.9822,0.9822,0.9822,0.9822,0.9822,0.9822,0.9822,0.9822,0.9822,0.9822,0.9822,0.9822,0.9822,0.9822,0.9822,0.9822,0.9822,0.9822,0.9822,0.9822,0.9822,0.9822,0.9822,0.9822,0.9822,0.9822,0.9822,0.9822,0.9822,0.9822,0.9822,0.9822,0.9822,0.9822,0.9822,0.9822,0.9822,0.9822,0.9822,0.9822,0.9822,0.9079,0.7484,0.43,0.1971,0.0802,0.0248,0.0,0.0,0.0,0.0,0.0,0.0,0.0,0.0,0.0,0.0,0.0,0.0,0.0,0.0,0.0,0.0,0.0,0.0,0.0,0.0,0.0,0.0336,0.1009,1.1619,1.1619,1.1619,1.1619,1.1619,1.1619,1.1619,1.1491,1.1335,1.1255,1.1036,1.0826,1.0738,1.0717,1.0717,1.0717,1.0717,1.0717,1.0717,1.0717,1.0717,1.0717,1.0717,1.0717,1.0717,1.0717,1.0717,1.0717,1.0717,1.0717,1.0717,1.0717,1.0717,1.0717,1.0717,1.0717,1.0717,1.0717,1.0548,1.0283,1.0276,1.0093,0.9822,0.9822,0.9822,0.9822,0.9822,0.9822,0.9822,0.9822,0.9822,0.9822,0.9822,0.9822,0.9822,0.9822,0.9822,0.9822,0.9822,0.9822,0.9822,0.9822,0.9822,0.9822,0.9822,0.9822,0.9822,0.9822,0.9822,0.9822,0.9822,0.9822,0.9822,0.9822,0.9822,0.9822,0.9822,0.9822,0.9822,0.9822,0.9822,0.9822,0.9822,0.9822,0.9822,0.9822,0.9822,0.9079,0.7484,0.43,0.2524,0.2525,0.0876,0.0,0.0,0.0,0.0,0.0,0.0,0.0,0.0,0.0,0.0,0.0,0.0,0.0,0.0,0.0,0.0,0.0,0.0,0.0,0.0,0.0,0.1142,0.2752,1.1619,1.1619,1.1619,1.1619,1.1619,1.1619,1.1619,1.1491,1.1375,1.1328,1.1104,1.086,1.082,1.0785,1.0717,1.0717,1.0717,1.0717,1.0717,1.0717,1.0717,1.0717,1.0717,1.0717,1.0717,1.0717,1.0717,1.0717,1.0717,1.0717,1.0717,1.0717,1.0717,1.0717,1.0717,1.0717,1.0711,1.0609,1.0453,1.027,1.0161,0.9998,0.9822,0.9822,0.9822,0.9822,0.9822,0.9822,0.9822,0.9822,0.9822,0.9822,0.9822,0.9822,0.9822,0.9822,0.9822,0.9822,0.9822,0.9822,0.9822,0.9822,0.9822,0.9822,0.9822,0.9822,0.9822,0.9822,0.9822,0.9822,0.9822,0.9822,0.9822,0.9822,0.9822,0.9822,0.9822,0.9822,0.9822,0.9822,0.9822,0.9822,0.9822,0.9822,0.9822,0.9822,0.9822,0.9079,0.7484,0.5341,0.3645,0.2564,0.0881,0.0,0.0,0.0,0.0,0.0,0.0,0.0,0.0067,0.1341,0.121,0.0067,0.1344,0.1143,0.0,0.0,0.0,0.0,0.0,0.0807,0.1881,0.1881,0.3021,0.476,1.1619,1.1619,1.1619,1.1619,1.1619,1.1619,1.1619,1.1538,1.1457,1.1402,1.1233,1.1104,1.1036,1.0948,1.0873,1.0812,1.0758,1.0717,1.0717,1.0717,1.0717,1.0717,1.0717,1.0717,1.0717,1.0717,1.0717,1.0717,1.0717,1.0717,1.0717,1.0717,1.0717,1.0717,1.0717,1.0717,1.0717,1.0622,1.0466,1.027,1.0181,1.0012,0.9822,0.9822,0.9822,0.9822,0.9822,0.9822,0.9822,0.9822,0.9822,0.9822,0.9822,0.9822,0.9822,0.9822,0.9822,0.9822,0.9822,0.9822,0.9822,0.9822,0.9822,0.9822,0.9822,0.9822,0.9822,0.9822,0.9822,0.9822,0.9822,0.9822,0.9822,0.9822,0.9822,0.9822,0.9822,0.9822,0.9822,0.9822,0.9822,0.9822,0.9822,0.9822,0.9822,0.9822,0.9822,0.9079,0.7484,0.5802,0.4173,0.2581,0.0893,0.0,0.0,0.0,0.0,0.0,0.0,0.0,0.0067,0.1881,0.168,0.0067,0.1881,0.168,0.0,0.0,0.0404,0.1076,0.1076,0.2148,0.3756,0.3756,0.4894,0.6564,1.1619,1.1619,1.1619,1.1619,1.1619,1.1619,1.1619,1.1619,1.1572,1.143,1.1402,1.1341,1.1199,1.1241,1.1111,1.0914,1.0826,1.0731,1.0724,1.0717,1.0717,1.0717,1.0717,1.0717,1.0717,1.0717,1.0717,1.0717,1.0717,1.0717,1.0717,1.0717,1.0717,1.0717,1.0717,1.0717,1.0717,1.0717,1.0555,1.0297,1.0283,1.0107,0.9842,0.9829,0.9822,0.9822,0.9822,0.9822,0.9822,0.9822,0.9822,0.9822,0.9822,0.9822,0.9822,0.9822,0.9822,0.9822,0.9822,0.9822,0.9822,0.9822,0.9822,0.9822,0.9822,0.9822,0.9822,0.9822,0.9822,0.9822,0.9822,0.9822,0.9822,0.9822,0.9822,0.9822,0.9822,0.9822,0.9822,0.9822,0.9822,0.9822,0.9822,0.9822,0.9822,0.9822,0.9836,0.9159,0.7683,0.6048,0.4407,0.2781,0.1104,0.0132,0.0,0.0,0.0,0.0,0.0,0.0067,0.0269,0.1948,0.1814,0.0336,0.2014,0.168,0.0,0.0202,0.121,0.2685,0.2887,0.4024,0.5629,0.5629,0.6765,0.8235,1.1619,1.1619,1.1619,1.1619,1.1619,1.1619,1.1619,1.1619,1.1606,1.1572,1.1463,1.1382,1.1348,1.1233,1.1151,1.1118,1.0982,1.0779,1.0724,1.0717,1.0717,1.0717,1.0717,1.0717,1.0717,1.0717,1.0717,1.0717,1.0717,1.0717,1.0717,1.0717,1.0717,1.0717,1.0717,1.0717,1.0717,1.0717,1.0616,1.0432,1.0324,1.0168,0.9923,0.9869,0.9822,0.9822,0.9822,0.9822,0.9822,0.9822,0.9822,0.9822,0.9822,0.9822,0.9822,0.9822,0.9822,0.9822,0.9822,0.9822,0.9822,0.9822,0.9822,0.9822,0.9822,0.9822,0.9822,0.9822,0.9822,0.9822,0.9822,0.9822,0.9822,0.9822,0.9822,0.9822,0.9822,0.9822,0.9822,0.9822,0.9822,0.9822,0.9822,0.9822,0.9822,0.9822,0.9869,0.9813,0.9435,0.7985,0.6357,0.4615,0.2946,0.1455,0.0,0.0,0.0,0.0,0.0,0.074,0.2148,0.2551,0.2484,0.2148,0.2551,0.168,0.0135,0.1545,0.235,0.2819,0.4292,0.5897,0.7431,0.7431,0.8568,1.0146,1.1619,1.1619,1.1619,1.1619,1.1619,1.1619,1.1619,1.1619,1.1619,1.1619,1.1552,1.1497,1.1497,1.143,1.1348,1.128,1.1138,1.0989,1.0839,1.0826,1.0799,1.0724,1.0717,1.0717,1.0717,1.0717,1.0717,1.0717,1.0717,1.0717,1.0717,1.0717,1.0717,1.0717,1.0717,1.0717,1.0717,1.0717,1.0629,1.048,1.0337,1.0188,0.997,0.9876,0.9822,0.9822,0.9822,0.9822,0.9822,0.9822,0.9822,0.9822,0.9822,0.9822,0.9822,0.9822,0.9822,0.9822,0.9822,0.9822,0.9822,0.9822,0.9822,0.9822,0.9822,0.9822,0.9822,0.9822,0.9822,0.9822,0.9822,0.9822,0.9822,0.9822,0.9822,0.9822,0.9822,0.9822,0.9822,0.9822,0.9822,0.9822,0.9822,0.9822,0.9849,0.9924,1.0005,0.9699,0.901,0.8236,0.664,0.4068,0.3965,0.2731,0.0,0.168,0.2148,0.1277,0.1277,0.2216,0.3957,0.3957,0.3488,0.2685,0.2685,0.168,0.0135,0.1948,0.3222,0.4158,0.5964,0.7698,0.9305,0.9305,0.9952,1.086,1.1619,1.1619,1.1619,1.1619,1.1619,1.1619,1.1619,1.1619,1.1619,1.1619,1.1619,1.1619,1.1619,1.1619,1.1558,1.1402,1.1274,1.1138,1.0927,1.0894,1.0826,1.0765,1.0731,1.0717,1.0717,1.0717,1.0717,1.0717,1.0717,1.0717,1.0717,1.0717,1.0717,1.0717,1.0717,1.0717,1.0717,1.0717,1.0649,1.0521,1.0371,1.0222,1.0011,0.9917,0.9842,0.9822,0.9822,0.9822,0.9822,0.9822,0.9822,0.9822,0.9822,0.9822,0.9822,0.9822,0.9822,0.9822,0.9822,0.9822,0.9822,0.9822,0.9822,0.9822,0.9822,0.9822,0.9822,0.9822,0.9822,0.9822,0.9822,0.9822,0.9822,0.9822,0.9822,0.9822,0.9822,0.9822,0.9822,0.9822,0.9822,0.9829,0.9856,0.9863,0.9924,1.0142,1.0114,0.9538,0.8306,0.8296,0.6845,0.3689,0.5062,0.4292,0.0941,0.389,0.4827,0.3622,0.3287,0.3957,0.5362,0.5095,0.4091,0.2685,0.2685,0.1881,0.0605,0.2751,0.4492,0.603,0.7764,0.9371,1.0724,1.0751,1.0772,1.0907,1.1619,1.1619,1.1619,1.1619,1.1619,1.1619,1.1619,1.1619,1.1619,1.1619,1.1619,1.1619,1.1619,1.1619,1.1558,1.1402,1.1369,1.1294,1.1145,1.1016,1.0873,1.0853,1.0792,1.0717,1.0717,1.0717,1.0717,1.0717,1.0717,1.0717,1.0717,1.0717,1.0717,1.0717,1.0717,1.0717,1.0717,1.0717,1.0711,1.0677,1.0521,1.0378,1.0236,1.008,0.9876,0.9822,0.9822,0.9822,0.9822,0.9822,0.9822,0.9822,0.9822,0.9822,0.9822,0.9822,0.9822,0.9822,0.9822,0.9822,0.9822,0.9822,0.9822,0.9822,0.9822,0.9822,0.9822,0.9822,0.9822,0.9822,0.9822,0.9822,0.9822,0.9822,0.9822,0.9822,0.9822,0.9822,0.9822,0.9822,0.9822,0.9876,0.9943,0.9957,1.0086,1.0236,1.0365,1.0375,1.0136,1.0208,0.9347,0.7341,0.7488,0.6698,0.4693,0.5162,0.603,0.7293,0.5763,0.5162,0.5362,0.3756,0.2954,0.2685,0.2685,0.2551,0.2618,0.5893,0.7431,0.7831,0.9643,1.0452,1.0738,1.0799,1.086,1.0921,1.1619,1.1619,1.1619,1.1619,1.1619,1.1619,1.1619,1.1619,1.1619,1.1619,1.1619,1.1619,1.1619,1.1619,1.1592,1.1525,1.1518,1.1457,1.1301,1.1233,1.1124,1.0887,1.0813,1.0806,1.0724,1.0717,1.0717,1.0717,1.0717,1.0717,1.0717,1.0717,1.0717,1.0717,1.0717,1.0717,1.0717,1.0717,1.0717,1.0704,1.0555,1.0405,1.0263,1.0107,0.9896,0.9822,0.9822,0.9822,0.9822,0.9822,0.9822,0.9822,0.9822,0.9822,0.9822,0.9822,0.9822,0.9822,0.9822,0.9822,0.9822,0.9822,0.9822,0.9822,0.9822,0.9822,0.9822,0.9822,0.9822,0.9822,0.9822,0.9822,0.9822,0.9822,0.9822,0.9822,0.9822,0.9822,0.9822,0.9822,0.9897,0.9916,0.9977,1.0127,1.0243,1.0385,1.046,1.0527,1.0616,1.0683,0.9842,0.803,0.8972,0.8169,0.5429,0.7369,0.8235,0.7964,0.7231,0.6831,0.6765,0.3957,0.3222,0.4158,0.3155,0.3289,0.4426,0.6965,0.803,0.8163,0.9981,1.0772,1.0786,1.0853,1.105,1.1212]}]]